<?xml version="1.0" encoding="UTF-8" standalone="no" ?>
<gpx xmlns="http://www.topografix.com/GPX/1/1" xmlns:xsi="http://www.w3.org/2001/XMLSchema-instance" xsi:schemaLocation="http://www.topografix.com/GPX/1/1 http://www.topografix.com/GPX/1/1/gpx.xsd" version="1.1" creator="VisuGPX - https://www.visugpx.com">
  <metadata>
    <name>2019-06-07 12:43:40</name>
    <desc><![CDATA[

]]></desc>
  </metadata>
  <trk>
    <name><![CDATA[2019-06-07 12:43:40]]></name>
    <trkseg>
      <trkpt lat="42.60518" lon="-8.64486">
        <ele>-24.38</ele>
        <time>2019-06-07T05:49:28Z</time>
      </trkpt>
      <trkpt lat="42.60518" lon="-8.6448">
        <ele>-24.86</ele>
        <time>2019-06-07T05:49:47Z</time>
      </trkpt>
      <trkpt lat="42.60519" lon="-8.64471">
        <ele>-24.86</ele>
        <time>2019-06-07T05:50:03Z</time>
      </trkpt>
      <trkpt lat="42.6052" lon="-8.64471">
        <ele>-24.86</ele>
        <time>2019-06-07T05:50:05Z</time>
      </trkpt>
      <trkpt lat="42.60525" lon="-8.64478">
        <ele>-25.34</ele>
        <time>2019-06-07T05:50:17Z</time>
      </trkpt>
      <trkpt lat="42.6053" lon="-8.64484">
        <ele>-24.86</ele>
        <time>2019-06-07T05:50:30Z</time>
      </trkpt>
      <trkpt lat="42.60533" lon="-8.64489">
        <ele>-24.38</ele>
        <time>2019-06-07T05:50:38Z</time>
      </trkpt>
      <trkpt lat="42.60535" lon="-8.64491">
        <ele>-24.38</ele>
        <time>2019-06-07T05:50:40Z</time>
      </trkpt>
      <trkpt lat="42.6054" lon="-8.64496">
        <ele>-24.38</ele>
        <time>2019-06-07T05:50:45Z</time>
      </trkpt>
      <trkpt lat="42.60546" lon="-8.645">
        <ele>-24.38</ele>
        <time>2019-06-07T05:50:55Z</time>
      </trkpt>
      <trkpt lat="42.60547" lon="-8.64503">
        <ele>-23.9</ele>
        <time>2019-06-07T05:51:10Z</time>
      </trkpt>
      <trkpt lat="42.60554" lon="-8.64509">
        <ele>-23.41</ele>
        <time>2019-06-07T05:51:23Z</time>
      </trkpt>
      <trkpt lat="42.60563" lon="-8.64511">
        <ele>-23.9</ele>
        <time>2019-06-07T05:51:37Z</time>
      </trkpt>
      <trkpt lat="42.60563" lon="-8.64514">
        <ele>-23.41</ele>
        <time>2019-06-07T05:51:55Z</time>
      </trkpt>
      <trkpt lat="42.60566" lon="-8.64517">
        <ele>-24.38</ele>
        <time>2019-06-07T05:52:06Z</time>
      </trkpt>
      <trkpt lat="42.60571" lon="-8.6452">
        <ele>-23.9</ele>
        <time>2019-06-07T05:52:17Z</time>
      </trkpt>
      <trkpt lat="42.60577" lon="-8.64529">
        <ele>-23.41</ele>
        <time>2019-06-07T05:52:29Z</time>
      </trkpt>
      <trkpt lat="42.60578" lon="-8.64529">
        <ele>-23.41</ele>
        <time>2019-06-07T05:52:30Z</time>
      </trkpt>
      <trkpt lat="42.60582" lon="-8.64532">
        <ele>-20.05</ele>
        <time>2019-06-07T05:52:35Z</time>
      </trkpt>
      <trkpt lat="42.60583" lon="-8.64533">
        <ele>-19.09</ele>
        <time>2019-06-07T05:52:37Z</time>
      </trkpt>
      <trkpt lat="42.60586" lon="-8.64532">
        <ele>-16.69</ele>
        <time>2019-06-07T05:52:41Z</time>
      </trkpt>
      <trkpt lat="42.6059" lon="-8.64534">
        <ele>-14.28</ele>
        <time>2019-06-07T05:52:49Z</time>
      </trkpt>
      <trkpt lat="42.60591" lon="-8.64536">
        <ele>-13.32</ele>
        <time>2019-06-07T05:52:52Z</time>
      </trkpt>
      <trkpt lat="42.60598" lon="-8.64537">
        <ele>-11.88</ele>
        <time>2019-06-07T05:53:04Z</time>
      </trkpt>
      <trkpt lat="42.60604" lon="-8.6454">
        <ele>-11.4</ele>
        <time>2019-06-07T05:53:13Z</time>
      </trkpt>
      <trkpt lat="42.60613" lon="-8.64543">
        <ele>-10.92</ele>
        <time>2019-06-07T05:53:25Z</time>
      </trkpt>
      <trkpt lat="42.60623" lon="-8.64545">
        <ele>-9.96</ele>
        <time>2019-06-07T05:53:37Z</time>
      </trkpt>
      <trkpt lat="42.60634" lon="-8.64546">
        <ele>-11.4</ele>
        <time>2019-06-07T05:53:51Z</time>
      </trkpt>
      <trkpt lat="42.60653" lon="-8.6455">
        <ele>-10.92</ele>
        <time>2019-06-07T05:54:01Z</time>
      </trkpt>
      <trkpt lat="42.60669" lon="-8.64554">
        <ele>-10.44</ele>
        <time>2019-06-07T05:54:14Z</time>
      </trkpt>
      <trkpt lat="42.60687" lon="-8.6455">
        <ele>-9.96</ele>
        <time>2019-06-07T05:54:28Z</time>
      </trkpt>
      <trkpt lat="42.60699" lon="-8.6455">
        <ele>-9.96</ele>
        <time>2019-06-07T05:54:47Z</time>
      </trkpt>
      <trkpt lat="42.60705" lon="-8.64553">
        <ele>-9.48</ele>
        <time>2019-06-07T05:55:00Z</time>
      </trkpt>
      <trkpt lat="42.60716" lon="-8.64554">
        <ele>-9</ele>
        <time>2019-06-07T05:55:13Z</time>
      </trkpt>
      <trkpt lat="42.60717" lon="-8.64554">
        <ele>-9.96</ele>
        <time>2019-06-07T05:55:14Z</time>
      </trkpt>
      <trkpt lat="42.60725" lon="-8.64552">
        <ele>-9</ele>
        <time>2019-06-07T05:55:20Z</time>
      </trkpt>
      <trkpt lat="42.60731" lon="-8.64549">
        <ele>-9</ele>
        <time>2019-06-07T05:55:25Z</time>
      </trkpt>
      <trkpt lat="42.60741" lon="-8.64548">
        <ele>-9</ele>
        <time>2019-06-07T05:55:35Z</time>
      </trkpt>
      <trkpt lat="42.60756" lon="-8.64545">
        <ele>-8.03</ele>
        <time>2019-06-07T05:55:49Z</time>
      </trkpt>
      <trkpt lat="42.6076" lon="-8.64541">
        <ele>-8.03</ele>
        <time>2019-06-07T05:55:54Z</time>
      </trkpt>
      <trkpt lat="42.60763" lon="-8.64539">
        <ele>-7.55</ele>
        <time>2019-06-07T05:55:57Z</time>
      </trkpt>
      <trkpt lat="42.6077" lon="-8.64538">
        <ele>-7.55</ele>
        <time>2019-06-07T05:56:08Z</time>
      </trkpt>
      <trkpt lat="42.60773" lon="-8.64537">
        <ele>-7.07</ele>
        <time>2019-06-07T05:56:19Z</time>
      </trkpt>
      <trkpt lat="42.60775" lon="-8.64538">
        <ele>-6.59</ele>
        <time>2019-06-07T05:56:24Z</time>
      </trkpt>
      <trkpt lat="42.60778" lon="-8.64536">
        <ele>-6.59</ele>
        <time>2019-06-07T05:56:26Z</time>
      </trkpt>
      <trkpt lat="42.60786" lon="-8.64533">
        <ele>-6.59</ele>
        <time>2019-06-07T05:56:32Z</time>
      </trkpt>
      <trkpt lat="42.60805" lon="-8.6453">
        <ele>-6.11</ele>
        <time>2019-06-07T05:56:47Z</time>
      </trkpt>
      <trkpt lat="42.60817" lon="-8.64528">
        <ele>-4.67</ele>
        <time>2019-06-07T05:57:00Z</time>
      </trkpt>
      <trkpt lat="42.60837" lon="-8.64524">
        <ele>-3.71</ele>
        <time>2019-06-07T05:57:14Z</time>
      </trkpt>
      <trkpt lat="42.60853" lon="-8.64521">
        <ele>-2.75</ele>
        <time>2019-06-07T05:57:25Z</time>
      </trkpt>
      <trkpt lat="42.60871" lon="-8.6452">
        <ele>-1.79</ele>
        <time>2019-06-07T05:57:40Z</time>
      </trkpt>
      <trkpt lat="42.60886" lon="-8.64516">
        <ele>-0.82</ele>
        <time>2019-06-07T05:57:52Z</time>
      </trkpt>
      <trkpt lat="42.60902" lon="-8.64511">
        <ele>0.14</ele>
        <time>2019-06-07T05:58:07Z</time>
      </trkpt>
      <trkpt lat="42.60912" lon="-8.64512">
        <ele>0.14</ele>
        <time>2019-06-07T05:58:20Z</time>
      </trkpt>
      <trkpt lat="42.60931" lon="-8.64504">
        <ele>-1.3</ele>
        <time>2019-06-07T05:58:34Z</time>
      </trkpt>
      <trkpt lat="42.60934" lon="-8.64501">
        <ele>-0.82</ele>
        <time>2019-06-07T05:58:36Z</time>
      </trkpt>
      <trkpt lat="42.60939" lon="-8.64499">
        <ele>-1.3</ele>
        <time>2019-06-07T05:58:40Z</time>
      </trkpt>
      <trkpt lat="42.60976" lon="-8.64479">
        <ele>-1.79</ele>
        <time>2019-06-07T05:58:52Z</time>
      </trkpt>
      <trkpt lat="42.60989" lon="-8.6447">
        <ele>-3.23</ele>
        <time>2019-06-07T05:58:59Z</time>
      </trkpt>
      <trkpt lat="42.61009" lon="-8.64464">
        <ele>-3.23</ele>
        <time>2019-06-07T05:59:13Z</time>
      </trkpt>
      <trkpt lat="42.6102" lon="-8.64466">
        <ele>-3.23</ele>
        <time>2019-06-07T05:59:26Z</time>
      </trkpt>
      <trkpt lat="42.61023" lon="-8.64466">
        <ele>-3.71</ele>
        <time>2019-06-07T05:59:29Z</time>
      </trkpt>
      <trkpt lat="42.61041" lon="-8.6447">
        <ele>-3.71</ele>
        <time>2019-06-07T05:59:44Z</time>
      </trkpt>
      <trkpt lat="42.61063" lon="-8.64471">
        <ele>-3.71</ele>
        <time>2019-06-07T06:00:00Z</time>
      </trkpt>
      <trkpt lat="42.61065" lon="-8.64471">
        <ele>-3.71</ele>
        <time>2019-06-07T06:00:01Z</time>
      </trkpt>
      <trkpt lat="42.61079" lon="-8.6447">
        <ele>-4.19</ele>
        <time>2019-06-07T06:00:14Z</time>
      </trkpt>
      <trkpt lat="42.61082" lon="-8.64471">
        <ele>-3.23</ele>
        <time>2019-06-07T06:00:33Z</time>
      </trkpt>
      <trkpt lat="42.6109" lon="-8.6447">
        <ele>-3.71</ele>
        <time>2019-06-07T06:00:59Z</time>
      </trkpt>
      <trkpt lat="42.61108" lon="-8.64461">
        <ele>-3.71</ele>
        <time>2019-06-07T06:01:13Z</time>
      </trkpt>
      <trkpt lat="42.61124" lon="-8.64453">
        <ele>-3.23</ele>
        <time>2019-06-07T06:01:27Z</time>
      </trkpt>
      <trkpt lat="42.6114" lon="-8.64443">
        <ele>-3.23</ele>
        <time>2019-06-07T06:01:41Z</time>
      </trkpt>
      <trkpt lat="42.61147" lon="-8.64438">
        <ele>-3.71</ele>
        <time>2019-06-07T06:01:49Z</time>
      </trkpt>
      <trkpt lat="42.61157" lon="-8.64434">
        <ele>-3.23</ele>
        <time>2019-06-07T06:02:03Z</time>
      </trkpt>
      <trkpt lat="42.61163" lon="-8.64433">
        <ele>-3.71</ele>
        <time>2019-06-07T06:02:09Z</time>
      </trkpt>
      <trkpt lat="42.61176" lon="-8.64431">
        <ele>-3.23</ele>
        <time>2019-06-07T06:02:21Z</time>
      </trkpt>
      <trkpt lat="42.61189" lon="-8.64434">
        <ele>-2.27</ele>
        <time>2019-06-07T06:02:35Z</time>
      </trkpt>
      <trkpt lat="42.6119" lon="-8.64434">
        <ele>-3.71</ele>
        <time>2019-06-07T06:02:36Z</time>
      </trkpt>
      <trkpt lat="42.61201" lon="-8.64436">
        <ele>-2.27</ele>
        <time>2019-06-07T06:02:49Z</time>
      </trkpt>
      <trkpt lat="42.61214" lon="-8.64443">
        <ele>-2.27</ele>
        <time>2019-06-07T06:03:01Z</time>
      </trkpt>
      <trkpt lat="42.61232" lon="-8.64451">
        <ele>-2.27</ele>
        <time>2019-06-07T06:03:16Z</time>
      </trkpt>
      <trkpt lat="42.61245" lon="-8.64456">
        <ele>-1.79</ele>
        <time>2019-06-07T06:03:29Z</time>
      </trkpt>
      <trkpt lat="42.61244" lon="-8.64456">
        <ele>-1.3</ele>
        <time>2019-06-07T06:03:45Z</time>
      </trkpt>
      <trkpt lat="42.61256" lon="-8.6446">
        <ele>-1.3</ele>
        <time>2019-06-07T06:04:00Z</time>
      </trkpt>
      <trkpt lat="42.61269" lon="-8.64464">
        <ele>-0.82</ele>
        <time>2019-06-07T06:04:12Z</time>
      </trkpt>
      <trkpt lat="42.61282" lon="-8.64471">
        <ele>-0.82</ele>
        <time>2019-06-07T06:04:24Z</time>
      </trkpt>
      <trkpt lat="42.61294" lon="-8.64478">
        <ele>0.14</ele>
        <time>2019-06-07T06:04:37Z</time>
      </trkpt>
      <trkpt lat="42.61305" lon="-8.64485">
        <ele>1.58</ele>
        <time>2019-06-07T06:04:50Z</time>
      </trkpt>
      <trkpt lat="42.61316" lon="-8.64493">
        <ele>2.54</ele>
        <time>2019-06-07T06:05:03Z</time>
      </trkpt>
      <trkpt lat="42.61337" lon="-8.64502">
        <ele>3.98</ele>
        <time>2019-06-07T06:05:19Z</time>
      </trkpt>
      <trkpt lat="42.61354" lon="-8.64503">
        <ele>5.91</ele>
        <time>2019-06-07T06:05:30Z</time>
      </trkpt>
      <trkpt lat="42.61371" lon="-8.64505">
        <ele>6.39</ele>
        <time>2019-06-07T06:05:42Z</time>
      </trkpt>
      <trkpt lat="42.61376" lon="-8.64507">
        <ele>8.79</ele>
        <time>2019-06-07T06:05:49Z</time>
      </trkpt>
      <trkpt lat="42.61393" lon="-8.64505">
        <ele>8.31</ele>
        <time>2019-06-07T06:06:02Z</time>
      </trkpt>
      <trkpt lat="42.61394" lon="-8.64505">
        <ele>9.27</ele>
        <time>2019-06-07T06:06:03Z</time>
      </trkpt>
      <trkpt lat="42.61416" lon="-8.64499">
        <ele>8.31</ele>
        <time>2019-06-07T06:06:18Z</time>
      </trkpt>
      <trkpt lat="42.61428" lon="-8.64497">
        <ele>8.79</ele>
        <time>2019-06-07T06:06:28Z</time>
      </trkpt>
      <trkpt lat="42.6143" lon="-8.64497">
        <ele>8.79</ele>
        <time>2019-06-07T06:06:30Z</time>
      </trkpt>
      <trkpt lat="42.61432" lon="-8.64496">
        <ele>8.79</ele>
        <time>2019-06-07T06:06:31Z</time>
      </trkpt>
      <trkpt lat="42.61447" lon="-8.64497">
        <ele>8.79</ele>
        <time>2019-06-07T06:06:44Z</time>
      </trkpt>
      <trkpt lat="42.61461" lon="-8.64492">
        <ele>8.79</ele>
        <time>2019-06-07T06:06:56Z</time>
      </trkpt>
      <trkpt lat="42.61479" lon="-8.64489">
        <ele>8.31</ele>
        <time>2019-06-07T06:07:11Z</time>
      </trkpt>
      <trkpt lat="42.61482" lon="-8.64489">
        <ele>7.83</ele>
        <time>2019-06-07T06:07:13Z</time>
      </trkpt>
      <trkpt lat="42.61491" lon="-8.64487">
        <ele>7.83</ele>
        <time>2019-06-07T06:07:21Z</time>
      </trkpt>
      <trkpt lat="42.61492" lon="-8.64486">
        <ele>7.83</ele>
        <time>2019-06-07T06:07:22Z</time>
      </trkpt>
      <trkpt lat="42.61498" lon="-8.64486">
        <ele>7.35</ele>
        <time>2019-06-07T06:07:27Z</time>
      </trkpt>
      <trkpt lat="42.61499" lon="-8.64486">
        <ele>7.35</ele>
        <time>2019-06-07T06:07:28Z</time>
      </trkpt>
      <trkpt lat="42.61504" lon="-8.64486">
        <ele>7.35</ele>
        <time>2019-06-07T06:07:32Z</time>
      </trkpt>
      <trkpt lat="42.61513" lon="-8.64483">
        <ele>6.87</ele>
        <time>2019-06-07T06:07:40Z</time>
      </trkpt>
      <trkpt lat="42.61517" lon="-8.64484">
        <ele>6.87</ele>
        <time>2019-06-07T06:07:43Z</time>
      </trkpt>
      <trkpt lat="42.61518" lon="-8.64484">
        <ele>6.87</ele>
        <time>2019-06-07T06:07:44Z</time>
      </trkpt>
      <trkpt lat="42.61524" lon="-8.64483">
        <ele>7.35</ele>
        <time>2019-06-07T06:07:49Z</time>
      </trkpt>
      <trkpt lat="42.61536" lon="-8.6448">
        <ele>6.87</ele>
        <time>2019-06-07T06:08:01Z</time>
      </trkpt>
      <trkpt lat="42.61548" lon="-8.64478">
        <ele>7.35</ele>
        <time>2019-06-07T06:08:13Z</time>
      </trkpt>
      <trkpt lat="42.61577" lon="-8.64458">
        <ele>6.87</ele>
        <time>2019-06-07T06:08:22Z</time>
      </trkpt>
      <trkpt lat="42.61598" lon="-8.64456">
        <ele>7.35</ele>
        <time>2019-06-07T06:08:37Z</time>
      </trkpt>
      <trkpt lat="42.61607" lon="-8.64456">
        <ele>8.31</ele>
        <time>2019-06-07T06:08:50Z</time>
      </trkpt>
      <trkpt lat="42.61618" lon="-8.64462">
        <ele>9.27</ele>
        <time>2019-06-07T06:09:03Z</time>
      </trkpt>
      <trkpt lat="42.61635" lon="-8.64462">
        <ele>9.27</ele>
        <time>2019-06-07T06:09:15Z</time>
      </trkpt>
      <trkpt lat="42.61652" lon="-8.64463">
        <ele>9.75</ele>
        <time>2019-06-07T06:09:31Z</time>
      </trkpt>
      <trkpt lat="42.61655" lon="-8.64464">
        <ele>9.27</ele>
        <time>2019-06-07T06:09:46Z</time>
      </trkpt>
      <trkpt lat="42.61659" lon="-8.64467">
        <ele>9.75</ele>
        <time>2019-06-07T06:10:11Z</time>
      </trkpt>
      <trkpt lat="42.61668" lon="-8.64471">
        <ele>10.71</ele>
        <time>2019-06-07T06:10:26Z</time>
      </trkpt>
      <trkpt lat="42.61685" lon="-8.64473">
        <ele>10.71</ele>
        <time>2019-06-07T06:10:40Z</time>
      </trkpt>
      <trkpt lat="42.61709" lon="-8.64474">
        <ele>11.19</ele>
        <time>2019-06-07T06:10:55Z</time>
      </trkpt>
      <trkpt lat="42.61737" lon="-8.64472">
        <ele>10.71</ele>
        <time>2019-06-07T06:11:09Z</time>
      </trkpt>
      <trkpt lat="42.61759" lon="-8.64469">
        <ele>11.19</ele>
        <time>2019-06-07T06:11:24Z</time>
      </trkpt>
      <trkpt lat="42.6177" lon="-8.64466">
        <ele>12.15</ele>
        <time>2019-06-07T06:11:33Z</time>
      </trkpt>
      <trkpt lat="42.61786" lon="-8.64464">
        <ele>12.15</ele>
        <time>2019-06-07T06:11:49Z</time>
      </trkpt>
      <trkpt lat="42.61799" lon="-8.64459">
        <ele>12.63</ele>
        <time>2019-06-07T06:12:02Z</time>
      </trkpt>
      <trkpt lat="42.6181" lon="-8.64461">
        <ele>13.12</ele>
        <time>2019-06-07T06:12:17Z</time>
      </trkpt>
      <trkpt lat="42.61824" lon="-8.6446">
        <ele>14.56</ele>
        <time>2019-06-07T06:12:33Z</time>
      </trkpt>
      <trkpt lat="42.6184" lon="-8.64465">
        <ele>16</ele>
        <time>2019-06-07T06:12:46Z</time>
      </trkpt>
      <trkpt lat="42.61843" lon="-8.64465">
        <ele>16.48</ele>
        <time>2019-06-07T06:12:47Z</time>
      </trkpt>
      <trkpt lat="42.61854" lon="-8.64465">
        <ele>16.48</ele>
        <time>2019-06-07T06:12:55Z</time>
      </trkpt>
      <trkpt lat="42.61865" lon="-8.64465">
        <ele>17.44</ele>
        <time>2019-06-07T06:13:07Z</time>
      </trkpt>
      <trkpt lat="42.61872" lon="-8.64467">
        <ele>17.44</ele>
        <time>2019-06-07T06:13:20Z</time>
      </trkpt>
      <trkpt lat="42.6188" lon="-8.64475">
        <ele>17.92</ele>
        <time>2019-06-07T06:13:31Z</time>
      </trkpt>
      <trkpt lat="42.61885" lon="-8.64478">
        <ele>17.92</ele>
        <time>2019-06-07T06:13:36Z</time>
      </trkpt>
      <trkpt lat="42.61888" lon="-8.64479">
        <ele>17.92</ele>
        <time>2019-06-07T06:13:38Z</time>
      </trkpt>
      <trkpt lat="42.61916" lon="-8.64483">
        <ele>17.92</ele>
        <time>2019-06-07T06:13:55Z</time>
      </trkpt>
      <trkpt lat="42.61924" lon="-8.64484">
        <ele>17.92</ele>
        <time>2019-06-07T06:14:00Z</time>
      </trkpt>
      <trkpt lat="42.61939" lon="-8.64483">
        <ele>18.4</ele>
        <time>2019-06-07T06:14:10Z</time>
      </trkpt>
      <trkpt lat="42.6195" lon="-8.64479">
        <ele>18.4</ele>
        <time>2019-06-07T06:14:23Z</time>
      </trkpt>
      <trkpt lat="42.61955" lon="-8.64474">
        <ele>18.4</ele>
        <time>2019-06-07T06:14:28Z</time>
      </trkpt>
      <trkpt lat="42.61977" lon="-8.64465">
        <ele>18.88</ele>
        <time>2019-06-07T06:14:43Z</time>
      </trkpt>
      <trkpt lat="42.61987" lon="-8.64461">
        <ele>18.4</ele>
        <time>2019-06-07T06:14:55Z</time>
      </trkpt>
      <trkpt lat="42.61997" lon="-8.64457">
        <ele>18.88</ele>
        <time>2019-06-07T06:15:08Z</time>
      </trkpt>
      <trkpt lat="42.62006" lon="-8.64449">
        <ele>18.88</ele>
        <time>2019-06-07T06:15:22Z</time>
      </trkpt>
      <trkpt lat="42.62014" lon="-8.64445">
        <ele>18.88</ele>
        <time>2019-06-07T06:15:31Z</time>
      </trkpt>
      <trkpt lat="42.62026" lon="-8.64448">
        <ele>18.88</ele>
        <time>2019-06-07T06:15:47Z</time>
      </trkpt>
      <trkpt lat="42.62039" lon="-8.64445">
        <ele>18.4</ele>
        <time>2019-06-07T06:15:59Z</time>
      </trkpt>
      <trkpt lat="42.62047" lon="-8.64444">
        <ele>18.4</ele>
        <time>2019-06-07T06:16:09Z</time>
      </trkpt>
      <trkpt lat="42.62049" lon="-8.64443">
        <ele>18.88</ele>
        <time>2019-06-07T06:16:11Z</time>
      </trkpt>
      <trkpt lat="42.6206" lon="-8.64438">
        <ele>19.36</ele>
        <time>2019-06-07T06:16:22Z</time>
      </trkpt>
      <trkpt lat="42.62074" lon="-8.64432">
        <ele>19.36</ele>
        <time>2019-06-07T06:16:35Z</time>
      </trkpt>
      <trkpt lat="42.62085" lon="-8.64425">
        <ele>19.36</ele>
        <time>2019-06-07T06:16:43Z</time>
      </trkpt>
      <trkpt lat="42.62106" lon="-8.64414">
        <ele>19.36</ele>
        <time>2019-06-07T06:16:56Z</time>
      </trkpt>
      <trkpt lat="42.62127" lon="-8.64407">
        <ele>19.84</ele>
        <time>2019-06-07T06:17:08Z</time>
      </trkpt>
      <trkpt lat="42.62132" lon="-8.64406">
        <ele>19.84</ele>
        <time>2019-06-07T06:17:11Z</time>
      </trkpt>
      <trkpt lat="42.62135" lon="-8.64406">
        <ele>19.84</ele>
        <time>2019-06-07T06:17:13Z</time>
      </trkpt>
      <trkpt lat="42.62138" lon="-8.64405">
        <ele>19.84</ele>
        <time>2019-06-07T06:17:15Z</time>
      </trkpt>
      <trkpt lat="42.62151" lon="-8.64397">
        <ele>19.84</ele>
        <time>2019-06-07T06:17:26Z</time>
      </trkpt>
      <trkpt lat="42.62162" lon="-8.64393">
        <ele>20.81</ele>
        <time>2019-06-07T06:17:38Z</time>
      </trkpt>
      <trkpt lat="42.62174" lon="-8.6439">
        <ele>20.81</ele>
        <time>2019-06-07T06:17:49Z</time>
      </trkpt>
      <trkpt lat="42.62179" lon="-8.64387">
        <ele>21.29</ele>
        <time>2019-06-07T06:17:58Z</time>
      </trkpt>
      <trkpt lat="42.62188" lon="-8.64377">
        <ele>21.77</ele>
        <time>2019-06-07T06:18:12Z</time>
      </trkpt>
      <trkpt lat="42.62203" lon="-8.64364">
        <ele>21.77</ele>
        <time>2019-06-07T06:18:26Z</time>
      </trkpt>
      <trkpt lat="42.62214" lon="-8.64365">
        <ele>21.29</ele>
        <time>2019-06-07T06:18:37Z</time>
      </trkpt>
      <trkpt lat="42.62225" lon="-8.6436">
        <ele>21.29</ele>
        <time>2019-06-07T06:18:50Z</time>
      </trkpt>
      <trkpt lat="42.62235" lon="-8.64355">
        <ele>20.81</ele>
        <time>2019-06-07T06:19:01Z</time>
      </trkpt>
      <trkpt lat="42.62252" lon="-8.64345">
        <ele>20.81</ele>
        <time>2019-06-07T06:19:15Z</time>
      </trkpt>
      <trkpt lat="42.62265" lon="-8.64345">
        <ele>20.32</ele>
        <time>2019-06-07T06:19:26Z</time>
      </trkpt>
      <trkpt lat="42.62278" lon="-8.64348">
        <ele>21.77</ele>
        <time>2019-06-07T06:19:40Z</time>
      </trkpt>
      <trkpt lat="42.62292" lon="-8.64356">
        <ele>23.21</ele>
        <time>2019-06-07T06:19:52Z</time>
      </trkpt>
      <trkpt lat="42.62293" lon="-8.64356">
        <ele>22.73</ele>
        <time>2019-06-07T06:19:53Z</time>
      </trkpt>
      <trkpt lat="42.623" lon="-8.64361">
        <ele>22.25</ele>
        <time>2019-06-07T06:19:58Z</time>
      </trkpt>
      <trkpt lat="42.62317" lon="-8.64367">
        <ele>22.73</ele>
        <time>2019-06-07T06:20:11Z</time>
      </trkpt>
      <trkpt lat="42.62334" lon="-8.64376">
        <ele>22.73</ele>
        <time>2019-06-07T06:20:23Z</time>
      </trkpt>
      <trkpt lat="42.62343" lon="-8.64382">
        <ele>22.25</ele>
        <time>2019-06-07T06:20:36Z</time>
      </trkpt>
      <trkpt lat="42.6236" lon="-8.64384">
        <ele>23.21</ele>
        <time>2019-06-07T06:20:49Z</time>
      </trkpt>
      <trkpt lat="42.62367" lon="-8.64381">
        <ele>23.21</ele>
        <time>2019-06-07T06:20:52Z</time>
      </trkpt>
      <trkpt lat="42.62394" lon="-8.64379">
        <ele>22.73</ele>
        <time>2019-06-07T06:21:06Z</time>
      </trkpt>
      <trkpt lat="42.62402" lon="-8.64381">
        <ele>23.69</ele>
        <time>2019-06-07T06:21:10Z</time>
      </trkpt>
      <trkpt lat="42.62416" lon="-8.64384">
        <ele>24.17</ele>
        <time>2019-06-07T06:21:21Z</time>
      </trkpt>
      <trkpt lat="42.62419" lon="-8.64384">
        <ele>24.17</ele>
        <time>2019-06-07T06:21:25Z</time>
      </trkpt>
      <trkpt lat="42.62422" lon="-8.64384">
        <ele>24.17</ele>
        <time>2019-06-07T06:21:27Z</time>
      </trkpt>
      <trkpt lat="42.62441" lon="-8.64388">
        <ele>24.65</ele>
        <time>2019-06-07T06:21:40Z</time>
      </trkpt>
      <trkpt lat="42.62454" lon="-8.64389">
        <ele>25.13</ele>
        <time>2019-06-07T06:21:49Z</time>
      </trkpt>
      <trkpt lat="42.62467" lon="-8.64393">
        <ele>24.65</ele>
        <time>2019-06-07T06:21:59Z</time>
      </trkpt>
      <trkpt lat="42.62486" lon="-8.64393">
        <ele>25.61</ele>
        <time>2019-06-07T06:22:13Z</time>
      </trkpt>
      <trkpt lat="42.625" lon="-8.64394">
        <ele>26.57</ele>
        <time>2019-06-07T06:22:25Z</time>
      </trkpt>
      <trkpt lat="42.6251" lon="-8.64392">
        <ele>26.57</ele>
        <time>2019-06-07T06:22:37Z</time>
      </trkpt>
      <trkpt lat="42.62522" lon="-8.6439">
        <ele>26.09</ele>
        <time>2019-06-07T06:22:50Z</time>
      </trkpt>
      <trkpt lat="42.62526" lon="-8.64388">
        <ele>27.05</ele>
        <time>2019-06-07T06:22:56Z</time>
      </trkpt>
      <trkpt lat="42.62537" lon="-8.64391">
        <ele>28.5</ele>
        <time>2019-06-07T06:23:06Z</time>
      </trkpt>
      <trkpt lat="42.62549" lon="-8.64398">
        <ele>28.5</ele>
        <time>2019-06-07T06:23:20Z</time>
      </trkpt>
      <trkpt lat="42.62557" lon="-8.64403">
        <ele>30.42</ele>
        <time>2019-06-07T06:23:29Z</time>
      </trkpt>
      <trkpt lat="42.62574" lon="-8.64421">
        <ele>31.38</ele>
        <time>2019-06-07T06:23:44Z</time>
      </trkpt>
      <trkpt lat="42.62588" lon="-8.64433">
        <ele>32.34</ele>
        <time>2019-06-07T06:23:55Z</time>
      </trkpt>
      <trkpt lat="42.62594" lon="-8.64438">
        <ele>31.38</ele>
        <time>2019-06-07T06:24:03Z</time>
      </trkpt>
      <trkpt lat="42.62601" lon="-8.64437">
        <ele>31.38</ele>
        <time>2019-06-07T06:24:21Z</time>
      </trkpt>
      <trkpt lat="42.6261" lon="-8.64441">
        <ele>31.38</ele>
        <time>2019-06-07T06:24:49Z</time>
      </trkpt>
      <trkpt lat="42.62613" lon="-8.64435">
        <ele>32.34</ele>
        <time>2019-06-07T06:25:20Z</time>
      </trkpt>
      <trkpt lat="42.62612" lon="-8.64434">
        <ele>25.13</ele>
        <time>2019-06-07T06:25:33Z</time>
      </trkpt>
      <trkpt lat="42.62612" lon="-8.64434">
        <ele>36.19</ele>
        <time>2019-06-07T06:25:34Z</time>
      </trkpt>
      <trkpt lat="42.62612" lon="-8.64434">
        <ele>35.71</ele>
        <time>2019-06-07T06:25:35Z</time>
      </trkpt>
      <trkpt lat="42.62613" lon="-8.64434">
        <ele>32.34</ele>
        <time>2019-06-07T06:25:36Z</time>
      </trkpt>
      <trkpt lat="42.62613" lon="-8.64433">
        <ele>32.82</ele>
        <time>2019-06-07T06:25:37Z</time>
      </trkpt>
      <trkpt lat="42.62626" lon="-8.64447">
        <ele>32.34</ele>
        <time>2019-06-07T06:25:51Z</time>
      </trkpt>
      <trkpt lat="42.62635" lon="-8.64456">
        <ele>31.86</ele>
        <time>2019-06-07T06:26:03Z</time>
      </trkpt>
      <trkpt lat="42.62655" lon="-8.64475">
        <ele>32.34</ele>
        <time>2019-06-07T06:26:16Z</time>
      </trkpt>
      <trkpt lat="42.62676" lon="-8.64487">
        <ele>31.86</ele>
        <time>2019-06-07T06:26:30Z</time>
      </trkpt>
      <trkpt lat="42.62688" lon="-8.64489">
        <ele>32.82</ele>
        <time>2019-06-07T06:26:40Z</time>
      </trkpt>
      <trkpt lat="42.62703" lon="-8.6449">
        <ele>32.82</ele>
        <time>2019-06-07T06:26:52Z</time>
      </trkpt>
      <trkpt lat="42.62723" lon="-8.64496">
        <ele>33.3</ele>
        <time>2019-06-07T06:27:03Z</time>
      </trkpt>
      <trkpt lat="42.62741" lon="-8.64504">
        <ele>33.78</ele>
        <time>2019-06-07T06:27:16Z</time>
      </trkpt>
      <trkpt lat="42.62754" lon="-8.64507">
        <ele>33.78</ele>
        <time>2019-06-07T06:27:28Z</time>
      </trkpt>
      <trkpt lat="42.6277" lon="-8.64508">
        <ele>34.26</ele>
        <time>2019-06-07T06:27:41Z</time>
      </trkpt>
      <trkpt lat="42.62782" lon="-8.64512">
        <ele>35.23</ele>
        <time>2019-06-07T06:27:51Z</time>
      </trkpt>
      <trkpt lat="42.62796" lon="-8.64514">
        <ele>35.71</ele>
        <time>2019-06-07T06:28:01Z</time>
      </trkpt>
      <trkpt lat="42.62806" lon="-8.64516">
        <ele>36.67</ele>
        <time>2019-06-07T06:28:06Z</time>
      </trkpt>
      <trkpt lat="42.62821" lon="-8.64514">
        <ele>36.67</ele>
        <time>2019-06-07T06:28:17Z</time>
      </trkpt>
      <trkpt lat="42.62834" lon="-8.64513">
        <ele>37.15</ele>
        <time>2019-06-07T06:28:30Z</time>
      </trkpt>
      <trkpt lat="42.62835" lon="-8.64513">
        <ele>35.23</ele>
        <time>2019-06-07T06:28:31Z</time>
      </trkpt>
      <trkpt lat="42.62839" lon="-8.64513">
        <ele>36.67</ele>
        <time>2019-06-07T06:28:35Z</time>
      </trkpt>
      <trkpt lat="42.62859" lon="-8.64515">
        <ele>36.67</ele>
        <time>2019-06-07T06:28:49Z</time>
      </trkpt>
      <trkpt lat="42.62881" lon="-8.64523">
        <ele>37.63</ele>
        <time>2019-06-07T06:29:03Z</time>
      </trkpt>
      <trkpt lat="42.62902" lon="-8.64518">
        <ele>38.11</ele>
        <time>2019-06-07T06:29:17Z</time>
      </trkpt>
      <trkpt lat="42.62917" lon="-8.64511">
        <ele>38.11</ele>
        <time>2019-06-07T06:29:29Z</time>
      </trkpt>
      <trkpt lat="42.62925" lon="-8.6451">
        <ele>38.59</ele>
        <time>2019-06-07T06:29:33Z</time>
      </trkpt>
      <trkpt lat="42.62944" lon="-8.6451">
        <ele>39.07</ele>
        <time>2019-06-07T06:29:45Z</time>
      </trkpt>
      <trkpt lat="42.62945" lon="-8.6451">
        <ele>38.59</ele>
        <time>2019-06-07T06:29:46Z</time>
      </trkpt>
      <trkpt lat="42.62966" lon="-8.64513">
        <ele>38.11</ele>
        <time>2019-06-07T06:30:00Z</time>
      </trkpt>
      <trkpt lat="42.6298" lon="-8.64513">
        <ele>39.07</ele>
        <time>2019-06-07T06:30:13Z</time>
      </trkpt>
      <trkpt lat="42.62995" lon="-8.64511">
        <ele>39.07</ele>
        <time>2019-06-07T06:30:24Z</time>
      </trkpt>
      <trkpt lat="42.62997" lon="-8.64511">
        <ele>38.59</ele>
        <time>2019-06-07T06:30:25Z</time>
      </trkpt>
      <trkpt lat="42.63003" lon="-8.64511">
        <ele>38.11</ele>
        <time>2019-06-07T06:30:30Z</time>
      </trkpt>
      <trkpt lat="42.63022" lon="-8.64504">
        <ele>38.11</ele>
        <time>2019-06-07T06:30:43Z</time>
      </trkpt>
      <trkpt lat="42.63034" lon="-8.64499">
        <ele>37.63</ele>
        <time>2019-06-07T06:30:52Z</time>
      </trkpt>
      <trkpt lat="42.63039" lon="-8.64498">
        <ele>36.67</ele>
        <time>2019-06-07T06:30:56Z</time>
      </trkpt>
      <trkpt lat="42.63053" lon="-8.64494">
        <ele>36.67</ele>
        <time>2019-06-07T06:31:08Z</time>
      </trkpt>
      <trkpt lat="42.63056" lon="-8.64492">
        <ele>37.63</ele>
        <time>2019-06-07T06:31:12Z</time>
      </trkpt>
      <trkpt lat="42.63071" lon="-8.64483">
        <ele>38.11</ele>
        <time>2019-06-07T06:31:23Z</time>
      </trkpt>
      <trkpt lat="42.63073" lon="-8.6448">
        <ele>37.63</ele>
        <time>2019-06-07T06:31:25Z</time>
      </trkpt>
      <trkpt lat="42.6308" lon="-8.64477">
        <ele>37.63</ele>
        <time>2019-06-07T06:31:30Z</time>
      </trkpt>
      <trkpt lat="42.63088" lon="-8.64469">
        <ele>38.11</ele>
        <time>2019-06-07T06:31:37Z</time>
      </trkpt>
      <trkpt lat="42.63095" lon="-8.64469">
        <ele>37.63</ele>
        <time>2019-06-07T06:31:42Z</time>
      </trkpt>
      <trkpt lat="42.63101" lon="-8.64467">
        <ele>38.11</ele>
        <time>2019-06-07T06:31:47Z</time>
      </trkpt>
      <trkpt lat="42.63113" lon="-8.64466">
        <ele>38.11</ele>
        <time>2019-06-07T06:31:57Z</time>
      </trkpt>
      <trkpt lat="42.63128" lon="-8.64466">
        <ele>38.11</ele>
        <time>2019-06-07T06:32:09Z</time>
      </trkpt>
      <trkpt lat="42.6313" lon="-8.64467">
        <ele>38.11</ele>
        <time>2019-06-07T06:32:10Z</time>
      </trkpt>
      <trkpt lat="42.63134" lon="-8.64466">
        <ele>38.59</ele>
        <time>2019-06-07T06:32:13Z</time>
      </trkpt>
      <trkpt lat="42.63144" lon="-8.64465">
        <ele>38.59</ele>
        <time>2019-06-07T06:32:20Z</time>
      </trkpt>
      <trkpt lat="42.63151" lon="-8.64465">
        <ele>39.55</ele>
        <time>2019-06-07T06:32:24Z</time>
      </trkpt>
      <trkpt lat="42.63156" lon="-8.64463">
        <ele>39.55</ele>
        <time>2019-06-07T06:32:28Z</time>
      </trkpt>
      <trkpt lat="42.63164" lon="-8.64464">
        <ele>39.07</ele>
        <time>2019-06-07T06:32:34Z</time>
      </trkpt>
      <trkpt lat="42.63173" lon="-8.64461">
        <ele>39.55</ele>
        <time>2019-06-07T06:32:41Z</time>
      </trkpt>
      <trkpt lat="42.6318" lon="-8.64459">
        <ele>40.03</ele>
        <time>2019-06-07T06:32:46Z</time>
      </trkpt>
      <trkpt lat="42.63193" lon="-8.64461">
        <ele>41.47</ele>
        <time>2019-06-07T06:32:59Z</time>
      </trkpt>
      <trkpt lat="42.63195" lon="-8.64463">
        <ele>41.47</ele>
        <time>2019-06-07T06:33:02Z</time>
      </trkpt>
      <trkpt lat="42.632" lon="-8.6447">
        <ele>41.47</ele>
        <time>2019-06-07T06:33:08Z</time>
      </trkpt>
      <trkpt lat="42.63201" lon="-8.64472">
        <ele>41.95</ele>
        <time>2019-06-07T06:33:10Z</time>
      </trkpt>
      <trkpt lat="42.63206" lon="-8.64478">
        <ele>42.44</ele>
        <time>2019-06-07T06:33:16Z</time>
      </trkpt>
      <trkpt lat="42.63211" lon="-8.64484">
        <ele>41.95</ele>
        <time>2019-06-07T06:33:22Z</time>
      </trkpt>
      <trkpt lat="42.63219" lon="-8.64498">
        <ele>43.88</ele>
        <time>2019-06-07T06:33:33Z</time>
      </trkpt>
      <trkpt lat="42.63222" lon="-8.64503">
        <ele>43.88</ele>
        <time>2019-06-07T06:33:39Z</time>
      </trkpt>
      <trkpt lat="42.63228" lon="-8.64511">
        <ele>44.84</ele>
        <time>2019-06-07T06:33:49Z</time>
      </trkpt>
      <trkpt lat="42.63237" lon="-8.64519">
        <ele>44.84</ele>
        <time>2019-06-07T06:33:55Z</time>
      </trkpt>
      <trkpt lat="42.63253" lon="-8.64528">
        <ele>46.76</ele>
        <time>2019-06-07T06:34:05Z</time>
      </trkpt>
      <trkpt lat="42.63264" lon="-8.64528">
        <ele>47.24</ele>
        <time>2019-06-07T06:34:17Z</time>
      </trkpt>
      <trkpt lat="42.63282" lon="-8.6453">
        <ele>47.24</ele>
        <time>2019-06-07T06:34:30Z</time>
      </trkpt>
      <trkpt lat="42.63283" lon="-8.6453">
        <ele>47.72</ele>
        <time>2019-06-07T06:34:31Z</time>
      </trkpt>
      <trkpt lat="42.63301" lon="-8.64537">
        <ele>47.72</ele>
        <time>2019-06-07T06:34:43Z</time>
      </trkpt>
      <trkpt lat="42.63312" lon="-8.64539">
        <ele>49.65</ele>
        <time>2019-06-07T06:34:53Z</time>
      </trkpt>
      <trkpt lat="42.63324" lon="-8.64537">
        <ele>50.13</ele>
        <time>2019-06-07T06:35:04Z</time>
      </trkpt>
      <trkpt lat="42.63339" lon="-8.64532">
        <ele>49.65</ele>
        <time>2019-06-07T06:35:17Z</time>
      </trkpt>
      <trkpt lat="42.63352" lon="-8.64528">
        <ele>50.13</ele>
        <time>2019-06-07T06:35:29Z</time>
      </trkpt>
      <trkpt lat="42.63367" lon="-8.6452">
        <ele>50.13</ele>
        <time>2019-06-07T06:35:41Z</time>
      </trkpt>
      <trkpt lat="42.63382" lon="-8.64516">
        <ele>49.65</ele>
        <time>2019-06-07T06:35:53Z</time>
      </trkpt>
      <trkpt lat="42.63395" lon="-8.64516">
        <ele>50.13</ele>
        <time>2019-06-07T06:36:05Z</time>
      </trkpt>
      <trkpt lat="42.63409" lon="-8.64516">
        <ele>50.13</ele>
        <time>2019-06-07T06:36:16Z</time>
      </trkpt>
      <trkpt lat="42.63422" lon="-8.64508">
        <ele>50.61</ele>
        <time>2019-06-07T06:36:28Z</time>
      </trkpt>
      <trkpt lat="42.63441" lon="-8.64505">
        <ele>51.09</ele>
        <time>2019-06-07T06:36:41Z</time>
      </trkpt>
      <trkpt lat="42.63457" lon="-8.645">
        <ele>51.09</ele>
        <time>2019-06-07T06:36:54Z</time>
      </trkpt>
      <trkpt lat="42.63475" lon="-8.645">
        <ele>51.09</ele>
        <time>2019-06-07T06:37:09Z</time>
      </trkpt>
      <trkpt lat="42.63488" lon="-8.64499">
        <ele>50.13</ele>
        <time>2019-06-07T06:37:21Z</time>
      </trkpt>
      <trkpt lat="42.63498" lon="-8.64496">
        <ele>50.13</ele>
        <time>2019-06-07T06:37:28Z</time>
      </trkpt>
      <trkpt lat="42.63513" lon="-8.6449">
        <ele>50.61</ele>
        <time>2019-06-07T06:37:40Z</time>
      </trkpt>
      <trkpt lat="42.63522" lon="-8.64491">
        <ele>50.61</ele>
        <time>2019-06-07T06:37:49Z</time>
      </trkpt>
      <trkpt lat="42.63533" lon="-8.6449">
        <ele>50.13</ele>
        <time>2019-06-07T06:37:59Z</time>
      </trkpt>
      <trkpt lat="42.6355" lon="-8.64492">
        <ele>50.13</ele>
        <time>2019-06-07T06:38:11Z</time>
      </trkpt>
      <trkpt lat="42.63556" lon="-8.64492">
        <ele>50.13</ele>
        <time>2019-06-07T06:38:20Z</time>
      </trkpt>
      <trkpt lat="42.63572" lon="-8.64497">
        <ele>50.13</ele>
        <time>2019-06-07T06:38:32Z</time>
      </trkpt>
      <trkpt lat="42.63581" lon="-8.64496">
        <ele>52.05</ele>
        <time>2019-06-07T06:38:40Z</time>
      </trkpt>
      <trkpt lat="42.63584" lon="-8.64497">
        <ele>52.53</ele>
        <time>2019-06-07T06:38:43Z</time>
      </trkpt>
      <trkpt lat="42.6359" lon="-8.64497">
        <ele>52.05</ele>
        <time>2019-06-07T06:38:48Z</time>
      </trkpt>
      <trkpt lat="42.63605" lon="-8.64497">
        <ele>51.57</ele>
        <time>2019-06-07T06:39:01Z</time>
      </trkpt>
      <trkpt lat="42.63621" lon="-8.645">
        <ele>51.09</ele>
        <time>2019-06-07T06:39:13Z</time>
      </trkpt>
      <trkpt lat="42.63631" lon="-8.64502">
        <ele>51.09</ele>
        <time>2019-06-07T06:39:21Z</time>
      </trkpt>
      <trkpt lat="42.63641" lon="-8.64498">
        <ele>50.61</ele>
        <time>2019-06-07T06:39:30Z</time>
      </trkpt>
      <trkpt lat="42.63644" lon="-8.64497">
        <ele>51.09</ele>
        <time>2019-06-07T06:39:32Z</time>
      </trkpt>
      <trkpt lat="42.63648" lon="-8.64499">
        <ele>50.61</ele>
        <time>2019-06-07T06:39:35Z</time>
      </trkpt>
      <trkpt lat="42.63668" lon="-8.64498">
        <ele>51.09</ele>
        <time>2019-06-07T06:39:51Z</time>
      </trkpt>
      <trkpt lat="42.63675" lon="-8.64498">
        <ele>51.57</ele>
        <time>2019-06-07T06:39:57Z</time>
      </trkpt>
      <trkpt lat="42.63678" lon="-8.64497">
        <ele>51.09</ele>
        <time>2019-06-07T06:40:00Z</time>
      </trkpt>
      <trkpt lat="42.63682" lon="-8.64498">
        <ele>51.57</ele>
        <time>2019-06-07T06:40:03Z</time>
      </trkpt>
      <trkpt lat="42.63691" lon="-8.64496">
        <ele>51.57</ele>
        <time>2019-06-07T06:40:10Z</time>
      </trkpt>
      <trkpt lat="42.63699" lon="-8.64485">
        <ele>51.09</ele>
        <time>2019-06-07T06:40:24Z</time>
      </trkpt>
      <trkpt lat="42.63701" lon="-8.64483">
        <ele>50.61</ele>
        <time>2019-06-07T06:40:26Z</time>
      </trkpt>
      <trkpt lat="42.6371" lon="-8.64479">
        <ele>51.09</ele>
        <time>2019-06-07T06:40:39Z</time>
      </trkpt>
      <trkpt lat="42.63711" lon="-8.64478">
        <ele>51.09</ele>
        <time>2019-06-07T06:40:40Z</time>
      </trkpt>
      <trkpt lat="42.63721" lon="-8.64471">
        <ele>52.05</ele>
        <time>2019-06-07T06:40:49Z</time>
      </trkpt>
      <trkpt lat="42.63726" lon="-8.6447">
        <ele>52.53</ele>
        <time>2019-06-07T06:40:54Z</time>
      </trkpt>
      <trkpt lat="42.63731" lon="-8.64469">
        <ele>52.53</ele>
        <time>2019-06-07T06:40:58Z</time>
      </trkpt>
      <trkpt lat="42.63743" lon="-8.64472">
        <ele>53.01</ele>
        <time>2019-06-07T06:41:09Z</time>
      </trkpt>
      <trkpt lat="42.63754" lon="-8.64475">
        <ele>52.05</ele>
        <time>2019-06-07T06:41:19Z</time>
      </trkpt>
      <trkpt lat="42.63772" lon="-8.64479">
        <ele>54.45</ele>
        <time>2019-06-07T06:41:33Z</time>
      </trkpt>
      <trkpt lat="42.63784" lon="-8.64477">
        <ele>54.45</ele>
        <time>2019-06-07T06:41:45Z</time>
      </trkpt>
      <trkpt lat="42.63786" lon="-8.64477">
        <ele>54.45</ele>
        <time>2019-06-07T06:41:48Z</time>
      </trkpt>
      <trkpt lat="42.63797" lon="-8.64479">
        <ele>54.93</ele>
        <time>2019-06-07T06:41:59Z</time>
      </trkpt>
      <trkpt lat="42.63816" lon="-8.64483">
        <ele>55.41</ele>
        <time>2019-06-07T06:42:12Z</time>
      </trkpt>
      <trkpt lat="42.63832" lon="-8.64477">
        <ele>56.37</ele>
        <time>2019-06-07T06:42:25Z</time>
      </trkpt>
      <trkpt lat="42.63844" lon="-8.64469">
        <ele>55.89</ele>
        <time>2019-06-07T06:42:36Z</time>
      </trkpt>
      <trkpt lat="42.63855" lon="-8.64466">
        <ele>56.86</ele>
        <time>2019-06-07T06:42:46Z</time>
      </trkpt>
      <trkpt lat="42.63865" lon="-8.64459">
        <ele>56.37</ele>
        <time>2019-06-07T06:42:57Z</time>
      </trkpt>
      <trkpt lat="42.63868" lon="-8.64459">
        <ele>57.34</ele>
        <time>2019-06-07T06:42:59Z</time>
      </trkpt>
      <trkpt lat="42.63883" lon="-8.64455">
        <ele>57.34</ele>
        <time>2019-06-07T06:43:11Z</time>
      </trkpt>
      <trkpt lat="42.63898" lon="-8.64454">
        <ele>58.78</ele>
        <time>2019-06-07T06:43:23Z</time>
      </trkpt>
      <trkpt lat="42.63903" lon="-8.6445">
        <ele>58.3</ele>
        <time>2019-06-07T06:43:30Z</time>
      </trkpt>
      <trkpt lat="42.6391" lon="-8.64446">
        <ele>59.26</ele>
        <time>2019-06-07T06:43:36Z</time>
      </trkpt>
      <trkpt lat="42.63927" lon="-8.64439">
        <ele>60.22</ele>
        <time>2019-06-07T06:43:49Z</time>
      </trkpt>
      <trkpt lat="42.63938" lon="-8.64432">
        <ele>60.22</ele>
        <time>2019-06-07T06:43:59Z</time>
      </trkpt>
      <trkpt lat="42.63944" lon="-8.64431">
        <ele>61.18</ele>
        <time>2019-06-07T06:44:04Z</time>
      </trkpt>
      <trkpt lat="42.63952" lon="-8.64427">
        <ele>61.18</ele>
        <time>2019-06-07T06:44:14Z</time>
      </trkpt>
      <trkpt lat="42.63964" lon="-8.64418">
        <ele>62.14</ele>
        <time>2019-06-07T06:44:25Z</time>
      </trkpt>
      <trkpt lat="42.63973" lon="-8.64408">
        <ele>61.66</ele>
        <time>2019-06-07T06:44:34Z</time>
      </trkpt>
      <trkpt lat="42.63975" lon="-8.64403">
        <ele>60.22</ele>
        <time>2019-06-07T06:44:37Z</time>
      </trkpt>
      <trkpt lat="42.63986" lon="-8.64387">
        <ele>60.7</ele>
        <time>2019-06-07T06:44:50Z</time>
      </trkpt>
      <trkpt lat="42.63991" lon="-8.6438">
        <ele>59.74</ele>
        <time>2019-06-07T06:44:56Z</time>
      </trkpt>
      <trkpt lat="42.64001" lon="-8.64372">
        <ele>60.22</ele>
        <time>2019-06-07T06:45:06Z</time>
      </trkpt>
      <trkpt lat="42.64004" lon="-8.64369">
        <ele>59.74</ele>
        <time>2019-06-07T06:45:09Z</time>
      </trkpt>
      <trkpt lat="42.64015" lon="-8.64363">
        <ele>60.7</ele>
        <time>2019-06-07T06:45:20Z</time>
      </trkpt>
      <trkpt lat="42.64019" lon="-8.64362">
        <ele>60.7</ele>
        <time>2019-06-07T06:45:23Z</time>
      </trkpt>
      <trkpt lat="42.6402" lon="-8.64361">
        <ele>60.7</ele>
        <time>2019-06-07T06:45:24Z</time>
      </trkpt>
      <trkpt lat="42.64023" lon="-8.64361">
        <ele>60.22</ele>
        <time>2019-06-07T06:45:26Z</time>
      </trkpt>
      <trkpt lat="42.64032" lon="-8.64355">
        <ele>59.74</ele>
        <time>2019-06-07T06:45:34Z</time>
      </trkpt>
      <trkpt lat="42.64045" lon="-8.64342">
        <ele>60.7</ele>
        <time>2019-06-07T06:45:47Z</time>
      </trkpt>
      <trkpt lat="42.64046" lon="-8.64342">
        <ele>60.7</ele>
        <time>2019-06-07T06:45:48Z</time>
      </trkpt>
      <trkpt lat="42.64062" lon="-8.64336">
        <ele>61.18</ele>
        <time>2019-06-07T06:46:01Z</time>
      </trkpt>
      <trkpt lat="42.64073" lon="-8.64332">
        <ele>62.62</ele>
        <time>2019-06-07T06:46:14Z</time>
      </trkpt>
      <trkpt lat="42.64082" lon="-8.6433">
        <ele>62.62</ele>
        <time>2019-06-07T06:46:23Z</time>
      </trkpt>
      <trkpt lat="42.64083" lon="-8.64329">
        <ele>63.1</ele>
        <time>2019-06-07T06:46:24Z</time>
      </trkpt>
      <trkpt lat="42.64088" lon="-8.64327">
        <ele>62.62</ele>
        <time>2019-06-07T06:46:28Z</time>
      </trkpt>
      <trkpt lat="42.64089" lon="-8.64327">
        <ele>64.55</ele>
        <time>2019-06-07T06:46:29Z</time>
      </trkpt>
      <trkpt lat="42.64092" lon="-8.64327">
        <ele>62.62</ele>
        <time>2019-06-07T06:46:31Z</time>
      </trkpt>
      <trkpt lat="42.64099" lon="-8.64326">
        <ele>64.55</ele>
        <time>2019-06-07T06:46:38Z</time>
      </trkpt>
      <trkpt lat="42.64113" lon="-8.6432">
        <ele>65.51</ele>
        <time>2019-06-07T06:46:53Z</time>
      </trkpt>
      <trkpt lat="42.64128" lon="-8.64309">
        <ele>66.47</ele>
        <time>2019-06-07T06:47:12Z</time>
      </trkpt>
      <trkpt lat="42.64137" lon="-8.64305">
        <ele>68.87</ele>
        <time>2019-06-07T06:47:24Z</time>
      </trkpt>
      <trkpt lat="42.64143" lon="-8.64303">
        <ele>69.35</ele>
        <time>2019-06-07T06:47:30Z</time>
      </trkpt>
      <trkpt lat="42.64154" lon="-8.64301">
        <ele>71.27</ele>
        <time>2019-06-07T06:47:42Z</time>
      </trkpt>
      <trkpt lat="42.64173" lon="-8.643">
        <ele>73.2</ele>
        <time>2019-06-07T06:47:57Z</time>
      </trkpt>
      <trkpt lat="42.64183" lon="-8.64298">
        <ele>74.64</ele>
        <time>2019-06-07T06:48:08Z</time>
      </trkpt>
      <trkpt lat="42.64185" lon="-8.64298">
        <ele>75.6</ele>
        <time>2019-06-07T06:48:10Z</time>
      </trkpt>
      <trkpt lat="42.64193" lon="-8.64299">
        <ele>77.04</ele>
        <time>2019-06-07T06:48:18Z</time>
      </trkpt>
      <trkpt lat="42.64194" lon="-8.64299">
        <ele>74.16</ele>
        <time>2019-06-07T06:48:19Z</time>
      </trkpt>
      <trkpt lat="42.64194" lon="-8.64299">
        <ele>77.04</ele>
        <time>2019-06-07T06:48:20Z</time>
      </trkpt>
      <trkpt lat="42.64203" lon="-8.643">
        <ele>79.45</ele>
        <time>2019-06-07T06:48:34Z</time>
      </trkpt>
      <trkpt lat="42.64213" lon="-8.64302">
        <ele>80.41</ele>
        <time>2019-06-07T06:48:48Z</time>
      </trkpt>
      <trkpt lat="42.6422" lon="-8.64301">
        <ele>80.89</ele>
        <time>2019-06-07T06:49:00Z</time>
      </trkpt>
      <trkpt lat="42.64232" lon="-8.64301">
        <ele>83.29</ele>
        <time>2019-06-07T06:49:17Z</time>
      </trkpt>
      <trkpt lat="42.64242" lon="-8.643">
        <ele>83.77</ele>
        <time>2019-06-07T06:49:30Z</time>
      </trkpt>
      <trkpt lat="42.64254" lon="-8.64302">
        <ele>84.73</ele>
        <time>2019-06-07T06:49:42Z</time>
      </trkpt>
      <trkpt lat="42.6427" lon="-8.64318">
        <ele>85.69</ele>
        <time>2019-06-07T06:49:55Z</time>
      </trkpt>
      <trkpt lat="42.64279" lon="-8.64328">
        <ele>85.69</ele>
        <time>2019-06-07T06:50:07Z</time>
      </trkpt>
      <trkpt lat="42.64282" lon="-8.6433">
        <ele>86.18</ele>
        <time>2019-06-07T06:50:10Z</time>
      </trkpt>
      <trkpt lat="42.64284" lon="-8.64332">
        <ele>86.66</ele>
        <time>2019-06-07T06:50:12Z</time>
      </trkpt>
      <trkpt lat="42.64298" lon="-8.64336">
        <ele>87.62</ele>
        <time>2019-06-07T06:50:25Z</time>
      </trkpt>
      <trkpt lat="42.64307" lon="-8.64336">
        <ele>90.98</ele>
        <time>2019-06-07T06:50:37Z</time>
      </trkpt>
      <trkpt lat="42.64318" lon="-8.64335">
        <ele>91.46</ele>
        <time>2019-06-07T06:50:49Z</time>
      </trkpt>
      <trkpt lat="42.64326" lon="-8.64335">
        <ele>93.39</ele>
        <time>2019-06-07T06:50:57Z</time>
      </trkpt>
      <trkpt lat="42.64331" lon="-8.64335">
        <ele>95.79</ele>
        <time>2019-06-07T06:51:01Z</time>
      </trkpt>
      <trkpt lat="42.64348" lon="-8.64335">
        <ele>94.83</ele>
        <time>2019-06-07T06:51:15Z</time>
      </trkpt>
      <trkpt lat="42.64364" lon="-8.64334">
        <ele>95.31</ele>
        <time>2019-06-07T06:51:29Z</time>
      </trkpt>
      <trkpt lat="42.64377" lon="-8.64332">
        <ele>95.31</ele>
        <time>2019-06-07T06:51:41Z</time>
      </trkpt>
      <trkpt lat="42.64392" lon="-8.64327">
        <ele>96.27</ele>
        <time>2019-06-07T06:51:54Z</time>
      </trkpt>
      <trkpt lat="42.64406" lon="-8.64322">
        <ele>97.71</ele>
        <time>2019-06-07T06:52:07Z</time>
      </trkpt>
      <trkpt lat="42.64425" lon="-8.6432">
        <ele>99.15</ele>
        <time>2019-06-07T06:52:22Z</time>
      </trkpt>
      <trkpt lat="42.64435" lon="-8.6432">
        <ele>99.63</ele>
        <time>2019-06-07T06:52:30Z</time>
      </trkpt>
      <trkpt lat="42.64446" lon="-8.64319">
        <ele>100.11</ele>
        <time>2019-06-07T06:52:43Z</time>
      </trkpt>
      <trkpt lat="42.64468" lon="-8.64317">
        <ele>101.56</ele>
        <time>2019-06-07T06:53:01Z</time>
      </trkpt>
      <trkpt lat="42.6448" lon="-8.64321">
        <ele>103</ele>
        <time>2019-06-07T06:53:16Z</time>
      </trkpt>
      <trkpt lat="42.64491" lon="-8.64329">
        <ele>105.4</ele>
        <time>2019-06-07T06:53:27Z</time>
      </trkpt>
      <trkpt lat="42.64496" lon="-8.64333">
        <ele>105.88</ele>
        <time>2019-06-07T06:53:31Z</time>
      </trkpt>
      <trkpt lat="42.64506" lon="-8.64337">
        <ele>109.25</ele>
        <time>2019-06-07T06:53:41Z</time>
      </trkpt>
      <trkpt lat="42.64514" lon="-8.64336">
        <ele>110.21</ele>
        <time>2019-06-07T06:53:52Z</time>
      </trkpt>
      <trkpt lat="42.64526" lon="-8.64334">
        <ele>110.21</ele>
        <time>2019-06-07T06:54:06Z</time>
      </trkpt>
      <trkpt lat="42.64549" lon="-8.64337">
        <ele>112.61</ele>
        <time>2019-06-07T06:54:23Z</time>
      </trkpt>
      <trkpt lat="42.64565" lon="-8.64345">
        <ele>112.13</ele>
        <time>2019-06-07T06:54:35Z</time>
      </trkpt>
      <trkpt lat="42.64567" lon="-8.64347">
        <ele>111.17</ele>
        <time>2019-06-07T06:54:37Z</time>
      </trkpt>
      <trkpt lat="42.64585" lon="-8.64359">
        <ele>111.17</ele>
        <time>2019-06-07T06:54:52Z</time>
      </trkpt>
      <trkpt lat="42.64587" lon="-8.64364">
        <ele>111.65</ele>
        <time>2019-06-07T06:55:06Z</time>
      </trkpt>
      <trkpt lat="42.64585" lon="-8.64364">
        <ele>111.65</ele>
        <time>2019-06-07T06:55:25Z</time>
      </trkpt>
      <trkpt lat="42.64586" lon="-8.64362">
        <ele>111.65</ele>
        <time>2019-06-07T06:55:40Z</time>
      </trkpt>
      <trkpt lat="42.64587" lon="-8.6436">
        <ele>110.69</ele>
        <time>2019-06-07T06:56:02Z</time>
      </trkpt>
      <trkpt lat="42.64587" lon="-8.6436">
        <ele>111.17</ele>
        <time>2019-06-07T06:56:30Z</time>
      </trkpt>
      <trkpt lat="42.64594" lon="-8.64357">
        <ele>111.17</ele>
        <time>2019-06-07T06:57:07Z</time>
      </trkpt>
      <trkpt lat="42.6459" lon="-8.64356">
        <ele>111.65</ele>
        <time>2019-06-07T06:57:45Z</time>
      </trkpt>
      <trkpt lat="42.64589" lon="-8.64357">
        <ele>112.61</ele>
        <time>2019-06-07T06:57:57Z</time>
      </trkpt>
      <trkpt lat="42.64589" lon="-8.64357">
        <ele>107.32</ele>
        <time>2019-06-07T06:58:00Z</time>
      </trkpt>
      <trkpt lat="42.64589" lon="-8.64357">
        <ele>112.61</ele>
        <time>2019-06-07T06:58:01Z</time>
      </trkpt>
      <trkpt lat="42.6459" lon="-8.64357">
        <ele>109.25</ele>
        <time>2019-06-07T06:58:16Z</time>
      </trkpt>
      <trkpt lat="42.6459" lon="-8.64357">
        <ele>110.69</ele>
        <time>2019-06-07T06:58:17Z</time>
      </trkpt>
      <trkpt lat="42.6459" lon="-8.64357">
        <ele>112.13</ele>
        <time>2019-06-07T06:58:19Z</time>
      </trkpt>
      <trkpt lat="42.6459" lon="-8.64358">
        <ele>112.13</ele>
        <time>2019-06-07T06:58:35Z</time>
      </trkpt>
      <trkpt lat="42.64589" lon="-8.6436">
        <ele>112.61</ele>
        <time>2019-06-07T06:58:58Z</time>
      </trkpt>
      <trkpt lat="42.64589" lon="-8.6436">
        <ele>112.61</ele>
        <time>2019-06-07T06:59:20Z</time>
      </trkpt>
      <trkpt lat="42.64589" lon="-8.64361">
        <ele>112.13</ele>
        <time>2019-06-07T06:59:41Z</time>
      </trkpt>
      <trkpt lat="42.64589" lon="-8.6436">
        <ele>111.65</ele>
        <time>2019-06-07T07:00:00Z</time>
      </trkpt>
      <trkpt lat="42.64587" lon="-8.64355">
        <ele>112.61</ele>
        <time>2019-06-07T07:00:34Z</time>
      </trkpt>
      <trkpt lat="42.64591" lon="-8.64355">
        <ele>112.61</ele>
        <time>2019-06-07T07:01:03Z</time>
      </trkpt>
      <trkpt lat="42.64595" lon="-8.64355">
        <ele>112.61</ele>
        <time>2019-06-07T07:01:07Z</time>
      </trkpt>
      <trkpt lat="42.64607" lon="-8.64351">
        <ele>113.09</ele>
        <time>2019-06-07T07:01:22Z</time>
      </trkpt>
      <trkpt lat="42.64607" lon="-8.64351">
        <ele>112.61</ele>
        <time>2019-06-07T07:01:27Z</time>
      </trkpt>
      <trkpt lat="42.64609" lon="-8.64351">
        <ele>112.13</ele>
        <time>2019-06-07T07:01:29Z</time>
      </trkpt>
      <trkpt lat="42.64616" lon="-8.64352">
        <ele>112.61</ele>
        <time>2019-06-07T07:01:34Z</time>
      </trkpt>
      <trkpt lat="42.64641" lon="-8.64356">
        <ele>113.09</ele>
        <time>2019-06-07T07:01:51Z</time>
      </trkpt>
      <trkpt lat="42.64645" lon="-8.64356">
        <ele>113.09</ele>
        <time>2019-06-07T07:01:54Z</time>
      </trkpt>
      <trkpt lat="42.64651" lon="-8.64358">
        <ele>112.13</ele>
        <time>2019-06-07T07:01:58Z</time>
      </trkpt>
      <trkpt lat="42.64658" lon="-8.64361">
        <ele>113.57</ele>
        <time>2019-06-07T07:02:04Z</time>
      </trkpt>
      <trkpt lat="42.64678" lon="-8.64366">
        <ele>113.57</ele>
        <time>2019-06-07T07:02:21Z</time>
      </trkpt>
      <trkpt lat="42.64691" lon="-8.64368">
        <ele>113.57</ele>
        <time>2019-06-07T07:02:33Z</time>
      </trkpt>
      <trkpt lat="42.64704" lon="-8.64373">
        <ele>114.05</ele>
        <time>2019-06-07T07:02:45Z</time>
      </trkpt>
      <trkpt lat="42.64715" lon="-8.64386">
        <ele>114.05</ele>
        <time>2019-06-07T07:02:57Z</time>
      </trkpt>
      <trkpt lat="42.64719" lon="-8.64392">
        <ele>113.57</ele>
        <time>2019-06-07T07:03:02Z</time>
      </trkpt>
      <trkpt lat="42.64733" lon="-8.64413">
        <ele>114.53</ele>
        <time>2019-06-07T07:03:17Z</time>
      </trkpt>
      <trkpt lat="42.64746" lon="-8.64431">
        <ele>115.5</ele>
        <time>2019-06-07T07:03:33Z</time>
      </trkpt>
      <trkpt lat="42.6476" lon="-8.64445">
        <ele>116.46</ele>
        <time>2019-06-07T07:03:48Z</time>
      </trkpt>
      <trkpt lat="42.64776" lon="-8.64455">
        <ele>116.94</ele>
        <time>2019-06-07T07:04:03Z</time>
      </trkpt>
      <trkpt lat="42.6478" lon="-8.64456">
        <ele>117.42</ele>
        <time>2019-06-07T07:04:07Z</time>
      </trkpt>
      <trkpt lat="42.64801" lon="-8.64466">
        <ele>118.86</ele>
        <time>2019-06-07T07:04:25Z</time>
      </trkpt>
      <trkpt lat="42.64813" lon="-8.64467">
        <ele>118.86</ele>
        <time>2019-06-07T07:04:36Z</time>
      </trkpt>
      <trkpt lat="42.64831" lon="-8.64472">
        <ele>119.34</ele>
        <time>2019-06-07T07:04:51Z</time>
      </trkpt>
      <trkpt lat="42.64842" lon="-8.64475">
        <ele>120.3</ele>
        <time>2019-06-07T07:05:00Z</time>
      </trkpt>
      <trkpt lat="42.64851" lon="-8.64478">
        <ele>120.3</ele>
        <time>2019-06-07T07:05:10Z</time>
      </trkpt>
      <trkpt lat="42.64862" lon="-8.64482">
        <ele>120.78</ele>
        <time>2019-06-07T07:05:21Z</time>
      </trkpt>
      <trkpt lat="42.64878" lon="-8.64489">
        <ele>121.26</ele>
        <time>2019-06-07T07:05:35Z</time>
      </trkpt>
      <trkpt lat="42.6489" lon="-8.64491">
        <ele>122.71</ele>
        <time>2019-06-07T07:05:47Z</time>
      </trkpt>
      <trkpt lat="42.64905" lon="-8.64495">
        <ele>123.19</ele>
        <time>2019-06-07T07:06:00Z</time>
      </trkpt>
      <trkpt lat="42.64919" lon="-8.64499">
        <ele>124.63</ele>
        <time>2019-06-07T07:06:13Z</time>
      </trkpt>
      <trkpt lat="42.64924" lon="-8.64501">
        <ele>125.11</ele>
        <time>2019-06-07T07:06:17Z</time>
      </trkpt>
      <trkpt lat="42.6493" lon="-8.64503">
        <ele>125.59</ele>
        <time>2019-06-07T07:06:23Z</time>
      </trkpt>
      <trkpt lat="42.64936" lon="-8.64509">
        <ele>125.59</ele>
        <time>2019-06-07T07:06:28Z</time>
      </trkpt>
      <trkpt lat="42.64935" lon="-8.64521">
        <ele>124.63</ele>
        <time>2019-06-07T07:06:40Z</time>
      </trkpt>
      <trkpt lat="42.64935" lon="-8.64522">
        <ele>125.11</ele>
        <time>2019-06-07T07:06:42Z</time>
      </trkpt>
      <trkpt lat="42.64935" lon="-8.64528">
        <ele>125.11</ele>
        <time>2019-06-07T07:06:46Z</time>
      </trkpt>
      <trkpt lat="42.64934" lon="-8.64547">
        <ele>126.07</ele>
        <time>2019-06-07T07:07:00Z</time>
      </trkpt>
      <trkpt lat="42.64945" lon="-8.64569">
        <ele>127.03</ele>
        <time>2019-06-07T07:07:17Z</time>
      </trkpt>
      <trkpt lat="42.64947" lon="-8.64572">
        <ele>127.51</ele>
        <time>2019-06-07T07:07:19Z</time>
      </trkpt>
      <trkpt lat="42.64955" lon="-8.6459">
        <ele>127.99</ele>
        <time>2019-06-07T07:07:33Z</time>
      </trkpt>
      <trkpt lat="42.64958" lon="-8.64597">
        <ele>127.51</ele>
        <time>2019-06-07T07:07:38Z</time>
      </trkpt>
      <trkpt lat="42.6496" lon="-8.646">
        <ele>128.47</ele>
        <time>2019-06-07T07:07:41Z</time>
      </trkpt>
      <trkpt lat="42.64973" lon="-8.64612">
        <ele>128.95</ele>
        <time>2019-06-07T07:07:56Z</time>
      </trkpt>
      <trkpt lat="42.64975" lon="-8.64613">
        <ele>128.95</ele>
        <time>2019-06-07T07:07:58Z</time>
      </trkpt>
      <trkpt lat="42.64976" lon="-8.64615">
        <ele>128.95</ele>
        <time>2019-06-07T07:08:00Z</time>
      </trkpt>
      <trkpt lat="42.64994" lon="-8.64633">
        <ele>128.95</ele>
        <time>2019-06-07T07:08:17Z</time>
      </trkpt>
      <trkpt lat="42.65005" lon="-8.64646">
        <ele>128.95</ele>
        <time>2019-06-07T07:08:29Z</time>
      </trkpt>
      <trkpt lat="42.65019" lon="-8.64664">
        <ele>129.43</ele>
        <time>2019-06-07T07:08:45Z</time>
      </trkpt>
      <trkpt lat="42.65026" lon="-8.64674">
        <ele>129.92</ele>
        <time>2019-06-07T07:08:53Z</time>
      </trkpt>
      <trkpt lat="42.65028" lon="-8.64675">
        <ele>130.4</ele>
        <time>2019-06-07T07:08:55Z</time>
      </trkpt>
      <trkpt lat="42.65045" lon="-8.64679">
        <ele>131.36</ele>
        <time>2019-06-07T07:09:12Z</time>
      </trkpt>
      <trkpt lat="42.65052" lon="-8.6468">
        <ele>130.88</ele>
        <time>2019-06-07T07:09:19Z</time>
      </trkpt>
      <trkpt lat="42.6506" lon="-8.64692">
        <ele>130.88</ele>
        <time>2019-06-07T07:09:28Z</time>
      </trkpt>
      <trkpt lat="42.65062" lon="-8.64693">
        <ele>131.84</ele>
        <time>2019-06-07T07:09:30Z</time>
      </trkpt>
      <trkpt lat="42.65077" lon="-8.6468">
        <ele>132.32</ele>
        <time>2019-06-07T07:09:44Z</time>
      </trkpt>
      <trkpt lat="42.65085" lon="-8.64662">
        <ele>131.36</ele>
        <time>2019-06-07T07:09:58Z</time>
      </trkpt>
      <trkpt lat="42.6509" lon="-8.64646">
        <ele>132.32</ele>
        <time>2019-06-07T07:10:08Z</time>
      </trkpt>
      <trkpt lat="42.65093" lon="-8.64639">
        <ele>132.8</ele>
        <time>2019-06-07T07:10:14Z</time>
      </trkpt>
      <trkpt lat="42.65096" lon="-8.6464">
        <ele>132.8</ele>
        <time>2019-06-07T07:10:16Z</time>
      </trkpt>
      <trkpt lat="42.65099" lon="-8.64641">
        <ele>131.84</ele>
        <time>2019-06-07T07:10:17Z</time>
      </trkpt>
      <trkpt lat="42.65101" lon="-8.64642">
        <ele>131.84</ele>
        <time>2019-06-07T07:10:18Z</time>
      </trkpt>
      <trkpt lat="42.65103" lon="-8.64641">
        <ele>131.84</ele>
        <time>2019-06-07T07:10:19Z</time>
      </trkpt>
      <trkpt lat="42.65104" lon="-8.64641">
        <ele>132.32</ele>
        <time>2019-06-07T07:10:20Z</time>
      </trkpt>
      <trkpt lat="42.65106" lon="-8.6464">
        <ele>132.32</ele>
        <time>2019-06-07T07:10:21Z</time>
      </trkpt>
      <trkpt lat="42.65116" lon="-8.64639">
        <ele>132.32</ele>
        <time>2019-06-07T07:10:29Z</time>
      </trkpt>
      <trkpt lat="42.65119" lon="-8.64639">
        <ele>132.8</ele>
        <time>2019-06-07T07:10:32Z</time>
      </trkpt>
      <trkpt lat="42.65123" lon="-8.64638">
        <ele>132.8</ele>
        <time>2019-06-07T07:10:40Z</time>
      </trkpt>
      <trkpt lat="42.65137" lon="-8.64638">
        <ele>133.28</ele>
        <time>2019-06-07T07:10:54Z</time>
      </trkpt>
      <trkpt lat="42.65138" lon="-8.64638">
        <ele>132.32</ele>
        <time>2019-06-07T07:10:55Z</time>
      </trkpt>
      <trkpt lat="42.65152" lon="-8.64641">
        <ele>132.8</ele>
        <time>2019-06-07T07:11:08Z</time>
      </trkpt>
      <trkpt lat="42.65164" lon="-8.64634">
        <ele>133.28</ele>
        <time>2019-06-07T07:11:21Z</time>
      </trkpt>
      <trkpt lat="42.65171" lon="-8.64628">
        <ele>133.76</ele>
        <time>2019-06-07T07:11:27Z</time>
      </trkpt>
      <trkpt lat="42.65176" lon="-8.64622">
        <ele>133.28</ele>
        <time>2019-06-07T07:11:33Z</time>
      </trkpt>
      <trkpt lat="42.65185" lon="-8.64606">
        <ele>132.8</ele>
        <time>2019-06-07T07:11:46Z</time>
      </trkpt>
      <trkpt lat="42.65187" lon="-8.64601">
        <ele>133.28</ele>
        <time>2019-06-07T07:11:49Z</time>
      </trkpt>
      <trkpt lat="42.65191" lon="-8.64595">
        <ele>133.28</ele>
        <time>2019-06-07T07:11:54Z</time>
      </trkpt>
      <trkpt lat="42.65194" lon="-8.64588">
        <ele>133.76</ele>
        <time>2019-06-07T07:11:59Z</time>
      </trkpt>
      <trkpt lat="42.65197" lon="-8.64581">
        <ele>134.72</ele>
        <time>2019-06-07T07:12:05Z</time>
      </trkpt>
      <trkpt lat="42.65202" lon="-8.6457">
        <ele>135.2</ele>
        <time>2019-06-07T07:12:13Z</time>
      </trkpt>
      <trkpt lat="42.65202" lon="-8.64568">
        <ele>134.72</ele>
        <time>2019-06-07T07:12:14Z</time>
      </trkpt>
      <trkpt lat="42.652" lon="-8.64549">
        <ele>134.24</ele>
        <time>2019-06-07T07:12:29Z</time>
      </trkpt>
      <trkpt lat="42.65197" lon="-8.6455">
        <ele>134.24</ele>
        <time>2019-06-07T07:12:46Z</time>
      </trkpt>
      <trkpt lat="42.65201" lon="-8.6455">
        <ele>134.72</ele>
        <time>2019-06-07T07:13:04Z</time>
      </trkpt>
      <trkpt lat="42.65203" lon="-8.64548">
        <ele>134.72</ele>
        <time>2019-06-07T07:13:17Z</time>
      </trkpt>
      <trkpt lat="42.65204" lon="-8.6455">
        <ele>135.2</ele>
        <time>2019-06-07T07:13:29Z</time>
      </trkpt>
      <trkpt lat="42.65202" lon="-8.64555">
        <ele>135.2</ele>
        <time>2019-06-07T07:13:50Z</time>
      </trkpt>
      <trkpt lat="42.65201" lon="-8.64548">
        <ele>134.72</ele>
        <time>2019-06-07T07:14:04Z</time>
      </trkpt>
      <trkpt lat="42.652" lon="-8.64548">
        <ele>134.72</ele>
        <time>2019-06-07T07:14:06Z</time>
      </trkpt>
      <trkpt lat="42.65199" lon="-8.64549">
        <ele>134.24</ele>
        <time>2019-06-07T07:14:21Z</time>
      </trkpt>
      <trkpt lat="42.65206" lon="-8.64548">
        <ele>135.2</ele>
        <time>2019-06-07T07:14:48Z</time>
      </trkpt>
      <trkpt lat="42.65223" lon="-8.64552">
        <ele>137.13</ele>
        <time>2019-06-07T07:15:03Z</time>
      </trkpt>
      <trkpt lat="42.6523" lon="-8.64553">
        <ele>137.61</ele>
        <time>2019-06-07T07:15:09Z</time>
      </trkpt>
      <trkpt lat="42.65231" lon="-8.64557">
        <ele>138.09</ele>
        <time>2019-06-07T07:15:21Z</time>
      </trkpt>
      <trkpt lat="42.65231" lon="-8.64558">
        <ele>137.13</ele>
        <time>2019-06-07T07:15:36Z</time>
      </trkpt>
      <trkpt lat="42.65233" lon="-8.64557">
        <ele>137.61</ele>
        <time>2019-06-07T07:16:12Z</time>
      </trkpt>
      <trkpt lat="42.65231" lon="-8.64555">
        <ele>138.57</ele>
        <time>2019-06-07T07:16:53Z</time>
      </trkpt>
      <trkpt lat="42.65233" lon="-8.64559">
        <ele>138.09</ele>
        <time>2019-06-07T07:17:31Z</time>
      </trkpt>
      <trkpt lat="42.65232" lon="-8.6456">
        <ele>139.53</ele>
        <time>2019-06-07T07:18:06Z</time>
      </trkpt>
      <trkpt lat="42.65232" lon="-8.64559">
        <ele>133.28</ele>
        <time>2019-06-07T07:18:24Z</time>
      </trkpt>
      <trkpt lat="42.65232" lon="-8.64559">
        <ele>141.93</ele>
        <time>2019-06-07T07:18:25Z</time>
      </trkpt>
      <trkpt lat="42.65233" lon="-8.64559">
        <ele>138.57</ele>
        <time>2019-06-07T07:18:37Z</time>
      </trkpt>
      <trkpt lat="42.65234" lon="-8.64558">
        <ele>139.05</ele>
        <time>2019-06-07T07:18:42Z</time>
      </trkpt>
      <trkpt lat="42.65235" lon="-8.64557">
        <ele>138.57</ele>
        <time>2019-06-07T07:18:43Z</time>
      </trkpt>
      <trkpt lat="42.6524" lon="-8.64548">
        <ele>139.53</ele>
        <time>2019-06-07T07:18:54Z</time>
      </trkpt>
      <trkpt lat="42.6525" lon="-8.64538">
        <ele>140.97</ele>
        <time>2019-06-07T07:19:07Z</time>
      </trkpt>
      <trkpt lat="42.65265" lon="-8.64527">
        <ele>142.89</ele>
        <time>2019-06-07T07:19:23Z</time>
      </trkpt>
      <trkpt lat="42.65275" lon="-8.64518">
        <ele>144.34</ele>
        <time>2019-06-07T07:19:36Z</time>
      </trkpt>
      <trkpt lat="42.65284" lon="-8.64511">
        <ele>144.82</ele>
        <time>2019-06-07T07:19:49Z</time>
      </trkpt>
      <trkpt lat="42.65285" lon="-8.6451">
        <ele>144.82</ele>
        <time>2019-06-07T07:19:50Z</time>
      </trkpt>
      <trkpt lat="42.65286" lon="-8.6451">
        <ele>144.82</ele>
        <time>2019-06-07T07:19:51Z</time>
      </trkpt>
      <trkpt lat="42.65287" lon="-8.64509">
        <ele>144.82</ele>
        <time>2019-06-07T07:19:52Z</time>
      </trkpt>
      <trkpt lat="42.65288" lon="-8.64508">
        <ele>144.82</ele>
        <time>2019-06-07T07:19:53Z</time>
      </trkpt>
      <trkpt lat="42.65304" lon="-8.64495">
        <ele>146.26</ele>
        <time>2019-06-07T07:20:09Z</time>
      </trkpt>
      <trkpt lat="42.6532" lon="-8.64479">
        <ele>148.18</ele>
        <time>2019-06-07T07:20:28Z</time>
      </trkpt>
      <trkpt lat="42.65329" lon="-8.64472">
        <ele>148.66</ele>
        <time>2019-06-07T07:20:37Z</time>
      </trkpt>
      <trkpt lat="42.6534" lon="-8.64464">
        <ele>149.62</ele>
        <time>2019-06-07T07:20:49Z</time>
      </trkpt>
      <trkpt lat="42.65353" lon="-8.64453">
        <ele>150.1</ele>
        <time>2019-06-07T07:21:02Z</time>
      </trkpt>
      <trkpt lat="42.65362" lon="-8.6444">
        <ele>150.58</ele>
        <time>2019-06-07T07:21:15Z</time>
      </trkpt>
      <trkpt lat="42.65363" lon="-8.64439">
        <ele>151.06</ele>
        <time>2019-06-07T07:21:16Z</time>
      </trkpt>
      <trkpt lat="42.65375" lon="-8.64423">
        <ele>152.51</ele>
        <time>2019-06-07T07:21:31Z</time>
      </trkpt>
      <trkpt lat="42.65378" lon="-8.64422">
        <ele>152.51</ele>
        <time>2019-06-07T07:21:33Z</time>
      </trkpt>
      <trkpt lat="42.65379" lon="-8.64422">
        <ele>152.03</ele>
        <time>2019-06-07T07:21:34Z</time>
      </trkpt>
      <trkpt lat="42.65381" lon="-8.64422">
        <ele>152.99</ele>
        <time>2019-06-07T07:21:35Z</time>
      </trkpt>
      <trkpt lat="42.65382" lon="-8.64422">
        <ele>152.99</ele>
        <time>2019-06-07T07:21:36Z</time>
      </trkpt>
      <trkpt lat="42.65397" lon="-8.64422">
        <ele>153.95</ele>
        <time>2019-06-07T07:21:50Z</time>
      </trkpt>
      <trkpt lat="42.65405" lon="-8.64423">
        <ele>154.43</ele>
        <time>2019-06-07T07:21:57Z</time>
      </trkpt>
      <trkpt lat="42.65423" lon="-8.64423">
        <ele>154.43</ele>
        <time>2019-06-07T07:22:13Z</time>
      </trkpt>
      <trkpt lat="42.65441" lon="-8.6441">
        <ele>154.43</ele>
        <time>2019-06-07T07:22:30Z</time>
      </trkpt>
      <trkpt lat="42.65453" lon="-8.64399">
        <ele>154.91</ele>
        <time>2019-06-07T07:22:44Z</time>
      </trkpt>
      <trkpt lat="42.65456" lon="-8.64397">
        <ele>154.91</ele>
        <time>2019-06-07T07:22:47Z</time>
      </trkpt>
      <trkpt lat="42.65457" lon="-8.64396">
        <ele>154.43</ele>
        <time>2019-06-07T07:22:48Z</time>
      </trkpt>
      <trkpt lat="42.65458" lon="-8.64395">
        <ele>154.91</ele>
        <time>2019-06-07T07:22:49Z</time>
      </trkpt>
      <trkpt lat="42.65459" lon="-8.64395">
        <ele>154.91</ele>
        <time>2019-06-07T07:22:50Z</time>
      </trkpt>
      <trkpt lat="42.65471" lon="-8.64379">
        <ele>153.47</ele>
        <time>2019-06-07T07:23:06Z</time>
      </trkpt>
      <trkpt lat="42.65471" lon="-8.64377">
        <ele>152.51</ele>
        <time>2019-06-07T07:23:07Z</time>
      </trkpt>
      <trkpt lat="42.65471" lon="-8.64374">
        <ele>153.47</ele>
        <time>2019-06-07T07:23:09Z</time>
      </trkpt>
      <trkpt lat="42.65471" lon="-8.64365">
        <ele>153.47</ele>
        <time>2019-06-07T07:23:15Z</time>
      </trkpt>
      <trkpt lat="42.65472" lon="-8.64362">
        <ele>153.47</ele>
        <time>2019-06-07T07:23:17Z</time>
      </trkpt>
      <trkpt lat="42.65472" lon="-8.6436">
        <ele>152.51</ele>
        <time>2019-06-07T07:23:18Z</time>
      </trkpt>
      <trkpt lat="42.65472" lon="-8.64358">
        <ele>153.95</ele>
        <time>2019-06-07T07:23:19Z</time>
      </trkpt>
      <trkpt lat="42.65473" lon="-8.64355">
        <ele>153.47</ele>
        <time>2019-06-07T07:23:21Z</time>
      </trkpt>
      <trkpt lat="42.65474" lon="-8.64354">
        <ele>152.99</ele>
        <time>2019-06-07T07:23:22Z</time>
      </trkpt>
      <trkpt lat="42.65475" lon="-8.64353">
        <ele>153.47</ele>
        <time>2019-06-07T07:23:23Z</time>
      </trkpt>
      <trkpt lat="42.65475" lon="-8.64342">
        <ele>153.47</ele>
        <time>2019-06-07T07:23:30Z</time>
      </trkpt>
      <trkpt lat="42.6548" lon="-8.64329">
        <ele>153.47</ele>
        <time>2019-06-07T07:23:38Z</time>
      </trkpt>
      <trkpt lat="42.65481" lon="-8.64328">
        <ele>152.51</ele>
        <time>2019-06-07T07:23:39Z</time>
      </trkpt>
      <trkpt lat="42.65491" lon="-8.6431">
        <ele>154.43</ele>
        <time>2019-06-07T07:23:53Z</time>
      </trkpt>
      <trkpt lat="42.65504" lon="-8.64298">
        <ele>154.91</ele>
        <time>2019-06-07T07:24:08Z</time>
      </trkpt>
      <trkpt lat="42.65506" lon="-8.64299">
        <ele>155.39</ele>
        <time>2019-06-07T07:24:09Z</time>
      </trkpt>
      <trkpt lat="42.65508" lon="-8.643">
        <ele>155.39</ele>
        <time>2019-06-07T07:24:11Z</time>
      </trkpt>
      <trkpt lat="42.65515" lon="-8.64304">
        <ele>155.87</ele>
        <time>2019-06-07T07:24:16Z</time>
      </trkpt>
      <trkpt lat="42.65516" lon="-8.64305">
        <ele>156.35</ele>
        <time>2019-06-07T07:24:17Z</time>
      </trkpt>
      <trkpt lat="42.65531" lon="-8.64311">
        <ele>157.31</ele>
        <time>2019-06-07T07:24:31Z</time>
      </trkpt>
      <trkpt lat="42.65544" lon="-8.64307">
        <ele>157.79</ele>
        <time>2019-06-07T07:24:44Z</time>
      </trkpt>
      <trkpt lat="42.65545" lon="-8.64305">
        <ele>158.27</ele>
        <time>2019-06-07T07:24:46Z</time>
      </trkpt>
      <trkpt lat="42.65546" lon="-8.64303">
        <ele>157.31</ele>
        <time>2019-06-07T07:24:47Z</time>
      </trkpt>
      <trkpt lat="42.65546" lon="-8.64301">
        <ele>157.31</ele>
        <time>2019-06-07T07:24:48Z</time>
      </trkpt>
      <trkpt lat="42.65547" lon="-8.64299">
        <ele>157.79</ele>
        <time>2019-06-07T07:24:49Z</time>
      </trkpt>
      <trkpt lat="42.65549" lon="-8.64293">
        <ele>157.31</ele>
        <time>2019-06-07T07:24:53Z</time>
      </trkpt>
      <trkpt lat="42.65551" lon="-8.64282">
        <ele>156.83</ele>
        <time>2019-06-07T07:24:59Z</time>
      </trkpt>
      <trkpt lat="42.65551" lon="-8.64281">
        <ele>157.79</ele>
        <time>2019-06-07T07:25:00Z</time>
      </trkpt>
      <trkpt lat="42.65552" lon="-8.64279">
        <ele>157.31</ele>
        <time>2019-06-07T07:25:01Z</time>
      </trkpt>
      <trkpt lat="42.65553" lon="-8.64254">
        <ele>155.39</ele>
        <time>2019-06-07T07:25:17Z</time>
      </trkpt>
      <trkpt lat="42.65558" lon="-8.64236">
        <ele>155.87</ele>
        <time>2019-06-07T07:25:29Z</time>
      </trkpt>
      <trkpt lat="42.6556" lon="-8.64233">
        <ele>155.87</ele>
        <time>2019-06-07T07:25:32Z</time>
      </trkpt>
      <trkpt lat="42.65565" lon="-8.64226">
        <ele>155.87</ele>
        <time>2019-06-07T07:25:38Z</time>
      </trkpt>
      <trkpt lat="42.65566" lon="-8.64223">
        <ele>155.87</ele>
        <time>2019-06-07T07:25:40Z</time>
      </trkpt>
      <trkpt lat="42.65567" lon="-8.64222">
        <ele>155.87</ele>
        <time>2019-06-07T07:25:41Z</time>
      </trkpt>
      <trkpt lat="42.65571" lon="-8.64218">
        <ele>155.87</ele>
        <time>2019-06-07T07:25:44Z</time>
      </trkpt>
      <trkpt lat="42.65584" lon="-8.64207">
        <ele>155.87</ele>
        <time>2019-06-07T07:25:57Z</time>
      </trkpt>
      <trkpt lat="42.65586" lon="-8.64208">
        <ele>155.87</ele>
        <time>2019-06-07T07:25:58Z</time>
      </trkpt>
      <trkpt lat="42.65587" lon="-8.64208">
        <ele>155.39</ele>
        <time>2019-06-07T07:25:59Z</time>
      </trkpt>
      <trkpt lat="42.65606" lon="-8.64224">
        <ele>156.35</ele>
        <time>2019-06-07T07:26:16Z</time>
      </trkpt>
      <trkpt lat="42.6562" lon="-8.64231">
        <ele>155.39</ele>
        <time>2019-06-07T07:26:28Z</time>
      </trkpt>
      <trkpt lat="42.65623" lon="-8.64232">
        <ele>155.39</ele>
        <time>2019-06-07T07:26:31Z</time>
      </trkpt>
      <trkpt lat="42.65624" lon="-8.64233">
        <ele>155.39</ele>
        <time>2019-06-07T07:26:32Z</time>
      </trkpt>
      <trkpt lat="42.65626" lon="-8.64233">
        <ele>155.39</ele>
        <time>2019-06-07T07:26:33Z</time>
      </trkpt>
      <trkpt lat="42.65627" lon="-8.64233">
        <ele>155.87</ele>
        <time>2019-06-07T07:26:34Z</time>
      </trkpt>
      <trkpt lat="42.65629" lon="-8.64233">
        <ele>155.39</ele>
        <time>2019-06-07T07:26:36Z</time>
      </trkpt>
      <trkpt lat="42.6563" lon="-8.64234">
        <ele>155.39</ele>
        <time>2019-06-07T07:26:37Z</time>
      </trkpt>
      <trkpt lat="42.65647" lon="-8.64239">
        <ele>155.39</ele>
        <time>2019-06-07T07:26:52Z</time>
      </trkpt>
      <trkpt lat="42.65668" lon="-8.64248">
        <ele>154.43</ele>
        <time>2019-06-07T07:27:07Z</time>
      </trkpt>
      <trkpt lat="42.65685" lon="-8.64256">
        <ele>155.39</ele>
        <time>2019-06-07T07:27:22Z</time>
      </trkpt>
      <trkpt lat="42.65704" lon="-8.64264">
        <ele>155.39</ele>
        <time>2019-06-07T07:27:37Z</time>
      </trkpt>
      <trkpt lat="42.65725" lon="-8.64281">
        <ele>155.39</ele>
        <time>2019-06-07T07:27:56Z</time>
      </trkpt>
      <trkpt lat="42.6573" lon="-8.64281">
        <ele>155.39</ele>
        <time>2019-06-07T07:28:00Z</time>
      </trkpt>
      <trkpt lat="42.65731" lon="-8.6428">
        <ele>155.39</ele>
        <time>2019-06-07T07:28:01Z</time>
      </trkpt>
      <trkpt lat="42.65732" lon="-8.64279">
        <ele>155.39</ele>
        <time>2019-06-07T07:28:02Z</time>
      </trkpt>
      <trkpt lat="42.65737" lon="-8.64275">
        <ele>155.87</ele>
        <time>2019-06-07T07:28:07Z</time>
      </trkpt>
      <trkpt lat="42.65737" lon="-8.64274">
        <ele>155.39</ele>
        <time>2019-06-07T07:28:08Z</time>
      </trkpt>
      <trkpt lat="42.65738" lon="-8.64272">
        <ele>155.39</ele>
        <time>2019-06-07T07:28:09Z</time>
      </trkpt>
      <trkpt lat="42.65739" lon="-8.64271">
        <ele>155.87</ele>
        <time>2019-06-07T07:28:10Z</time>
      </trkpt>
      <trkpt lat="42.6574" lon="-8.6427">
        <ele>155.87</ele>
        <time>2019-06-07T07:28:11Z</time>
      </trkpt>
      <trkpt lat="42.65741" lon="-8.64269">
        <ele>155.87</ele>
        <time>2019-06-07T07:28:12Z</time>
      </trkpt>
      <trkpt lat="42.65749" lon="-8.64255">
        <ele>154.91</ele>
        <time>2019-06-07T07:28:23Z</time>
      </trkpt>
      <trkpt lat="42.65758" lon="-8.6423">
        <ele>154.91</ele>
        <time>2019-06-07T07:28:39Z</time>
      </trkpt>
      <trkpt lat="42.65759" lon="-8.64222">
        <ele>155.39</ele>
        <time>2019-06-07T07:28:45Z</time>
      </trkpt>
      <trkpt lat="42.65767" lon="-8.64205">
        <ele>155.87</ele>
        <time>2019-06-07T07:28:58Z</time>
      </trkpt>
      <trkpt lat="42.65767" lon="-8.64204">
        <ele>155.87</ele>
        <time>2019-06-07T07:28:59Z</time>
      </trkpt>
      <trkpt lat="42.65768" lon="-8.64202">
        <ele>155.87</ele>
        <time>2019-06-07T07:29:00Z</time>
      </trkpt>
      <trkpt lat="42.65773" lon="-8.64191">
        <ele>155.39</ele>
        <time>2019-06-07T07:29:07Z</time>
      </trkpt>
      <trkpt lat="42.65779" lon="-8.6418">
        <ele>154.43</ele>
        <time>2019-06-07T07:29:19Z</time>
      </trkpt>
      <trkpt lat="42.65789" lon="-8.64165">
        <ele>154.91</ele>
        <time>2019-06-07T07:29:32Z</time>
      </trkpt>
      <trkpt lat="42.65789" lon="-8.64163">
        <ele>154.43</ele>
        <time>2019-06-07T07:29:33Z</time>
      </trkpt>
      <trkpt lat="42.6579" lon="-8.64162">
        <ele>153.95</ele>
        <time>2019-06-07T07:29:34Z</time>
      </trkpt>
      <trkpt lat="42.65791" lon="-8.6416">
        <ele>154.43</ele>
        <time>2019-06-07T07:29:35Z</time>
      </trkpt>
      <trkpt lat="42.65792" lon="-8.64159">
        <ele>153.95</ele>
        <time>2019-06-07T07:29:36Z</time>
      </trkpt>
      <trkpt lat="42.65796" lon="-8.6414">
        <ele>153.95</ele>
        <time>2019-06-07T07:29:49Z</time>
      </trkpt>
      <trkpt lat="42.65797" lon="-8.64135">
        <ele>153.95</ele>
        <time>2019-06-07T07:29:53Z</time>
      </trkpt>
      <trkpt lat="42.658" lon="-8.64122">
        <ele>154.43</ele>
        <time>2019-06-07T07:30:02Z</time>
      </trkpt>
      <trkpt lat="42.658" lon="-8.64119">
        <ele>153.47</ele>
        <time>2019-06-07T07:30:04Z</time>
      </trkpt>
      <trkpt lat="42.65803" lon="-8.64109">
        <ele>153.47</ele>
        <time>2019-06-07T07:30:10Z</time>
      </trkpt>
      <trkpt lat="42.65803" lon="-8.64107">
        <ele>153.47</ele>
        <time>2019-06-07T07:30:11Z</time>
      </trkpt>
      <trkpt lat="42.65804" lon="-8.64097">
        <ele>153.47</ele>
        <time>2019-06-07T07:30:17Z</time>
      </trkpt>
      <trkpt lat="42.65804" lon="-8.64087">
        <ele>153.95</ele>
        <time>2019-06-07T07:30:22Z</time>
      </trkpt>
      <trkpt lat="42.65805" lon="-8.64085">
        <ele>153.47</ele>
        <time>2019-06-07T07:30:23Z</time>
      </trkpt>
      <trkpt lat="42.65808" lon="-8.6407">
        <ele>153.95</ele>
        <time>2019-06-07T07:30:32Z</time>
      </trkpt>
      <trkpt lat="42.65808" lon="-8.64068">
        <ele>153.47</ele>
        <time>2019-06-07T07:30:33Z</time>
      </trkpt>
      <trkpt lat="42.65812" lon="-8.64042">
        <ele>153.95</ele>
        <time>2019-06-07T07:30:49Z</time>
      </trkpt>
      <trkpt lat="42.65815" lon="-8.6402">
        <ele>152.99</ele>
        <time>2019-06-07T07:31:04Z</time>
      </trkpt>
      <trkpt lat="42.65816" lon="-8.64016">
        <ele>152.51</ele>
        <time>2019-06-07T07:31:07Z</time>
      </trkpt>
      <trkpt lat="42.65823" lon="-8.64005">
        <ele>151.54</ele>
        <time>2019-06-07T07:31:20Z</time>
      </trkpt>
      <trkpt lat="42.65824" lon="-8.64004">
        <ele>152.03</ele>
        <time>2019-06-07T07:31:21Z</time>
      </trkpt>
      <trkpt lat="42.65838" lon="-8.63991">
        <ele>151.06</ele>
        <time>2019-06-07T07:31:34Z</time>
      </trkpt>
      <trkpt lat="42.65852" lon="-8.63979">
        <ele>150.1</ele>
        <time>2019-06-07T07:31:48Z</time>
      </trkpt>
      <trkpt lat="42.65861" lon="-8.63969">
        <ele>148.66</ele>
        <time>2019-06-07T07:31:59Z</time>
      </trkpt>
      <trkpt lat="42.65862" lon="-8.63968">
        <ele>147.7</ele>
        <time>2019-06-07T07:32:00Z</time>
      </trkpt>
      <trkpt lat="42.65866" lon="-8.63961">
        <ele>146.74</ele>
        <time>2019-06-07T07:32:05Z</time>
      </trkpt>
      <trkpt lat="42.65866" lon="-8.63959">
        <ele>146.26</ele>
        <time>2019-06-07T07:32:06Z</time>
      </trkpt>
      <trkpt lat="42.65869" lon="-8.63942">
        <ele>144.82</ele>
        <time>2019-06-07T07:32:19Z</time>
      </trkpt>
      <trkpt lat="42.65863" lon="-8.63926">
        <ele>145.3</ele>
        <time>2019-06-07T07:32:32Z</time>
      </trkpt>
      <trkpt lat="42.65862" lon="-8.63925">
        <ele>144.82</ele>
        <time>2019-06-07T07:32:33Z</time>
      </trkpt>
      <trkpt lat="42.65858" lon="-8.6392">
        <ele>144.34</ele>
        <time>2019-06-07T07:32:37Z</time>
      </trkpt>
      <trkpt lat="42.65857" lon="-8.63919">
        <ele>144.34</ele>
        <time>2019-06-07T07:32:38Z</time>
      </trkpt>
      <trkpt lat="42.65855" lon="-8.63918">
        <ele>144.82</ele>
        <time>2019-06-07T07:32:39Z</time>
      </trkpt>
      <trkpt lat="42.65856" lon="-8.63913">
        <ele>144.82</ele>
        <time>2019-06-07T07:32:47Z</time>
      </trkpt>
      <trkpt lat="42.65867" lon="-8.63924">
        <ele>145.78</ele>
        <time>2019-06-07T07:33:00Z</time>
      </trkpt>
      <trkpt lat="42.6587" lon="-8.63936">
        <ele>145.78</ele>
        <time>2019-06-07T07:33:08Z</time>
      </trkpt>
      <trkpt lat="42.6587" lon="-8.63945">
        <ele>146.26</ele>
        <time>2019-06-07T07:33:17Z</time>
      </trkpt>
      <trkpt lat="42.65869" lon="-8.63941">
        <ele>145.78</ele>
        <time>2019-06-07T07:33:20Z</time>
      </trkpt>
      <trkpt lat="42.65866" lon="-8.63933">
        <ele>145.3</ele>
        <time>2019-06-07T07:33:28Z</time>
      </trkpt>
      <trkpt lat="42.65865" lon="-8.63932">
        <ele>145.3</ele>
        <time>2019-06-07T07:33:29Z</time>
      </trkpt>
      <trkpt lat="42.65864" lon="-8.6393">
        <ele>144.82</ele>
        <time>2019-06-07T07:33:30Z</time>
      </trkpt>
      <trkpt lat="42.65847" lon="-8.6391">
        <ele>144.82</ele>
        <time>2019-06-07T07:33:45Z</time>
      </trkpt>
      <trkpt lat="42.65831" lon="-8.63892">
        <ele>144.82</ele>
        <time>2019-06-07T07:34:01Z</time>
      </trkpt>
      <trkpt lat="42.65819" lon="-8.63867">
        <ele>143.85</ele>
        <time>2019-06-07T07:34:17Z</time>
      </trkpt>
      <trkpt lat="42.65814" lon="-8.63845">
        <ele>143.37</ele>
        <time>2019-06-07T07:34:30Z</time>
      </trkpt>
      <trkpt lat="42.65809" lon="-8.63816">
        <ele>143.85</ele>
        <time>2019-06-07T07:34:47Z</time>
      </trkpt>
      <trkpt lat="42.65822" lon="-8.638">
        <ele>143.37</ele>
        <time>2019-06-07T07:35:02Z</time>
      </trkpt>
      <trkpt lat="42.65822" lon="-8.63797">
        <ele>143.85</ele>
        <time>2019-06-07T07:35:04Z</time>
      </trkpt>
      <trkpt lat="42.65822" lon="-8.63796">
        <ele>142.89</ele>
        <time>2019-06-07T07:35:05Z</time>
      </trkpt>
      <trkpt lat="42.65822" lon="-8.63792">
        <ele>143.85</ele>
        <time>2019-06-07T07:35:07Z</time>
      </trkpt>
      <trkpt lat="42.65825" lon="-8.63786">
        <ele>144.34</ele>
        <time>2019-06-07T07:35:12Z</time>
      </trkpt>
      <trkpt lat="42.65835" lon="-8.63774">
        <ele>143.85</ele>
        <time>2019-06-07T07:35:25Z</time>
      </trkpt>
      <trkpt lat="42.65836" lon="-8.63773">
        <ele>143.85</ele>
        <time>2019-06-07T07:35:26Z</time>
      </trkpt>
      <trkpt lat="42.65837" lon="-8.63772">
        <ele>143.85</ele>
        <time>2019-06-07T07:35:27Z</time>
      </trkpt>
      <trkpt lat="42.65837" lon="-8.6377">
        <ele>143.85</ele>
        <time>2019-06-07T07:35:28Z</time>
      </trkpt>
      <trkpt lat="42.65839" lon="-8.63765">
        <ele>143.37</ele>
        <time>2019-06-07T07:35:32Z</time>
      </trkpt>
      <trkpt lat="42.65843" lon="-8.63741">
        <ele>143.85</ele>
        <time>2019-06-07T07:35:46Z</time>
      </trkpt>
      <trkpt lat="42.65846" lon="-8.63732">
        <ele>143.85</ele>
        <time>2019-06-07T07:35:55Z</time>
      </trkpt>
      <trkpt lat="42.65846" lon="-8.6373">
        <ele>142.89</ele>
        <time>2019-06-07T07:35:56Z</time>
      </trkpt>
      <trkpt lat="42.65848" lon="-8.63702">
        <ele>143.37</ele>
        <time>2019-06-07T07:36:12Z</time>
      </trkpt>
      <trkpt lat="42.65848" lon="-8.63688">
        <ele>143.85</ele>
        <time>2019-06-07T07:36:25Z</time>
      </trkpt>
      <trkpt lat="42.65848" lon="-8.63687">
        <ele>143.85</ele>
        <time>2019-06-07T07:36:29Z</time>
      </trkpt>
      <trkpt lat="42.6585" lon="-8.63687">
        <ele>143.85</ele>
        <time>2019-06-07T07:36:31Z</time>
      </trkpt>
      <trkpt lat="42.65853" lon="-8.63685">
        <ele>143.85</ele>
        <time>2019-06-07T07:36:34Z</time>
      </trkpt>
      <trkpt lat="42.65854" lon="-8.63683">
        <ele>144.34</ele>
        <time>2019-06-07T07:36:35Z</time>
      </trkpt>
      <trkpt lat="42.65855" lon="-8.63682">
        <ele>144.82</ele>
        <time>2019-06-07T07:36:36Z</time>
      </trkpt>
      <trkpt lat="42.65864" lon="-8.63675">
        <ele>144.82</ele>
        <time>2019-06-07T07:36:45Z</time>
      </trkpt>
      <trkpt lat="42.65865" lon="-8.63674">
        <ele>144.82</ele>
        <time>2019-06-07T07:36:46Z</time>
      </trkpt>
      <trkpt lat="42.65867" lon="-8.63673">
        <ele>144.34</ele>
        <time>2019-06-07T07:36:47Z</time>
      </trkpt>
      <trkpt lat="42.65868" lon="-8.63672">
        <ele>145.3</ele>
        <time>2019-06-07T07:36:48Z</time>
      </trkpt>
      <trkpt lat="42.65869" lon="-8.63671">
        <ele>145.3</ele>
        <time>2019-06-07T07:36:49Z</time>
      </trkpt>
      <trkpt lat="42.6587" lon="-8.6367">
        <ele>145.3</ele>
        <time>2019-06-07T07:36:50Z</time>
      </trkpt>
      <trkpt lat="42.65871" lon="-8.63669">
        <ele>144.82</ele>
        <time>2019-06-07T07:36:51Z</time>
      </trkpt>
      <trkpt lat="42.6588" lon="-8.63643">
        <ele>144.82</ele>
        <time>2019-06-07T07:37:07Z</time>
      </trkpt>
      <trkpt lat="42.65884" lon="-8.6362">
        <ele>145.3</ele>
        <time>2019-06-07T07:37:21Z</time>
      </trkpt>
      <trkpt lat="42.65885" lon="-8.63599">
        <ele>145.3</ele>
        <time>2019-06-07T07:37:34Z</time>
      </trkpt>
      <trkpt lat="42.65885" lon="-8.63598">
        <ele>145.3</ele>
        <time>2019-06-07T07:37:35Z</time>
      </trkpt>
      <trkpt lat="42.65885" lon="-8.63596">
        <ele>145.3</ele>
        <time>2019-06-07T07:37:36Z</time>
      </trkpt>
      <trkpt lat="42.6589" lon="-8.63566">
        <ele>144.82</ele>
        <time>2019-06-07T07:37:54Z</time>
      </trkpt>
      <trkpt lat="42.65897" lon="-8.63545">
        <ele>145.78</ele>
        <time>2019-06-07T07:38:08Z</time>
      </trkpt>
      <trkpt lat="42.65903" lon="-8.63539">
        <ele>146.26</ele>
        <time>2019-06-07T07:38:14Z</time>
      </trkpt>
      <trkpt lat="42.65922" lon="-8.63536">
        <ele>147.22</ele>
        <time>2019-06-07T07:38:30Z</time>
      </trkpt>
      <trkpt lat="42.65931" lon="-8.63533">
        <ele>148.18</ele>
        <time>2019-06-07T07:38:39Z</time>
      </trkpt>
      <trkpt lat="42.65941" lon="-8.63527">
        <ele>148.18</ele>
        <time>2019-06-07T07:38:49Z</time>
      </trkpt>
      <trkpt lat="42.65952" lon="-8.63522">
        <ele>147.7</ele>
        <time>2019-06-07T07:38:58Z</time>
      </trkpt>
      <trkpt lat="42.65958" lon="-8.63525">
        <ele>147.7</ele>
        <time>2019-06-07T07:39:03Z</time>
      </trkpt>
      <trkpt lat="42.65959" lon="-8.63526">
        <ele>147.7</ele>
        <time>2019-06-07T07:39:04Z</time>
      </trkpt>
      <trkpt lat="42.65974" lon="-8.63538">
        <ele>148.18</ele>
        <time>2019-06-07T07:39:18Z</time>
      </trkpt>
      <trkpt lat="42.65986" lon="-8.63546">
        <ele>147.7</ele>
        <time>2019-06-07T07:39:32Z</time>
      </trkpt>
      <trkpt lat="42.66006" lon="-8.6356">
        <ele>148.18</ele>
        <time>2019-06-07T07:39:50Z</time>
      </trkpt>
      <trkpt lat="42.66021" lon="-8.63571">
        <ele>148.18</ele>
        <time>2019-06-07T07:40:05Z</time>
      </trkpt>
      <trkpt lat="42.66038" lon="-8.63585">
        <ele>148.66</ele>
        <time>2019-06-07T07:40:22Z</time>
      </trkpt>
      <trkpt lat="42.66054" lon="-8.63602">
        <ele>149.62</ele>
        <time>2019-06-07T07:40:39Z</time>
      </trkpt>
      <trkpt lat="42.66064" lon="-8.63609">
        <ele>150.58</ele>
        <time>2019-06-07T07:40:49Z</time>
      </trkpt>
      <trkpt lat="42.66065" lon="-8.6361">
        <ele>150.58</ele>
        <time>2019-06-07T07:40:50Z</time>
      </trkpt>
      <trkpt lat="42.66067" lon="-8.6361">
        <ele>150.58</ele>
        <time>2019-06-07T07:40:51Z</time>
      </trkpt>
      <trkpt lat="42.66068" lon="-8.63611">
        <ele>150.58</ele>
        <time>2019-06-07T07:40:52Z</time>
      </trkpt>
      <trkpt lat="42.66069" lon="-8.63612">
        <ele>151.06</ele>
        <time>2019-06-07T07:40:53Z</time>
      </trkpt>
      <trkpt lat="42.6607" lon="-8.63613">
        <ele>151.06</ele>
        <time>2019-06-07T07:40:54Z</time>
      </trkpt>
      <trkpt lat="42.66072" lon="-8.63613">
        <ele>150.58</ele>
        <time>2019-06-07T07:40:55Z</time>
      </trkpt>
      <trkpt lat="42.66073" lon="-8.63615">
        <ele>150.58</ele>
        <time>2019-06-07T07:40:56Z</time>
      </trkpt>
      <trkpt lat="42.66074" lon="-8.63616">
        <ele>150.58</ele>
        <time>2019-06-07T07:40:57Z</time>
      </trkpt>
      <trkpt lat="42.66075" lon="-8.63617">
        <ele>150.58</ele>
        <time>2019-06-07T07:40:58Z</time>
      </trkpt>
      <trkpt lat="42.66076" lon="-8.63618">
        <ele>150.58</ele>
        <time>2019-06-07T07:40:59Z</time>
      </trkpt>
      <trkpt lat="42.66085" lon="-8.63627">
        <ele>149.62</ele>
        <time>2019-06-07T07:41:10Z</time>
      </trkpt>
      <trkpt lat="42.66088" lon="-8.63626">
        <ele>149.62</ele>
        <time>2019-06-07T07:41:28Z</time>
      </trkpt>
      <trkpt lat="42.66092" lon="-8.63631">
        <ele>150.1</ele>
        <time>2019-06-07T07:41:43Z</time>
      </trkpt>
      <trkpt lat="42.66087" lon="-8.63632">
        <ele>150.1</ele>
        <time>2019-06-07T07:42:00Z</time>
      </trkpt>
      <trkpt lat="42.66087" lon="-8.63635">
        <ele>149.62</ele>
        <time>2019-06-07T07:42:16Z</time>
      </trkpt>
      <trkpt lat="42.66087" lon="-8.63634">
        <ele>150.1</ele>
        <time>2019-06-07T07:42:32Z</time>
      </trkpt>
      <trkpt lat="42.66092" lon="-8.63632">
        <ele>150.1</ele>
        <time>2019-06-07T07:42:42Z</time>
      </trkpt>
      <trkpt lat="42.66101" lon="-8.63639">
        <ele>150.1</ele>
        <time>2019-06-07T07:42:51Z</time>
      </trkpt>
      <trkpt lat="42.66115" lon="-8.63646">
        <ele>150.1</ele>
        <time>2019-06-07T07:43:01Z</time>
      </trkpt>
      <trkpt lat="42.66123" lon="-8.63647">
        <ele>150.1</ele>
        <time>2019-06-07T07:43:07Z</time>
      </trkpt>
      <trkpt lat="42.66125" lon="-8.63647">
        <ele>149.62</ele>
        <time>2019-06-07T07:43:08Z</time>
      </trkpt>
      <trkpt lat="42.66132" lon="-8.63647">
        <ele>149.14</ele>
        <time>2019-06-07T07:43:14Z</time>
      </trkpt>
      <trkpt lat="42.66135" lon="-8.63646">
        <ele>149.62</ele>
        <time>2019-06-07T07:43:17Z</time>
      </trkpt>
      <trkpt lat="42.66137" lon="-8.63645">
        <ele>149.62</ele>
        <time>2019-06-07T07:43:18Z</time>
      </trkpt>
      <trkpt lat="42.66139" lon="-8.63645">
        <ele>150.1</ele>
        <time>2019-06-07T07:43:20Z</time>
      </trkpt>
      <trkpt lat="42.66142" lon="-8.63643">
        <ele>150.1</ele>
        <time>2019-06-07T07:43:23Z</time>
      </trkpt>
      <trkpt lat="42.66148" lon="-8.63638">
        <ele>149.62</ele>
        <time>2019-06-07T07:43:29Z</time>
      </trkpt>
      <trkpt lat="42.66155" lon="-8.63632">
        <ele>149.14</ele>
        <time>2019-06-07T07:43:35Z</time>
      </trkpt>
      <trkpt lat="42.66169" lon="-8.63614">
        <ele>149.14</ele>
        <time>2019-06-07T07:43:49Z</time>
      </trkpt>
      <trkpt lat="42.66172" lon="-8.63612">
        <ele>149.62</ele>
        <time>2019-06-07T07:43:51Z</time>
      </trkpt>
      <trkpt lat="42.66173" lon="-8.63611">
        <ele>149.14</ele>
        <time>2019-06-07T07:43:52Z</time>
      </trkpt>
      <trkpt lat="42.66174" lon="-8.63609">
        <ele>149.62</ele>
        <time>2019-06-07T07:43:53Z</time>
      </trkpt>
      <trkpt lat="42.66175" lon="-8.63608">
        <ele>149.62</ele>
        <time>2019-06-07T07:43:54Z</time>
      </trkpt>
      <trkpt lat="42.66178" lon="-8.63602">
        <ele>148.66</ele>
        <time>2019-06-07T07:43:59Z</time>
      </trkpt>
      <trkpt lat="42.66182" lon="-8.63595">
        <ele>149.14</ele>
        <time>2019-06-07T07:44:04Z</time>
      </trkpt>
      <trkpt lat="42.66183" lon="-8.63594">
        <ele>148.18</ele>
        <time>2019-06-07T07:44:05Z</time>
      </trkpt>
      <trkpt lat="42.66184" lon="-8.63593">
        <ele>148.66</ele>
        <time>2019-06-07T07:44:06Z</time>
      </trkpt>
      <trkpt lat="42.66193" lon="-8.63579">
        <ele>147.22</ele>
        <time>2019-06-07T07:44:18Z</time>
      </trkpt>
      <trkpt lat="42.66197" lon="-8.63571">
        <ele>146.74</ele>
        <time>2019-06-07T07:44:24Z</time>
      </trkpt>
      <trkpt lat="42.66198" lon="-8.6357">
        <ele>146.26</ele>
        <time>2019-06-07T07:44:25Z</time>
      </trkpt>
      <trkpt lat="42.66212" lon="-8.63552">
        <ele>144.82</ele>
        <time>2019-06-07T07:44:39Z</time>
      </trkpt>
      <trkpt lat="42.66214" lon="-8.6355">
        <ele>143.85</ele>
        <time>2019-06-07T07:44:41Z</time>
      </trkpt>
      <trkpt lat="42.66216" lon="-8.63549">
        <ele>143.37</ele>
        <time>2019-06-07T07:44:42Z</time>
      </trkpt>
      <trkpt lat="42.66233" lon="-8.63535">
        <ele>141.45</ele>
        <time>2019-06-07T07:44:57Z</time>
      </trkpt>
      <trkpt lat="42.66248" lon="-8.63525">
        <ele>138.57</ele>
        <time>2019-06-07T07:45:10Z</time>
      </trkpt>
      <trkpt lat="42.66249" lon="-8.63525">
        <ele>138.57</ele>
        <time>2019-06-07T07:45:11Z</time>
      </trkpt>
      <trkpt lat="42.6625" lon="-8.63525">
        <ele>138.57</ele>
        <time>2019-06-07T07:45:12Z</time>
      </trkpt>
      <trkpt lat="42.66263" lon="-8.63513">
        <ele>136.16</ele>
        <time>2019-06-07T07:45:26Z</time>
      </trkpt>
      <trkpt lat="42.66264" lon="-8.63509">
        <ele>136.16</ele>
        <time>2019-06-07T07:45:28Z</time>
      </trkpt>
      <trkpt lat="42.66268" lon="-8.63504">
        <ele>135.68</ele>
        <time>2019-06-07T07:45:43Z</time>
      </trkpt>
      <trkpt lat="42.66277" lon="-8.63492">
        <ele>133.28</ele>
        <time>2019-06-07T07:45:58Z</time>
      </trkpt>
      <trkpt lat="42.66281" lon="-8.63489">
        <ele>132.32</ele>
        <time>2019-06-07T07:46:02Z</time>
      </trkpt>
      <trkpt lat="42.66282" lon="-8.63488">
        <ele>131.84</ele>
        <time>2019-06-07T07:46:03Z</time>
      </trkpt>
      <trkpt lat="42.66286" lon="-8.63483">
        <ele>131.84</ele>
        <time>2019-06-07T07:46:07Z</time>
      </trkpt>
      <trkpt lat="42.66299" lon="-8.63465">
        <ele>130.88</ele>
        <time>2019-06-07T07:46:21Z</time>
      </trkpt>
      <trkpt lat="42.66314" lon="-8.63454">
        <ele>130.4</ele>
        <time>2019-06-07T07:46:35Z</time>
      </trkpt>
      <trkpt lat="42.66318" lon="-8.63451">
        <ele>130.88</ele>
        <time>2019-06-07T07:46:39Z</time>
      </trkpt>
      <trkpt lat="42.66319" lon="-8.63449">
        <ele>130.88</ele>
        <time>2019-06-07T07:46:40Z</time>
      </trkpt>
      <trkpt lat="42.6632" lon="-8.63448">
        <ele>130.4</ele>
        <time>2019-06-07T07:46:41Z</time>
      </trkpt>
      <trkpt lat="42.66335" lon="-8.6343">
        <ele>130.88</ele>
        <time>2019-06-07T07:46:57Z</time>
      </trkpt>
      <trkpt lat="42.66355" lon="-8.63416">
        <ele>131.84</ele>
        <time>2019-06-07T07:47:13Z</time>
      </trkpt>
      <trkpt lat="42.66368" lon="-8.63407">
        <ele>132.32</ele>
        <time>2019-06-07T07:47:26Z</time>
      </trkpt>
      <trkpt lat="42.6638" lon="-8.63396">
        <ele>133.76</ele>
        <time>2019-06-07T07:47:39Z</time>
      </trkpt>
      <trkpt lat="42.66399" lon="-8.63386">
        <ele>134.24</ele>
        <time>2019-06-07T07:47:55Z</time>
      </trkpt>
      <trkpt lat="42.66404" lon="-8.63384">
        <ele>134.72</ele>
        <time>2019-06-07T07:48:09Z</time>
      </trkpt>
      <trkpt lat="42.66408" lon="-8.63381">
        <ele>134.72</ele>
        <time>2019-06-07T07:48:13Z</time>
      </trkpt>
      <trkpt lat="42.6641" lon="-8.63381">
        <ele>134.72</ele>
        <time>2019-06-07T07:48:14Z</time>
      </trkpt>
      <trkpt lat="42.66411" lon="-8.6338">
        <ele>134.72</ele>
        <time>2019-06-07T07:48:15Z</time>
      </trkpt>
      <trkpt lat="42.66412" lon="-8.6338">
        <ele>134.72</ele>
        <time>2019-06-07T07:48:16Z</time>
      </trkpt>
      <trkpt lat="42.66413" lon="-8.63379">
        <ele>135.2</ele>
        <time>2019-06-07T07:48:17Z</time>
      </trkpt>
      <trkpt lat="42.66431" lon="-8.6337">
        <ele>135.68</ele>
        <time>2019-06-07T07:48:33Z</time>
      </trkpt>
      <trkpt lat="42.66449" lon="-8.63361">
        <ele>135.68</ele>
        <time>2019-06-07T07:48:48Z</time>
      </trkpt>
      <trkpt lat="42.66467" lon="-8.63352">
        <ele>135.68</ele>
        <time>2019-06-07T07:49:04Z</time>
      </trkpt>
      <trkpt lat="42.66478" lon="-8.63346">
        <ele>136.64</ele>
        <time>2019-06-07T07:49:14Z</time>
      </trkpt>
      <trkpt lat="42.66479" lon="-8.63346">
        <ele>136.64</ele>
        <time>2019-06-07T07:49:15Z</time>
      </trkpt>
      <trkpt lat="42.6648" lon="-8.63346">
        <ele>136.64</ele>
        <time>2019-06-07T07:49:16Z</time>
      </trkpt>
      <trkpt lat="42.66488" lon="-8.63344">
        <ele>136.16</ele>
        <time>2019-06-07T07:49:22Z</time>
      </trkpt>
      <trkpt lat="42.6649" lon="-8.63344">
        <ele>136.16</ele>
        <time>2019-06-07T07:49:23Z</time>
      </trkpt>
      <trkpt lat="42.66491" lon="-8.63343">
        <ele>136.16</ele>
        <time>2019-06-07T07:49:24Z</time>
      </trkpt>
      <trkpt lat="42.6651" lon="-8.63337">
        <ele>135.2</ele>
        <time>2019-06-07T07:49:40Z</time>
      </trkpt>
      <trkpt lat="42.66525" lon="-8.63334">
        <ele>134.72</ele>
        <time>2019-06-07T07:49:52Z</time>
      </trkpt>
      <trkpt lat="42.66529" lon="-8.63334">
        <ele>135.2</ele>
        <time>2019-06-07T07:49:55Z</time>
      </trkpt>
      <trkpt lat="42.6653" lon="-8.63333">
        <ele>135.2</ele>
        <time>2019-06-07T07:49:56Z</time>
      </trkpt>
      <trkpt lat="42.66548" lon="-8.63327">
        <ele>134.24</ele>
        <time>2019-06-07T07:50:10Z</time>
      </trkpt>
      <trkpt lat="42.66567" lon="-8.63323">
        <ele>133.28</ele>
        <time>2019-06-07T07:50:26Z</time>
      </trkpt>
      <trkpt lat="42.66588" lon="-8.63321">
        <ele>132.8</ele>
        <time>2019-06-07T07:50:42Z</time>
      </trkpt>
      <trkpt lat="42.66595" lon="-8.63321">
        <ele>133.28</ele>
        <time>2019-06-07T07:50:48Z</time>
      </trkpt>
      <trkpt lat="42.66597" lon="-8.6332">
        <ele>132.8</ele>
        <time>2019-06-07T07:50:49Z</time>
      </trkpt>
      <trkpt lat="42.66598" lon="-8.6332">
        <ele>133.28</ele>
        <time>2019-06-07T07:50:50Z</time>
      </trkpt>
      <trkpt lat="42.66599" lon="-8.6332">
        <ele>133.28</ele>
        <time>2019-06-07T07:50:51Z</time>
      </trkpt>
      <trkpt lat="42.666" lon="-8.63319">
        <ele>133.28</ele>
        <time>2019-06-07T07:50:52Z</time>
      </trkpt>
      <trkpt lat="42.66602" lon="-8.63319">
        <ele>133.28</ele>
        <time>2019-06-07T07:50:53Z</time>
      </trkpt>
      <trkpt lat="42.66603" lon="-8.63318">
        <ele>132.8</ele>
        <time>2019-06-07T07:50:54Z</time>
      </trkpt>
      <trkpt lat="42.66604" lon="-8.63318">
        <ele>133.28</ele>
        <time>2019-06-07T07:50:55Z</time>
      </trkpt>
      <trkpt lat="42.66605" lon="-8.63318">
        <ele>133.28</ele>
        <time>2019-06-07T07:50:56Z</time>
      </trkpt>
      <trkpt lat="42.66624" lon="-8.63315">
        <ele>133.28</ele>
        <time>2019-06-07T07:51:12Z</time>
      </trkpt>
      <trkpt lat="42.66645" lon="-8.63313">
        <ele>133.76</ele>
        <time>2019-06-07T07:51:29Z</time>
      </trkpt>
      <trkpt lat="42.66656" lon="-8.63313">
        <ele>134.24</ele>
        <time>2019-06-07T07:51:38Z</time>
      </trkpt>
      <trkpt lat="42.66658" lon="-8.63313">
        <ele>134.24</ele>
        <time>2019-06-07T07:51:39Z</time>
      </trkpt>
      <trkpt lat="42.66659" lon="-8.63313">
        <ele>134.72</ele>
        <time>2019-06-07T07:51:40Z</time>
      </trkpt>
      <trkpt lat="42.6666" lon="-8.63313">
        <ele>134.72</ele>
        <time>2019-06-07T07:51:41Z</time>
      </trkpt>
      <trkpt lat="42.66661" lon="-8.63312">
        <ele>134.72</ele>
        <time>2019-06-07T07:51:42Z</time>
      </trkpt>
      <trkpt lat="42.66662" lon="-8.63312">
        <ele>134.24</ele>
        <time>2019-06-07T07:51:43Z</time>
      </trkpt>
      <trkpt lat="42.66682" lon="-8.63311">
        <ele>135.68</ele>
        <time>2019-06-07T07:51:59Z</time>
      </trkpt>
      <trkpt lat="42.66691" lon="-8.63311">
        <ele>136.16</ele>
        <time>2019-06-07T07:52:07Z</time>
      </trkpt>
      <trkpt lat="42.66692" lon="-8.63311">
        <ele>136.16</ele>
        <time>2019-06-07T07:52:08Z</time>
      </trkpt>
      <trkpt lat="42.6671" lon="-8.63312">
        <ele>137.13</ele>
        <time>2019-06-07T07:52:23Z</time>
      </trkpt>
      <trkpt lat="42.66723" lon="-8.63313">
        <ele>137.13</ele>
        <time>2019-06-07T07:52:36Z</time>
      </trkpt>
      <trkpt lat="42.66725" lon="-8.63315">
        <ele>136.64</ele>
        <time>2019-06-07T07:52:38Z</time>
      </trkpt>
      <trkpt lat="42.66727" lon="-8.63325">
        <ele>137.13</ele>
        <time>2019-06-07T07:52:46Z</time>
      </trkpt>
      <trkpt lat="42.66727" lon="-8.63327">
        <ele>136.64</ele>
        <time>2019-06-07T07:52:47Z</time>
      </trkpt>
      <trkpt lat="42.66725" lon="-8.6335">
        <ele>136.16</ele>
        <time>2019-06-07T07:53:01Z</time>
      </trkpt>
      <trkpt lat="42.66722" lon="-8.63376">
        <ele>136.64</ele>
        <time>2019-06-07T07:53:17Z</time>
      </trkpt>
      <trkpt lat="42.66723" lon="-8.63377">
        <ele>136.64</ele>
        <time>2019-06-07T07:53:18Z</time>
      </trkpt>
      <trkpt lat="42.66724" lon="-8.63378">
        <ele>136.64</ele>
        <time>2019-06-07T07:53:19Z</time>
      </trkpt>
      <trkpt lat="42.66738" lon="-8.63378">
        <ele>135.68</ele>
        <time>2019-06-07T07:53:34Z</time>
      </trkpt>
      <trkpt lat="42.66752" lon="-8.6338">
        <ele>134.72</ele>
        <time>2019-06-07T07:53:47Z</time>
      </trkpt>
      <trkpt lat="42.66771" lon="-8.6338">
        <ele>132.32</ele>
        <time>2019-06-07T07:54:03Z</time>
      </trkpt>
      <trkpt lat="42.66791" lon="-8.63382">
        <ele>130.88</ele>
        <time>2019-06-07T07:54:18Z</time>
      </trkpt>
      <trkpt lat="42.66808" lon="-8.63384">
        <ele>129.43</ele>
        <time>2019-06-07T07:54:32Z</time>
      </trkpt>
      <trkpt lat="42.66824" lon="-8.63384">
        <ele>127.99</ele>
        <time>2019-06-07T07:54:46Z</time>
      </trkpt>
      <trkpt lat="42.66844" lon="-8.63386">
        <ele>127.51</ele>
        <time>2019-06-07T07:55:00Z</time>
      </trkpt>
      <trkpt lat="42.66865" lon="-8.63385">
        <ele>125.59</ele>
        <time>2019-06-07T07:55:16Z</time>
      </trkpt>
      <trkpt lat="42.66871" lon="-8.63384">
        <ele>125.59</ele>
        <time>2019-06-07T07:55:28Z</time>
      </trkpt>
      <trkpt lat="42.66873" lon="-8.63384">
        <ele>125.11</ele>
        <time>2019-06-07T07:55:30Z</time>
      </trkpt>
      <trkpt lat="42.66875" lon="-8.63383">
        <ele>125.11</ele>
        <time>2019-06-07T07:55:32Z</time>
      </trkpt>
      <trkpt lat="42.66895" lon="-8.63384">
        <ele>123.67</ele>
        <time>2019-06-07T07:55:48Z</time>
      </trkpt>
      <trkpt lat="42.66909" lon="-8.63386">
        <ele>123.19</ele>
        <time>2019-06-07T07:56:00Z</time>
      </trkpt>
      <trkpt lat="42.6692" lon="-8.63385">
        <ele>123.19</ele>
        <time>2019-06-07T07:56:08Z</time>
      </trkpt>
      <trkpt lat="42.66921" lon="-8.63386">
        <ele>122.71</ele>
        <time>2019-06-07T07:56:09Z</time>
      </trkpt>
      <trkpt lat="42.66922" lon="-8.63386">
        <ele>122.22</ele>
        <time>2019-06-07T07:56:10Z</time>
      </trkpt>
      <trkpt lat="42.66929" lon="-8.63385">
        <ele>122.22</ele>
        <time>2019-06-07T07:56:16Z</time>
      </trkpt>
      <trkpt lat="42.66931" lon="-8.63385">
        <ele>121.74</ele>
        <time>2019-06-07T07:56:17Z</time>
      </trkpt>
      <trkpt lat="42.66932" lon="-8.63385">
        <ele>121.74</ele>
        <time>2019-06-07T07:56:18Z</time>
      </trkpt>
      <trkpt lat="42.66937" lon="-8.63385">
        <ele>121.74</ele>
        <time>2019-06-07T07:56:22Z</time>
      </trkpt>
      <trkpt lat="42.66938" lon="-8.63384">
        <ele>120.78</ele>
        <time>2019-06-07T07:56:23Z</time>
      </trkpt>
      <trkpt lat="42.66939" lon="-8.63384">
        <ele>121.26</ele>
        <time>2019-06-07T07:56:24Z</time>
      </trkpt>
      <trkpt lat="42.66958" lon="-8.6338">
        <ele>120.3</ele>
        <time>2019-06-07T07:56:38Z</time>
      </trkpt>
      <trkpt lat="42.66974" lon="-8.63379">
        <ele>119.34</ele>
        <time>2019-06-07T07:56:51Z</time>
      </trkpt>
      <trkpt lat="42.66983" lon="-8.6338">
        <ele>118.86</ele>
        <time>2019-06-07T07:57:04Z</time>
      </trkpt>
      <trkpt lat="42.66989" lon="-8.63378">
        <ele>118.86</ele>
        <time>2019-06-07T07:57:20Z</time>
      </trkpt>
      <trkpt lat="42.66997" lon="-8.63377">
        <ele>118.86</ele>
        <time>2019-06-07T07:57:26Z</time>
      </trkpt>
      <trkpt lat="42.67018" lon="-8.63373">
        <ele>117.9</ele>
        <time>2019-06-07T07:57:42Z</time>
      </trkpt>
      <trkpt lat="42.67027" lon="-8.63369">
        <ele>117.42</ele>
        <time>2019-06-07T07:57:51Z</time>
      </trkpt>
      <trkpt lat="42.67028" lon="-8.63369">
        <ele>117.42</ele>
        <time>2019-06-07T07:57:52Z</time>
      </trkpt>
      <trkpt lat="42.67047" lon="-8.63361">
        <ele>116.94</ele>
        <time>2019-06-07T07:58:07Z</time>
      </trkpt>
      <trkpt lat="42.67061" lon="-8.63355">
        <ele>116.94</ele>
        <time>2019-06-07T07:58:18Z</time>
      </trkpt>
      <trkpt lat="42.6708" lon="-8.63348">
        <ele>116.46</ele>
        <time>2019-06-07T07:58:33Z</time>
      </trkpt>
      <trkpt lat="42.67099" lon="-8.63343">
        <ele>114.05</ele>
        <time>2019-06-07T07:58:48Z</time>
      </trkpt>
      <trkpt lat="42.67116" lon="-8.6334">
        <ele>111.65</ele>
        <time>2019-06-07T07:59:02Z</time>
      </trkpt>
      <trkpt lat="42.67119" lon="-8.63338">
        <ele>112.13</ele>
        <time>2019-06-07T07:59:05Z</time>
      </trkpt>
      <trkpt lat="42.6712" lon="-8.63338">
        <ele>111.65</ele>
        <time>2019-06-07T07:59:06Z</time>
      </trkpt>
      <trkpt lat="42.67139" lon="-8.63335">
        <ele>111.17</ele>
        <time>2019-06-07T07:59:21Z</time>
      </trkpt>
      <trkpt lat="42.67151" lon="-8.6333">
        <ele>109.73</ele>
        <time>2019-06-07T07:59:38Z</time>
      </trkpt>
      <trkpt lat="42.67171" lon="-8.63324">
        <ele>109.25</ele>
        <time>2019-06-07T07:59:54Z</time>
      </trkpt>
      <trkpt lat="42.67189" lon="-8.63317">
        <ele>108.77</ele>
        <time>2019-06-07T08:00:09Z</time>
      </trkpt>
      <trkpt lat="42.67207" lon="-8.63316">
        <ele>108.77</ele>
        <time>2019-06-07T08:00:23Z</time>
      </trkpt>
      <trkpt lat="42.67221" lon="-8.63308">
        <ele>110.21</ele>
        <time>2019-06-07T08:00:37Z</time>
      </trkpt>
      <trkpt lat="42.6723" lon="-8.63305">
        <ele>110.69</ele>
        <time>2019-06-07T08:00:45Z</time>
      </trkpt>
      <trkpt lat="42.67232" lon="-8.63303">
        <ele>111.17</ele>
        <time>2019-06-07T08:00:48Z</time>
      </trkpt>
      <trkpt lat="42.67247" lon="-8.63302">
        <ele>113.57</ele>
        <time>2019-06-07T08:01:01Z</time>
      </trkpt>
      <trkpt lat="42.6726" lon="-8.633">
        <ele>115.5</ele>
        <time>2019-06-07T08:01:15Z</time>
      </trkpt>
      <trkpt lat="42.67268" lon="-8.633">
        <ele>116.94</ele>
        <time>2019-06-07T08:01:22Z</time>
      </trkpt>
      <trkpt lat="42.67285" lon="-8.63303">
        <ele>117.42</ele>
        <time>2019-06-07T08:01:37Z</time>
      </trkpt>
      <trkpt lat="42.67286" lon="-8.63303">
        <ele>116.94</ele>
        <time>2019-06-07T08:01:38Z</time>
      </trkpt>
      <trkpt lat="42.67302" lon="-8.63308">
        <ele>117.9</ele>
        <time>2019-06-07T08:01:52Z</time>
      </trkpt>
      <trkpt lat="42.67313" lon="-8.63313">
        <ele>117.9</ele>
        <time>2019-06-07T08:02:06Z</time>
      </trkpt>
      <trkpt lat="42.67319" lon="-8.63319">
        <ele>117.42</ele>
        <time>2019-06-07T08:02:23Z</time>
      </trkpt>
      <trkpt lat="42.67319" lon="-8.63322">
        <ele>117.9</ele>
        <time>2019-06-07T08:02:50Z</time>
      </trkpt>
      <trkpt lat="42.67324" lon="-8.63317">
        <ele>117.9</ele>
        <time>2019-06-07T08:03:18Z</time>
      </trkpt>
      <trkpt lat="42.67335" lon="-8.63321">
        <ele>117.9</ele>
        <time>2019-06-07T08:03:35Z</time>
      </trkpt>
      <trkpt lat="42.67348" lon="-8.63322">
        <ele>118.38</ele>
        <time>2019-06-07T08:03:49Z</time>
      </trkpt>
      <trkpt lat="42.67364" lon="-8.63324">
        <ele>118.38</ele>
        <time>2019-06-07T08:04:06Z</time>
      </trkpt>
      <trkpt lat="42.67386" lon="-8.63325">
        <ele>118.38</ele>
        <time>2019-06-07T08:04:21Z</time>
      </trkpt>
      <trkpt lat="42.67409" lon="-8.63324">
        <ele>118.86</ele>
        <time>2019-06-07T08:04:38Z</time>
      </trkpt>
      <trkpt lat="42.67423" lon="-8.63324">
        <ele>119.82</ele>
        <time>2019-06-07T08:04:51Z</time>
      </trkpt>
      <trkpt lat="42.67432" lon="-8.63328">
        <ele>120.3</ele>
        <time>2019-06-07T08:05:04Z</time>
      </trkpt>
      <trkpt lat="42.67445" lon="-8.63334">
        <ele>121.74</ele>
        <time>2019-06-07T08:05:17Z</time>
      </trkpt>
      <trkpt lat="42.67454" lon="-8.63339">
        <ele>122.71</ele>
        <time>2019-06-07T08:05:23Z</time>
      </trkpt>
      <trkpt lat="42.67469" lon="-8.63354">
        <ele>123.67</ele>
        <time>2019-06-07T08:05:35Z</time>
      </trkpt>
      <trkpt lat="42.67469" lon="-8.63361">
        <ele>123.67</ele>
        <time>2019-06-07T08:05:39Z</time>
      </trkpt>
      <trkpt lat="42.67472" lon="-8.63374">
        <ele>123.67</ele>
        <time>2019-06-07T08:05:46Z</time>
      </trkpt>
      <trkpt lat="42.67472" lon="-8.63375">
        <ele>123.67</ele>
        <time>2019-06-07T08:05:47Z</time>
      </trkpt>
      <trkpt lat="42.67477" lon="-8.63395">
        <ele>124.63</ele>
        <time>2019-06-07T08:05:59Z</time>
      </trkpt>
      <trkpt lat="42.67478" lon="-8.63414">
        <ele>124.63</ele>
        <time>2019-06-07T08:06:12Z</time>
      </trkpt>
      <trkpt lat="42.67479" lon="-8.6342">
        <ele>125.11</ele>
        <time>2019-06-07T08:06:15Z</time>
      </trkpt>
      <trkpt lat="42.6748" lon="-8.63421">
        <ele>125.59</ele>
        <time>2019-06-07T08:06:16Z</time>
      </trkpt>
      <trkpt lat="42.6748" lon="-8.63425">
        <ele>125.11</ele>
        <time>2019-06-07T08:06:18Z</time>
      </trkpt>
      <trkpt lat="42.67483" lon="-8.63443">
        <ele>125.59</ele>
        <time>2019-06-07T08:06:30Z</time>
      </trkpt>
      <trkpt lat="42.67484" lon="-8.63457">
        <ele>126.07</ele>
        <time>2019-06-07T08:06:37Z</time>
      </trkpt>
      <trkpt lat="42.67486" lon="-8.63467">
        <ele>126.55</ele>
        <time>2019-06-07T08:06:43Z</time>
      </trkpt>
      <trkpt lat="42.67487" lon="-8.63472">
        <ele>127.03</ele>
        <time>2019-06-07T08:06:46Z</time>
      </trkpt>
      <trkpt lat="42.67488" lon="-8.63473">
        <ele>127.03</ele>
        <time>2019-06-07T08:06:47Z</time>
      </trkpt>
      <trkpt lat="42.67488" lon="-8.63476">
        <ele>126.55</ele>
        <time>2019-06-07T08:06:48Z</time>
      </trkpt>
      <trkpt lat="42.67488" lon="-8.63477">
        <ele>127.03</ele>
        <time>2019-06-07T08:06:49Z</time>
      </trkpt>
      <trkpt lat="42.6749" lon="-8.63494">
        <ele>127.51</ele>
        <time>2019-06-07T08:07:00Z</time>
      </trkpt>
      <trkpt lat="42.6749" lon="-8.63495">
        <ele>127.51</ele>
        <time>2019-06-07T08:07:01Z</time>
      </trkpt>
      <trkpt lat="42.6749" lon="-8.63497">
        <ele>127.51</ele>
        <time>2019-06-07T08:07:02Z</time>
      </trkpt>
      <trkpt lat="42.67491" lon="-8.63499">
        <ele>127.51</ele>
        <time>2019-06-07T08:07:03Z</time>
      </trkpt>
      <trkpt lat="42.67492" lon="-8.63501">
        <ele>127.99</ele>
        <time>2019-06-07T08:07:04Z</time>
      </trkpt>
      <trkpt lat="42.67492" lon="-8.63503">
        <ele>127.99</ele>
        <time>2019-06-07T08:07:05Z</time>
      </trkpt>
      <trkpt lat="42.67492" lon="-8.63505">
        <ele>127.99</ele>
        <time>2019-06-07T08:07:06Z</time>
      </trkpt>
      <trkpt lat="42.67493" lon="-8.63507">
        <ele>127.51</ele>
        <time>2019-06-07T08:07:07Z</time>
      </trkpt>
      <trkpt lat="42.67493" lon="-8.63508">
        <ele>127.51</ele>
        <time>2019-06-07T08:07:08Z</time>
      </trkpt>
      <trkpt lat="42.67496" lon="-8.63521">
        <ele>127.99</ele>
        <time>2019-06-07T08:07:17Z</time>
      </trkpt>
      <trkpt lat="42.67496" lon="-8.63523">
        <ele>127.99</ele>
        <time>2019-06-07T08:07:18Z</time>
      </trkpt>
      <trkpt lat="42.67497" lon="-8.63542">
        <ele>127.99</ele>
        <time>2019-06-07T08:07:30Z</time>
      </trkpt>
      <trkpt lat="42.675" lon="-8.63551">
        <ele>128.47</ele>
        <time>2019-06-07T08:07:50Z</time>
      </trkpt>
      <trkpt lat="42.67505" lon="-8.63569">
        <ele>127.99</ele>
        <time>2019-06-07T08:08:04Z</time>
      </trkpt>
      <trkpt lat="42.67507" lon="-8.63585">
        <ele>128.47</ele>
        <time>2019-06-07T08:08:18Z</time>
      </trkpt>
      <trkpt lat="42.67509" lon="-8.63592">
        <ele>128.47</ele>
        <time>2019-06-07T08:08:23Z</time>
      </trkpt>
      <trkpt lat="42.67512" lon="-8.63603">
        <ele>128.47</ele>
        <time>2019-06-07T08:08:30Z</time>
      </trkpt>
      <trkpt lat="42.67512" lon="-8.63605">
        <ele>128.47</ele>
        <time>2019-06-07T08:08:31Z</time>
      </trkpt>
      <trkpt lat="42.67514" lon="-8.63612">
        <ele>128.95</ele>
        <time>2019-06-07T08:08:36Z</time>
      </trkpt>
      <trkpt lat="42.67513" lon="-8.63621">
        <ele>128.95</ele>
        <time>2019-06-07T08:08:42Z</time>
      </trkpt>
      <trkpt lat="42.67513" lon="-8.63626">
        <ele>128.95</ele>
        <time>2019-06-07T08:08:45Z</time>
      </trkpt>
      <trkpt lat="42.67513" lon="-8.6363">
        <ele>129.43</ele>
        <time>2019-06-07T08:08:47Z</time>
      </trkpt>
      <trkpt lat="42.67513" lon="-8.63637">
        <ele>129.43</ele>
        <time>2019-06-07T08:08:52Z</time>
      </trkpt>
      <trkpt lat="42.67515" lon="-8.63651">
        <ele>129.92</ele>
        <time>2019-06-07T08:09:02Z</time>
      </trkpt>
      <trkpt lat="42.67518" lon="-8.63661">
        <ele>128.95</ele>
        <time>2019-06-07T08:09:21Z</time>
      </trkpt>
      <trkpt lat="42.67515" lon="-8.63664">
        <ele>128.95</ele>
        <time>2019-06-07T08:09:35Z</time>
      </trkpt>
      <trkpt lat="42.67518" lon="-8.63675">
        <ele>128.95</ele>
        <time>2019-06-07T08:09:57Z</time>
      </trkpt>
      <trkpt lat="42.67526" lon="-8.63675">
        <ele>128.95</ele>
        <time>2019-06-07T08:09:58Z</time>
      </trkpt>
      <trkpt lat="42.67538" lon="-8.6368">
        <ele>128.95</ele>
        <time>2019-06-07T08:10:04Z</time>
      </trkpt>
      <trkpt lat="42.67544" lon="-8.63699">
        <ele>128.47</ele>
        <time>2019-06-07T08:10:20Z</time>
      </trkpt>
      <trkpt lat="42.67554" lon="-8.63716">
        <ele>129.43</ele>
        <time>2019-06-07T08:10:35Z</time>
      </trkpt>
      <trkpt lat="42.67565" lon="-8.63734">
        <ele>129.43</ele>
        <time>2019-06-07T08:10:48Z</time>
      </trkpt>
      <trkpt lat="42.6757" lon="-8.63752">
        <ele>129.92</ele>
        <time>2019-06-07T08:10:59Z</time>
      </trkpt>
      <trkpt lat="42.67575" lon="-8.63767">
        <ele>129.92</ele>
        <time>2019-06-07T08:11:07Z</time>
      </trkpt>
      <trkpt lat="42.67577" lon="-8.63768">
        <ele>129.92</ele>
        <time>2019-06-07T08:11:08Z</time>
      </trkpt>
      <trkpt lat="42.67579" lon="-8.6377">
        <ele>129.43</ele>
        <time>2019-06-07T08:11:09Z</time>
      </trkpt>
      <trkpt lat="42.67582" lon="-8.63771">
        <ele>129.92</ele>
        <time>2019-06-07T08:11:10Z</time>
      </trkpt>
      <trkpt lat="42.67584" lon="-8.63773">
        <ele>129.43</ele>
        <time>2019-06-07T08:11:11Z</time>
      </trkpt>
      <trkpt lat="42.67593" lon="-8.63787">
        <ele>129.43</ele>
        <time>2019-06-07T08:11:22Z</time>
      </trkpt>
      <trkpt lat="42.67596" lon="-8.63793">
        <ele>129.92</ele>
        <time>2019-06-07T08:11:30Z</time>
      </trkpt>
      <trkpt lat="42.676" lon="-8.63798">
        <ele>129.92</ele>
        <time>2019-06-07T08:11:34Z</time>
      </trkpt>
      <trkpt lat="42.67605" lon="-8.63805">
        <ele>129.43</ele>
        <time>2019-06-07T08:11:40Z</time>
      </trkpt>
      <trkpt lat="42.67607" lon="-8.63808">
        <ele>129.43</ele>
        <time>2019-06-07T08:11:42Z</time>
      </trkpt>
      <trkpt lat="42.67608" lon="-8.63809">
        <ele>129.43</ele>
        <time>2019-06-07T08:11:43Z</time>
      </trkpt>
      <trkpt lat="42.67609" lon="-8.6381">
        <ele>129.43</ele>
        <time>2019-06-07T08:11:44Z</time>
      </trkpt>
      <trkpt lat="42.67619" lon="-8.63833">
        <ele>129.92</ele>
        <time>2019-06-07T08:11:58Z</time>
      </trkpt>
      <trkpt lat="42.67625" lon="-8.63843">
        <ele>129.92</ele>
        <time>2019-06-07T08:12:05Z</time>
      </trkpt>
      <trkpt lat="42.67628" lon="-8.63857">
        <ele>129.92</ele>
        <time>2019-06-07T08:12:18Z</time>
      </trkpt>
      <trkpt lat="42.67635" lon="-8.6385">
        <ele>129.43</ele>
        <time>2019-06-07T08:12:30Z</time>
      </trkpt>
      <trkpt lat="42.67636" lon="-8.63849">
        <ele>129.92</ele>
        <time>2019-06-07T08:12:40Z</time>
      </trkpt>
      <trkpt lat="42.67635" lon="-8.63849">
        <ele>129.43</ele>
        <time>2019-06-07T08:13:02Z</time>
      </trkpt>
      <trkpt lat="42.67635" lon="-8.63854">
        <ele>129.92</ele>
        <time>2019-06-07T08:13:40Z</time>
      </trkpt>
      <trkpt lat="42.67634" lon="-8.63856">
        <ele>130.4</ele>
        <time>2019-06-07T08:14:12Z</time>
      </trkpt>
      <trkpt lat="42.67632" lon="-8.63855">
        <ele>129.92</ele>
        <time>2019-06-07T08:14:37Z</time>
      </trkpt>
      <trkpt lat="42.67632" lon="-8.63856">
        <ele>130.4</ele>
        <time>2019-06-07T08:15:12Z</time>
      </trkpt>
      <trkpt lat="42.67638" lon="-8.63856">
        <ele>129.92</ele>
        <time>2019-06-07T08:15:40Z</time>
      </trkpt>
      <trkpt lat="42.67631" lon="-8.63863">
        <ele>130.4</ele>
        <time>2019-06-07T08:15:55Z</time>
      </trkpt>
      <trkpt lat="42.67631" lon="-8.63864">
        <ele>130.88</ele>
        <time>2019-06-07T08:15:56Z</time>
      </trkpt>
      <trkpt lat="42.67625" lon="-8.63879">
        <ele>130.4</ele>
        <time>2019-06-07T08:16:09Z</time>
      </trkpt>
      <trkpt lat="42.67624" lon="-8.63884">
        <ele>131.84</ele>
        <time>2019-06-07T08:16:12Z</time>
      </trkpt>
      <trkpt lat="42.67619" lon="-8.63903">
        <ele>132.32</ele>
        <time>2019-06-07T08:16:25Z</time>
      </trkpt>
      <trkpt lat="42.67612" lon="-8.63912">
        <ele>132.8</ele>
        <time>2019-06-07T08:16:37Z</time>
      </trkpt>
      <trkpt lat="42.67599" lon="-8.63908">
        <ele>132.8</ele>
        <time>2019-06-07T08:16:49Z</time>
      </trkpt>
      <trkpt lat="42.6759" lon="-8.63902">
        <ele>133.28</ele>
        <time>2019-06-07T08:17:00Z</time>
      </trkpt>
      <trkpt lat="42.67584" lon="-8.63904">
        <ele>133.28</ele>
        <time>2019-06-07T08:17:10Z</time>
      </trkpt>
      <trkpt lat="42.67586" lon="-8.63905">
        <ele>132.8</ele>
        <time>2019-06-07T08:17:29Z</time>
      </trkpt>
      <trkpt lat="42.67584" lon="-8.63908">
        <ele>131.36</ele>
        <time>2019-06-07T08:17:52Z</time>
      </trkpt>
      <trkpt lat="42.67587" lon="-8.63899">
        <ele>131.36</ele>
        <time>2019-06-07T08:18:15Z</time>
      </trkpt>
      <trkpt lat="42.67592" lon="-8.63889">
        <ele>132.32</ele>
        <time>2019-06-07T08:18:41Z</time>
      </trkpt>
      <trkpt lat="42.67591" lon="-8.63896">
        <ele>131.36</ele>
        <time>2019-06-07T08:19:08Z</time>
      </trkpt>
      <trkpt lat="42.67588" lon="-8.63896">
        <ele>131.84</ele>
        <time>2019-06-07T08:19:37Z</time>
      </trkpt>
      <trkpt lat="42.67588" lon="-8.63892">
        <ele>132.32</ele>
        <time>2019-06-07T08:20:12Z</time>
      </trkpt>
      <trkpt lat="42.67589" lon="-8.63897">
        <ele>132.32</ele>
        <time>2019-06-07T08:20:43Z</time>
      </trkpt>
      <trkpt lat="42.67586" lon="-8.63909">
        <ele>132.32</ele>
        <time>2019-06-07T08:21:08Z</time>
      </trkpt>
      <trkpt lat="42.67586" lon="-8.63905">
        <ele>131.84</ele>
        <time>2019-06-07T08:21:41Z</time>
      </trkpt>
      <trkpt lat="42.67583" lon="-8.63906">
        <ele>132.32</ele>
        <time>2019-06-07T08:22:09Z</time>
      </trkpt>
      <trkpt lat="42.67589" lon="-8.63895">
        <ele>132.32</ele>
        <time>2019-06-07T08:22:39Z</time>
      </trkpt>
      <trkpt lat="42.67586" lon="-8.63905">
        <ele>132.32</ele>
        <time>2019-06-07T08:23:11Z</time>
      </trkpt>
      <trkpt lat="42.67582" lon="-8.63906">
        <ele>132.8</ele>
        <time>2019-06-07T08:23:43Z</time>
      </trkpt>
      <trkpt lat="42.6758" lon="-8.63914">
        <ele>132.8</ele>
        <time>2019-06-07T08:24:07Z</time>
      </trkpt>
      <trkpt lat="42.67583" lon="-8.63905">
        <ele>133.28</ele>
        <time>2019-06-07T08:24:31Z</time>
      </trkpt>
      <trkpt lat="42.67587" lon="-8.63909">
        <ele>133.28</ele>
        <time>2019-06-07T08:25:02Z</time>
      </trkpt>
      <trkpt lat="42.67586" lon="-8.63909">
        <ele>133.76</ele>
        <time>2019-06-07T08:25:38Z</time>
      </trkpt>
      <trkpt lat="42.67584" lon="-8.63914">
        <ele>134.24</ele>
        <time>2019-06-07T08:26:11Z</time>
      </trkpt>
      <trkpt lat="42.67588" lon="-8.6391">
        <ele>134.72</ele>
        <time>2019-06-07T08:26:45Z</time>
      </trkpt>
      <trkpt lat="42.67587" lon="-8.63903">
        <ele>134.72</ele>
        <time>2019-06-07T08:27:15Z</time>
      </trkpt>
      <trkpt lat="42.67587" lon="-8.63905">
        <ele>135.2</ele>
        <time>2019-06-07T08:27:48Z</time>
      </trkpt>
      <trkpt lat="42.67586" lon="-8.63904">
        <ele>135.68</ele>
        <time>2019-06-07T08:28:14Z</time>
      </trkpt>
      <trkpt lat="42.67587" lon="-8.63908">
        <ele>135.68</ele>
        <time>2019-06-07T08:28:41Z</time>
      </trkpt>
      <trkpt lat="42.67584" lon="-8.63905">
        <ele>135.68</ele>
        <time>2019-06-07T08:29:10Z</time>
      </trkpt>
      <trkpt lat="42.67585" lon="-8.63901">
        <ele>135.2</ele>
        <time>2019-06-07T08:29:24Z</time>
      </trkpt>
      <trkpt lat="42.67585" lon="-8.63904">
        <ele>135.2</ele>
        <time>2019-06-07T08:29:42Z</time>
      </trkpt>
      <trkpt lat="42.67585" lon="-8.63905">
        <ele>135.68</ele>
        <time>2019-06-07T08:30:01Z</time>
      </trkpt>
      <trkpt lat="42.67585" lon="-8.63912">
        <ele>135.68</ele>
        <time>2019-06-07T08:30:21Z</time>
      </trkpt>
      <trkpt lat="42.6759" lon="-8.63914">
        <ele>135.68</ele>
        <time>2019-06-07T08:30:27Z</time>
      </trkpt>
      <trkpt lat="42.67598" lon="-8.63914">
        <ele>135.2</ele>
        <time>2019-06-07T08:30:35Z</time>
      </trkpt>
      <trkpt lat="42.67601" lon="-8.63914">
        <ele>134.72</ele>
        <time>2019-06-07T08:30:38Z</time>
      </trkpt>
      <trkpt lat="42.6761" lon="-8.63917">
        <ele>135.68</ele>
        <time>2019-06-07T08:30:45Z</time>
      </trkpt>
      <trkpt lat="42.67612" lon="-8.63917">
        <ele>135.68</ele>
        <time>2019-06-07T08:30:47Z</time>
      </trkpt>
      <trkpt lat="42.67622" lon="-8.6389">
        <ele>133.76</ele>
        <time>2019-06-07T08:31:03Z</time>
      </trkpt>
      <trkpt lat="42.67628" lon="-8.63868">
        <ele>133.28</ele>
        <time>2019-06-07T08:31:17Z</time>
      </trkpt>
      <trkpt lat="42.67632" lon="-8.63864">
        <ele>132.32</ele>
        <time>2019-06-07T08:31:21Z</time>
      </trkpt>
      <trkpt lat="42.67647" lon="-8.63864">
        <ele>132.8</ele>
        <time>2019-06-07T08:31:32Z</time>
      </trkpt>
      <trkpt lat="42.6766" lon="-8.6386">
        <ele>132.32</ele>
        <time>2019-06-07T08:31:44Z</time>
      </trkpt>
      <trkpt lat="42.67667" lon="-8.63855">
        <ele>132.32</ele>
        <time>2019-06-07T08:31:50Z</time>
      </trkpt>
      <trkpt lat="42.67669" lon="-8.63853">
        <ele>131.84</ele>
        <time>2019-06-07T08:31:52Z</time>
      </trkpt>
      <trkpt lat="42.67675" lon="-8.63849">
        <ele>131.84</ele>
        <time>2019-06-07T08:31:57Z</time>
      </trkpt>
      <trkpt lat="42.67686" lon="-8.63833">
        <ele>131.36</ele>
        <time>2019-06-07T08:32:10Z</time>
      </trkpt>
      <trkpt lat="42.67691" lon="-8.63826">
        <ele>131.36</ele>
        <time>2019-06-07T08:32:16Z</time>
      </trkpt>
      <trkpt lat="42.67695" lon="-8.63818">
        <ele>130.4</ele>
        <time>2019-06-07T08:32:22Z</time>
      </trkpt>
      <trkpt lat="42.67696" lon="-8.63812">
        <ele>130.4</ele>
        <time>2019-06-07T08:32:25Z</time>
      </trkpt>
      <trkpt lat="42.67698" lon="-8.63809">
        <ele>129.92</ele>
        <time>2019-06-07T08:32:31Z</time>
      </trkpt>
      <trkpt lat="42.677" lon="-8.63807">
        <ele>129.92</ele>
        <time>2019-06-07T08:32:33Z</time>
      </trkpt>
      <trkpt lat="42.67705" lon="-8.63796">
        <ele>128.95</ele>
        <time>2019-06-07T08:32:41Z</time>
      </trkpt>
      <trkpt lat="42.67707" lon="-8.63789">
        <ele>128.95</ele>
        <time>2019-06-07T08:32:45Z</time>
      </trkpt>
      <trkpt lat="42.67709" lon="-8.63777">
        <ele>127.99</ele>
        <time>2019-06-07T08:32:52Z</time>
      </trkpt>
      <trkpt lat="42.67712" lon="-8.63768">
        <ele>126.55</ele>
        <time>2019-06-07T08:32:59Z</time>
      </trkpt>
      <trkpt lat="42.67716" lon="-8.6375">
        <ele>125.11</ele>
        <time>2019-06-07T08:33:11Z</time>
      </trkpt>
      <trkpt lat="42.6772" lon="-8.63741">
        <ele>123.67</ele>
        <time>2019-06-07T08:33:26Z</time>
      </trkpt>
      <trkpt lat="42.67727" lon="-8.63723">
        <ele>121.74</ele>
        <time>2019-06-07T08:33:39Z</time>
      </trkpt>
      <trkpt lat="42.67735" lon="-8.63713">
        <ele>119.82</ele>
        <time>2019-06-07T08:33:49Z</time>
      </trkpt>
      <trkpt lat="42.67738" lon="-8.63713">
        <ele>119.34</ele>
        <time>2019-06-07T08:33:51Z</time>
      </trkpt>
      <trkpt lat="42.67749" lon="-8.63709">
        <ele>118.38</ele>
        <time>2019-06-07T08:34:00Z</time>
      </trkpt>
      <trkpt lat="42.6776" lon="-8.63708">
        <ele>117.42</ele>
        <time>2019-06-07T08:34:14Z</time>
      </trkpt>
      <trkpt lat="42.6776" lon="-8.63708">
        <ele>116.94</ele>
        <time>2019-06-07T08:34:15Z</time>
      </trkpt>
      <trkpt lat="42.67772" lon="-8.6371">
        <ele>114.05</ele>
        <time>2019-06-07T08:34:26Z</time>
      </trkpt>
      <trkpt lat="42.67786" lon="-8.63711">
        <ele>111.65</ele>
        <time>2019-06-07T08:34:39Z</time>
      </trkpt>
      <trkpt lat="42.67789" lon="-8.63711">
        <ele>111.65</ele>
        <time>2019-06-07T08:34:42Z</time>
      </trkpt>
      <trkpt lat="42.67793" lon="-8.63708">
        <ele>110.69</ele>
        <time>2019-06-07T08:34:47Z</time>
      </trkpt>
      <trkpt lat="42.67808" lon="-8.63704">
        <ele>109.25</ele>
        <time>2019-06-07T08:34:59Z</time>
      </trkpt>
      <trkpt lat="42.67811" lon="-8.63704">
        <ele>108.77</ele>
        <time>2019-06-07T08:35:01Z</time>
      </trkpt>
      <trkpt lat="42.6782" lon="-8.63699">
        <ele>106.84</ele>
        <time>2019-06-07T08:35:11Z</time>
      </trkpt>
      <trkpt lat="42.67822" lon="-8.637">
        <ele>106.84</ele>
        <time>2019-06-07T08:35:13Z</time>
      </trkpt>
      <trkpt lat="42.67826" lon="-8.63697">
        <ele>105.88</ele>
        <time>2019-06-07T08:35:18Z</time>
      </trkpt>
      <trkpt lat="42.67845" lon="-8.63695">
        <ele>103.96</ele>
        <time>2019-06-07T08:35:31Z</time>
      </trkpt>
      <trkpt lat="42.67861" lon="-8.63696">
        <ele>102.52</ele>
        <time>2019-06-07T08:35:45Z</time>
      </trkpt>
      <trkpt lat="42.67856" lon="-8.637">
        <ele>102.52</ele>
        <time>2019-06-07T08:36:13Z</time>
      </trkpt>
      <trkpt lat="42.67857" lon="-8.63701">
        <ele>102.04</ele>
        <time>2019-06-07T08:36:15Z</time>
      </trkpt>
      <trkpt lat="42.67874" lon="-8.63713">
        <ele>101.08</ele>
        <time>2019-06-07T08:36:30Z</time>
      </trkpt>
      <trkpt lat="42.67878" lon="-8.63729">
        <ele>99.15</ele>
        <time>2019-06-07T08:36:43Z</time>
      </trkpt>
      <trkpt lat="42.67883" lon="-8.63737">
        <ele>97.71</ele>
        <time>2019-06-07T08:36:51Z</time>
      </trkpt>
      <trkpt lat="42.67889" lon="-8.63742">
        <ele>97.23</ele>
        <time>2019-06-07T08:36:57Z</time>
      </trkpt>
      <trkpt lat="42.67895" lon="-8.63739">
        <ele>95.79</ele>
        <time>2019-06-07T08:37:02Z</time>
      </trkpt>
      <trkpt lat="42.67896" lon="-8.63736">
        <ele>95.31</ele>
        <time>2019-06-07T08:37:04Z</time>
      </trkpt>
      <trkpt lat="42.679" lon="-8.63729">
        <ele>94.35</ele>
        <time>2019-06-07T08:37:10Z</time>
      </trkpt>
      <trkpt lat="42.67906" lon="-8.63716">
        <ele>92.42</ele>
        <time>2019-06-07T08:37:19Z</time>
      </trkpt>
      <trkpt lat="42.67908" lon="-8.63716">
        <ele>92.42</ele>
        <time>2019-06-07T08:37:22Z</time>
      </trkpt>
      <trkpt lat="42.67914" lon="-8.6372">
        <ele>90.98</ele>
        <time>2019-06-07T08:37:27Z</time>
      </trkpt>
      <trkpt lat="42.67922" lon="-8.63732">
        <ele>89.06</ele>
        <time>2019-06-07T08:37:39Z</time>
      </trkpt>
      <trkpt lat="42.67934" lon="-8.63728">
        <ele>86.66</ele>
        <time>2019-06-07T08:37:52Z</time>
      </trkpt>
      <trkpt lat="42.67945" lon="-8.63716">
        <ele>84.25</ele>
        <time>2019-06-07T08:38:04Z</time>
      </trkpt>
      <trkpt lat="42.6795" lon="-8.63712">
        <ele>83.77</ele>
        <time>2019-06-07T08:38:09Z</time>
      </trkpt>
      <trkpt lat="42.67953" lon="-8.63709">
        <ele>82.81</ele>
        <time>2019-06-07T08:38:13Z</time>
      </trkpt>
      <trkpt lat="42.67963" lon="-8.63704">
        <ele>79.93</ele>
        <time>2019-06-07T08:38:25Z</time>
      </trkpt>
      <trkpt lat="42.67969" lon="-8.63703">
        <ele>79.45</ele>
        <time>2019-06-07T08:38:30Z</time>
      </trkpt>
      <trkpt lat="42.67973" lon="-8.63697">
        <ele>78.48</ele>
        <time>2019-06-07T08:38:35Z</time>
      </trkpt>
      <trkpt lat="42.67982" lon="-8.63689">
        <ele>77.04</ele>
        <time>2019-06-07T08:38:47Z</time>
      </trkpt>
      <trkpt lat="42.67982" lon="-8.63688">
        <ele>77.04</ele>
        <time>2019-06-07T08:38:48Z</time>
      </trkpt>
      <trkpt lat="42.67996" lon="-8.63681">
        <ele>76.56</ele>
        <time>2019-06-07T08:39:01Z</time>
      </trkpt>
      <trkpt lat="42.68001" lon="-8.63677">
        <ele>76.56</ele>
        <time>2019-06-07T08:39:09Z</time>
      </trkpt>
      <trkpt lat="42.68004" lon="-8.63672">
        <ele>75.6</ele>
        <time>2019-06-07T08:39:17Z</time>
      </trkpt>
      <trkpt lat="42.68013" lon="-8.63663">
        <ele>76.08</ele>
        <time>2019-06-07T08:39:32Z</time>
      </trkpt>
      <trkpt lat="42.6802" lon="-8.63657">
        <ele>74.64</ele>
        <time>2019-06-07T08:39:52Z</time>
      </trkpt>
      <trkpt lat="42.68027" lon="-8.63644">
        <ele>75.12</ele>
        <time>2019-06-07T08:40:06Z</time>
      </trkpt>
      <trkpt lat="42.68027" lon="-8.63643">
        <ele>75.12</ele>
        <time>2019-06-07T08:40:07Z</time>
      </trkpt>
      <trkpt lat="42.68029" lon="-8.63639">
        <ele>75.12</ele>
        <time>2019-06-07T08:40:10Z</time>
      </trkpt>
      <trkpt lat="42.68038" lon="-8.63627">
        <ele>73.2</ele>
        <time>2019-06-07T08:40:22Z</time>
      </trkpt>
      <trkpt lat="42.68041" lon="-8.63626">
        <ele>72.72</ele>
        <time>2019-06-07T08:40:25Z</time>
      </trkpt>
      <trkpt lat="42.68049" lon="-8.63619">
        <ele>71.76</ele>
        <time>2019-06-07T08:40:32Z</time>
      </trkpt>
      <trkpt lat="42.68054" lon="-8.63617">
        <ele>70.79</ele>
        <time>2019-06-07T08:40:36Z</time>
      </trkpt>
      <trkpt lat="42.68065" lon="-8.63609">
        <ele>68.87</ele>
        <time>2019-06-07T08:40:51Z</time>
      </trkpt>
      <trkpt lat="42.6807" lon="-8.63607">
        <ele>67.91</ele>
        <time>2019-06-07T08:40:58Z</time>
      </trkpt>
      <trkpt lat="42.68072" lon="-8.63607">
        <ele>67.91</ele>
        <time>2019-06-07T08:41:00Z</time>
      </trkpt>
      <trkpt lat="42.68076" lon="-8.63607">
        <ele>67.91</ele>
        <time>2019-06-07T08:41:04Z</time>
      </trkpt>
      <trkpt lat="42.68083" lon="-8.63608">
        <ele>66.95</ele>
        <time>2019-06-07T08:41:12Z</time>
      </trkpt>
      <trkpt lat="42.68089" lon="-8.6361">
        <ele>66.95</ele>
        <time>2019-06-07T08:41:20Z</time>
      </trkpt>
      <trkpt lat="42.681" lon="-8.63618">
        <ele>67.43</ele>
        <time>2019-06-07T08:41:33Z</time>
      </trkpt>
      <trkpt lat="42.6811" lon="-8.63622">
        <ele>68.39</ele>
        <time>2019-06-07T08:41:38Z</time>
      </trkpt>
      <trkpt lat="42.68119" lon="-8.63626">
        <ele>69.35</ele>
        <time>2019-06-07T08:41:45Z</time>
      </trkpt>
      <trkpt lat="42.6813" lon="-8.63634">
        <ele>70.31</ele>
        <time>2019-06-07T08:41:57Z</time>
      </trkpt>
      <trkpt lat="42.68142" lon="-8.63643">
        <ele>71.27</ele>
        <time>2019-06-07T08:42:10Z</time>
      </trkpt>
      <trkpt lat="42.68152" lon="-8.6365">
        <ele>72.24</ele>
        <time>2019-06-07T08:42:23Z</time>
      </trkpt>
      <trkpt lat="42.68166" lon="-8.63659">
        <ele>74.16</ele>
        <time>2019-06-07T08:42:37Z</time>
      </trkpt>
      <trkpt lat="42.6817" lon="-8.63661">
        <ele>74.16</ele>
        <time>2019-06-07T08:42:40Z</time>
      </trkpt>
      <trkpt lat="42.68175" lon="-8.63663">
        <ele>74.16</ele>
        <time>2019-06-07T08:42:44Z</time>
      </trkpt>
      <trkpt lat="42.68185" lon="-8.63665">
        <ele>72.72</ele>
        <time>2019-06-07T08:42:54Z</time>
      </trkpt>
      <trkpt lat="42.68202" lon="-8.63672">
        <ele>73.2</ele>
        <time>2019-06-07T08:43:08Z</time>
      </trkpt>
      <trkpt lat="42.68209" lon="-8.6368">
        <ele>75.12</ele>
        <time>2019-06-07T08:43:18Z</time>
      </trkpt>
      <trkpt lat="42.68218" lon="-8.63692">
        <ele>77.04</ele>
        <time>2019-06-07T08:43:31Z</time>
      </trkpt>
      <trkpt lat="42.68233" lon="-8.63701">
        <ele>78.97</ele>
        <time>2019-06-07T08:43:43Z</time>
      </trkpt>
      <trkpt lat="42.68248" lon="-8.63705">
        <ele>80.41</ele>
        <time>2019-06-07T08:43:56Z</time>
      </trkpt>
      <trkpt lat="42.68249" lon="-8.63705">
        <ele>80.41</ele>
        <time>2019-06-07T08:43:57Z</time>
      </trkpt>
      <trkpt lat="42.68261" lon="-8.63704">
        <ele>78.97</ele>
        <time>2019-06-07T08:44:12Z</time>
      </trkpt>
      <trkpt lat="42.6827" lon="-8.63707">
        <ele>77.52</ele>
        <time>2019-06-07T08:44:33Z</time>
      </trkpt>
      <trkpt lat="42.68284" lon="-8.63711">
        <ele>76.56</ele>
        <time>2019-06-07T08:44:46Z</time>
      </trkpt>
      <trkpt lat="42.68285" lon="-8.63711">
        <ele>76.08</ele>
        <time>2019-06-07T08:44:47Z</time>
      </trkpt>
      <trkpt lat="42.68301" lon="-8.63712">
        <ele>74.16</ele>
        <time>2019-06-07T08:45:01Z</time>
      </trkpt>
      <trkpt lat="42.68311" lon="-8.63709">
        <ele>72.24</ele>
        <time>2019-06-07T08:45:14Z</time>
      </trkpt>
      <trkpt lat="42.68319" lon="-8.637">
        <ele>70.79</ele>
        <time>2019-06-07T08:45:25Z</time>
      </trkpt>
      <trkpt lat="42.6833" lon="-8.6369">
        <ele>67.43</ele>
        <time>2019-06-07T08:45:38Z</time>
      </trkpt>
      <trkpt lat="42.68343" lon="-8.63679">
        <ele>65.51</ele>
        <time>2019-06-07T08:45:50Z</time>
      </trkpt>
      <trkpt lat="42.68353" lon="-8.63673">
        <ele>64.55</ele>
        <time>2019-06-07T08:46:00Z</time>
      </trkpt>
      <trkpt lat="42.68361" lon="-8.63672">
        <ele>63.1</ele>
        <time>2019-06-07T08:46:07Z</time>
      </trkpt>
      <trkpt lat="42.6837" lon="-8.63668">
        <ele>62.14</ele>
        <time>2019-06-07T08:46:15Z</time>
      </trkpt>
      <trkpt lat="42.68378" lon="-8.63667">
        <ele>60.7</ele>
        <time>2019-06-07T08:46:24Z</time>
      </trkpt>
      <trkpt lat="42.68391" lon="-8.63662">
        <ele>59.26</ele>
        <time>2019-06-07T08:46:38Z</time>
      </trkpt>
      <trkpt lat="42.68394" lon="-8.63662">
        <ele>58.78</ele>
        <time>2019-06-07T08:46:40Z</time>
      </trkpt>
      <trkpt lat="42.68407" lon="-8.63661">
        <ele>56.86</ele>
        <time>2019-06-07T08:46:50Z</time>
      </trkpt>
      <trkpt lat="42.68429" lon="-8.63659">
        <ele>56.86</ele>
        <time>2019-06-07T08:47:04Z</time>
      </trkpt>
      <trkpt lat="42.68443" lon="-8.63662">
        <ele>59.26</ele>
        <time>2019-06-07T08:47:16Z</time>
      </trkpt>
      <trkpt lat="42.68457" lon="-8.63667">
        <ele>60.7</ele>
        <time>2019-06-07T08:47:31Z</time>
      </trkpt>
      <trkpt lat="42.68468" lon="-8.63674">
        <ele>63.1</ele>
        <time>2019-06-07T08:47:45Z</time>
      </trkpt>
      <trkpt lat="42.6848" lon="-8.63681">
        <ele>63.58</ele>
        <time>2019-06-07T08:47:58Z</time>
      </trkpt>
      <trkpt lat="42.68481" lon="-8.63681">
        <ele>64.07</ele>
        <time>2019-06-07T08:47:59Z</time>
      </trkpt>
      <trkpt lat="42.68495" lon="-8.63687">
        <ele>65.03</ele>
        <time>2019-06-07T08:48:12Z</time>
      </trkpt>
      <trkpt lat="42.68498" lon="-8.63686">
        <ele>65.03</ele>
        <time>2019-06-07T08:48:32Z</time>
      </trkpt>
      <trkpt lat="42.68503" lon="-8.63688">
        <ele>65.51</ele>
        <time>2019-06-07T08:48:43Z</time>
      </trkpt>
      <trkpt lat="42.68513" lon="-8.63692">
        <ele>64.07</ele>
        <time>2019-06-07T08:48:53Z</time>
      </trkpt>
      <trkpt lat="42.68521" lon="-8.63696">
        <ele>63.58</ele>
        <time>2019-06-07T08:48:59Z</time>
      </trkpt>
      <trkpt lat="42.68533" lon="-8.63709">
        <ele>65.03</ele>
        <time>2019-06-07T08:49:12Z</time>
      </trkpt>
      <trkpt lat="42.68546" lon="-8.63718">
        <ele>64.07</ele>
        <time>2019-06-07T08:49:24Z</time>
      </trkpt>
      <trkpt lat="42.68562" lon="-8.63713">
        <ele>65.51</ele>
        <time>2019-06-07T08:49:39Z</time>
      </trkpt>
      <trkpt lat="42.68577" lon="-8.63715">
        <ele>66.47</ele>
        <time>2019-06-07T08:49:52Z</time>
      </trkpt>
      <trkpt lat="42.68584" lon="-8.63717">
        <ele>65.99</ele>
        <time>2019-06-07T08:50:05Z</time>
      </trkpt>
      <trkpt lat="42.68596" lon="-8.63725">
        <ele>67.43</ele>
        <time>2019-06-07T08:50:17Z</time>
      </trkpt>
      <trkpt lat="42.68607" lon="-8.63733">
        <ele>68.87</ele>
        <time>2019-06-07T08:50:29Z</time>
      </trkpt>
      <trkpt lat="42.68622" lon="-8.63742">
        <ele>70.31</ele>
        <time>2019-06-07T08:50:43Z</time>
      </trkpt>
      <trkpt lat="42.68636" lon="-8.63749">
        <ele>70.79</ele>
        <time>2019-06-07T08:50:56Z</time>
      </trkpt>
      <trkpt lat="42.68647" lon="-8.63753">
        <ele>71.76</ele>
        <time>2019-06-07T08:51:03Z</time>
      </trkpt>
      <trkpt lat="42.68661" lon="-8.63759">
        <ele>70.31</ele>
        <time>2019-06-07T08:51:17Z</time>
      </trkpt>
      <trkpt lat="42.68664" lon="-8.63772">
        <ele>69.35</ele>
        <time>2019-06-07T08:51:29Z</time>
      </trkpt>
      <trkpt lat="42.68665" lon="-8.63779">
        <ele>68.39</ele>
        <time>2019-06-07T08:51:35Z</time>
      </trkpt>
      <trkpt lat="42.68674" lon="-8.63782">
        <ele>67.91</ele>
        <time>2019-06-07T08:51:42Z</time>
      </trkpt>
      <trkpt lat="42.68687" lon="-8.63772">
        <ele>66.47</ele>
        <time>2019-06-07T08:51:56Z</time>
      </trkpt>
      <trkpt lat="42.68696" lon="-8.63766">
        <ele>64.55</ele>
        <time>2019-06-07T08:52:09Z</time>
      </trkpt>
      <trkpt lat="42.68713" lon="-8.63769">
        <ele>63.1</ele>
        <time>2019-06-07T08:52:22Z</time>
      </trkpt>
      <trkpt lat="42.68729" lon="-8.63774">
        <ele>61.66</ele>
        <time>2019-06-07T08:52:34Z</time>
      </trkpt>
      <trkpt lat="42.68748" lon="-8.63779">
        <ele>60.7</ele>
        <time>2019-06-07T08:52:46Z</time>
      </trkpt>
      <trkpt lat="42.6876" lon="-8.63775">
        <ele>60.22</ele>
        <time>2019-06-07T08:52:55Z</time>
      </trkpt>
      <trkpt lat="42.68769" lon="-8.63777">
        <ele>60.22</ele>
        <time>2019-06-07T08:53:02Z</time>
      </trkpt>
      <trkpt lat="42.68785" lon="-8.63782">
        <ele>59.26</ele>
        <time>2019-06-07T08:53:16Z</time>
      </trkpt>
      <trkpt lat="42.68791" lon="-8.63787">
        <ele>59.74</ele>
        <time>2019-06-07T08:53:40Z</time>
      </trkpt>
      <trkpt lat="42.68803" lon="-8.6379">
        <ele>59.74</ele>
        <time>2019-06-07T08:53:53Z</time>
      </trkpt>
      <trkpt lat="42.68806" lon="-8.63793">
        <ele>59.26</ele>
        <time>2019-06-07T08:53:58Z</time>
      </trkpt>
      <trkpt lat="42.68816" lon="-8.63809">
        <ele>59.74</ele>
        <time>2019-06-07T08:54:11Z</time>
      </trkpt>
      <trkpt lat="42.68821" lon="-8.63822">
        <ele>59.74</ele>
        <time>2019-06-07T08:54:23Z</time>
      </trkpt>
      <trkpt lat="42.68823" lon="-8.63831">
        <ele>59.26</ele>
        <time>2019-06-07T08:54:30Z</time>
      </trkpt>
      <trkpt lat="42.68827" lon="-8.63839">
        <ele>58.78</ele>
        <time>2019-06-07T08:54:36Z</time>
      </trkpt>
      <trkpt lat="42.68841" lon="-8.63849">
        <ele>57.82</ele>
        <time>2019-06-07T08:54:48Z</time>
      </trkpt>
      <trkpt lat="42.68849" lon="-8.63843">
        <ele>56.86</ele>
        <time>2019-06-07T08:54:59Z</time>
      </trkpt>
      <trkpt lat="42.68866" lon="-8.63833">
        <ele>57.34</ele>
        <time>2019-06-07T08:55:13Z</time>
      </trkpt>
      <trkpt lat="42.68879" lon="-8.63827">
        <ele>55.89</ele>
        <time>2019-06-07T08:55:27Z</time>
      </trkpt>
      <trkpt lat="42.68892" lon="-8.63818">
        <ele>53.49</ele>
        <time>2019-06-07T08:55:40Z</time>
      </trkpt>
      <trkpt lat="42.68897" lon="-8.63814">
        <ele>53.01</ele>
        <time>2019-06-07T08:55:44Z</time>
      </trkpt>
      <trkpt lat="42.68905" lon="-8.6381">
        <ele>51.57</ele>
        <time>2019-06-07T08:55:49Z</time>
      </trkpt>
      <trkpt lat="42.68922" lon="-8.63807">
        <ele>49.65</ele>
        <time>2019-06-07T08:56:02Z</time>
      </trkpt>
      <trkpt lat="42.68923" lon="-8.63807">
        <ele>48.68</ele>
        <time>2019-06-07T08:56:03Z</time>
      </trkpt>
      <trkpt lat="42.68929" lon="-8.63808">
        <ele>48.2</ele>
        <time>2019-06-07T08:56:09Z</time>
      </trkpt>
      <trkpt lat="42.68939" lon="-8.63814">
        <ele>47.24</ele>
        <time>2019-06-07T08:56:22Z</time>
      </trkpt>
      <trkpt lat="42.68948" lon="-8.63819">
        <ele>47.72</ele>
        <time>2019-06-07T08:56:43Z</time>
      </trkpt>
      <trkpt lat="42.68958" lon="-8.63826">
        <ele>48.68</ele>
        <time>2019-06-07T08:57:00Z</time>
      </trkpt>
      <trkpt lat="42.68976" lon="-8.63836">
        <ele>45.8</ele>
        <time>2019-06-07T08:57:14Z</time>
      </trkpt>
      <trkpt lat="42.68983" lon="-8.63837">
        <ele>45.32</ele>
        <time>2019-06-07T08:57:20Z</time>
      </trkpt>
      <trkpt lat="42.68993" lon="-8.63841">
        <ele>43.88</ele>
        <time>2019-06-07T08:57:31Z</time>
      </trkpt>
      <trkpt lat="42.69005" lon="-8.63843">
        <ele>42.92</ele>
        <time>2019-06-07T08:57:46Z</time>
      </trkpt>
      <trkpt lat="42.69021" lon="-8.6385">
        <ele>42.44</ele>
        <time>2019-06-07T08:58:00Z</time>
      </trkpt>
      <trkpt lat="42.69033" lon="-8.63862">
        <ele>42.44</ele>
        <time>2019-06-07T08:58:12Z</time>
      </trkpt>
      <trkpt lat="42.69042" lon="-8.63865">
        <ele>43.4</ele>
        <time>2019-06-07T08:58:23Z</time>
      </trkpt>
      <trkpt lat="42.69049" lon="-8.63864">
        <ele>43.4</ele>
        <time>2019-06-07T08:58:36Z</time>
      </trkpt>
      <trkpt lat="42.69053" lon="-8.63869">
        <ele>43.88</ele>
        <time>2019-06-07T08:58:54Z</time>
      </trkpt>
      <trkpt lat="42.69054" lon="-8.63867">
        <ele>42.92</ele>
        <time>2019-06-07T08:59:08Z</time>
      </trkpt>
      <trkpt lat="42.69055" lon="-8.63863">
        <ele>42.92</ele>
        <time>2019-06-07T08:59:42Z</time>
      </trkpt>
      <trkpt lat="42.69056" lon="-8.63866">
        <ele>43.88</ele>
        <time>2019-06-07T09:00:12Z</time>
      </trkpt>
      <trkpt lat="42.69054" lon="-8.63864">
        <ele>44.36</ele>
        <time>2019-06-07T09:00:25Z</time>
      </trkpt>
      <trkpt lat="42.69056" lon="-8.63858">
        <ele>44.36</ele>
        <time>2019-06-07T09:00:46Z</time>
      </trkpt>
      <trkpt lat="42.69056" lon="-8.63864">
        <ele>43.88</ele>
        <time>2019-06-07T09:01:07Z</time>
      </trkpt>
      <trkpt lat="42.69056" lon="-8.63862">
        <ele>44.36</ele>
        <time>2019-06-07T09:01:25Z</time>
      </trkpt>
      <trkpt lat="42.69051" lon="-8.63869">
        <ele>44.36</ele>
        <time>2019-06-07T09:01:41Z</time>
      </trkpt>
      <trkpt lat="42.69055" lon="-8.63877">
        <ele>44.84</ele>
        <time>2019-06-07T09:01:57Z</time>
      </trkpt>
      <trkpt lat="42.69049" lon="-8.6387">
        <ele>43.88</ele>
        <time>2019-06-07T09:02:11Z</time>
      </trkpt>
      <trkpt lat="42.69055" lon="-8.63859">
        <ele>44.36</ele>
        <time>2019-06-07T09:02:19Z</time>
      </trkpt>
      <trkpt lat="42.69058" lon="-8.6385">
        <ele>44.36</ele>
        <time>2019-06-07T09:02:29Z</time>
      </trkpt>
      <trkpt lat="42.69063" lon="-8.63837">
        <ele>43.4</ele>
        <time>2019-06-07T09:02:42Z</time>
      </trkpt>
      <trkpt lat="42.69063" lon="-8.63831">
        <ele>43.4</ele>
        <time>2019-06-07T09:02:54Z</time>
      </trkpt>
      <trkpt lat="42.69067" lon="-8.63827">
        <ele>42.92</ele>
        <time>2019-06-07T09:03:19Z</time>
      </trkpt>
      <trkpt lat="42.69069" lon="-8.63823">
        <ele>42.92</ele>
        <time>2019-06-07T09:03:22Z</time>
      </trkpt>
      <trkpt lat="42.6907" lon="-8.6382">
        <ele>42.44</ele>
        <time>2019-06-07T09:03:24Z</time>
      </trkpt>
      <trkpt lat="42.69076" lon="-8.638">
        <ele>42.92</ele>
        <time>2019-06-07T09:03:38Z</time>
      </trkpt>
      <trkpt lat="42.69087" lon="-8.63776">
        <ele>43.4</ele>
        <time>2019-06-07T09:03:56Z</time>
      </trkpt>
      <trkpt lat="42.691" lon="-8.63758">
        <ele>44.36</ele>
        <time>2019-06-07T09:04:11Z</time>
      </trkpt>
      <trkpt lat="42.69108" lon="-8.63758">
        <ele>44.36</ele>
        <time>2019-06-07T09:04:17Z</time>
      </trkpt>
      <trkpt lat="42.6911" lon="-8.63759">
        <ele>44.36</ele>
        <time>2019-06-07T09:04:19Z</time>
      </trkpt>
      <trkpt lat="42.69119" lon="-8.6376">
        <ele>44.84</ele>
        <time>2019-06-07T09:04:26Z</time>
      </trkpt>
      <trkpt lat="42.69134" lon="-8.63761">
        <ele>45.8</ele>
        <time>2019-06-07T09:04:40Z</time>
      </trkpt>
      <trkpt lat="42.6915" lon="-8.63756">
        <ele>47.24</ele>
        <time>2019-06-07T09:04:54Z</time>
      </trkpt>
      <trkpt lat="42.69168" lon="-8.63752">
        <ele>47.72</ele>
        <time>2019-06-07T09:05:07Z</time>
      </trkpt>
      <trkpt lat="42.69182" lon="-8.63751">
        <ele>48.2</ele>
        <time>2019-06-07T09:05:18Z</time>
      </trkpt>
      <trkpt lat="42.69197" lon="-8.63743">
        <ele>49.65</ele>
        <time>2019-06-07T09:05:32Z</time>
      </trkpt>
      <trkpt lat="42.692" lon="-8.63743">
        <ele>50.13</ele>
        <time>2019-06-07T09:05:34Z</time>
      </trkpt>
      <trkpt lat="42.69205" lon="-8.63742">
        <ele>49.16</ele>
        <time>2019-06-07T09:05:49Z</time>
      </trkpt>
      <trkpt lat="42.69216" lon="-8.63745">
        <ele>48.68</ele>
        <time>2019-06-07T09:05:59Z</time>
      </trkpt>
      <trkpt lat="42.69234" lon="-8.63751">
        <ele>48.2</ele>
        <time>2019-06-07T09:06:14Z</time>
      </trkpt>
      <trkpt lat="42.69246" lon="-8.63751">
        <ele>48.68</ele>
        <time>2019-06-07T09:06:25Z</time>
      </trkpt>
      <trkpt lat="42.69265" lon="-8.63747">
        <ele>47.72</ele>
        <time>2019-06-07T09:06:39Z</time>
      </trkpt>
      <trkpt lat="42.6928" lon="-8.6376">
        <ele>48.2</ele>
        <time>2019-06-07T09:06:54Z</time>
      </trkpt>
      <trkpt lat="42.69298" lon="-8.63774">
        <ele>49.16</ele>
        <time>2019-06-07T09:07:09Z</time>
      </trkpt>
      <trkpt lat="42.69317" lon="-8.63779">
        <ele>49.16</ele>
        <time>2019-06-07T09:07:23Z</time>
      </trkpt>
      <trkpt lat="42.69327" lon="-8.63785">
        <ele>49.65</ele>
        <time>2019-06-07T09:07:32Z</time>
      </trkpt>
      <trkpt lat="42.6933" lon="-8.63788">
        <ele>50.13</ele>
        <time>2019-06-07T09:07:36Z</time>
      </trkpt>
      <trkpt lat="42.69344" lon="-8.63793">
        <ele>53.97</ele>
        <time>2019-06-07T09:07:49Z</time>
      </trkpt>
      <trkpt lat="42.69363" lon="-8.63801">
        <ele>52.53</ele>
        <time>2019-06-07T09:08:04Z</time>
      </trkpt>
      <trkpt lat="42.69368" lon="-8.63804">
        <ele>53.01</ele>
        <time>2019-06-07T09:08:08Z</time>
      </trkpt>
      <trkpt lat="42.69375" lon="-8.63807">
        <ele>52.53</ele>
        <time>2019-06-07T09:08:14Z</time>
      </trkpt>
      <trkpt lat="42.69386" lon="-8.63809">
        <ele>53.49</ele>
        <time>2019-06-07T09:08:24Z</time>
      </trkpt>
      <trkpt lat="42.69399" lon="-8.63818">
        <ele>54.93</ele>
        <time>2019-06-07T09:08:37Z</time>
      </trkpt>
      <trkpt lat="42.69398" lon="-8.63813">
        <ele>54.45</ele>
        <time>2019-06-07T09:08:55Z</time>
      </trkpt>
      <trkpt lat="42.6941" lon="-8.63818">
        <ele>53.97</ele>
        <time>2019-06-07T09:09:03Z</time>
      </trkpt>
      <trkpt lat="42.69433" lon="-8.63823">
        <ele>53.97</ele>
        <time>2019-06-07T09:09:21Z</time>
      </trkpt>
      <trkpt lat="42.69451" lon="-8.63828">
        <ele>52.53</ele>
        <time>2019-06-07T09:09:35Z</time>
      </trkpt>
      <trkpt lat="42.69459" lon="-8.63829">
        <ele>53.97</ele>
        <time>2019-06-07T09:09:49Z</time>
      </trkpt>
      <trkpt lat="42.69467" lon="-8.63827">
        <ele>54.45</ele>
        <time>2019-06-07T09:10:01Z</time>
      </trkpt>
      <trkpt lat="42.6947" lon="-8.63828">
        <ele>53.97</ele>
        <time>2019-06-07T09:10:04Z</time>
      </trkpt>
      <trkpt lat="42.69486" lon="-8.63829">
        <ele>54.93</ele>
        <time>2019-06-07T09:10:18Z</time>
      </trkpt>
      <trkpt lat="42.69494" lon="-8.63832">
        <ele>55.41</ele>
        <time>2019-06-07T09:10:28Z</time>
      </trkpt>
      <trkpt lat="42.69508" lon="-8.63833">
        <ele>54.93</ele>
        <time>2019-06-07T09:10:38Z</time>
      </trkpt>
      <trkpt lat="42.69528" lon="-8.63833">
        <ele>55.41</ele>
        <time>2019-06-07T09:10:54Z</time>
      </trkpt>
      <trkpt lat="42.6954" lon="-8.63834">
        <ele>54.93</ele>
        <time>2019-06-07T09:11:08Z</time>
      </trkpt>
      <trkpt lat="42.69544" lon="-8.63835">
        <ele>54.93</ele>
        <time>2019-06-07T09:11:12Z</time>
      </trkpt>
      <trkpt lat="42.69555" lon="-8.63834">
        <ele>54.93</ele>
        <time>2019-06-07T09:11:22Z</time>
      </trkpt>
      <trkpt lat="42.69569" lon="-8.6384">
        <ele>55.41</ele>
        <time>2019-06-07T09:11:33Z</time>
      </trkpt>
      <trkpt lat="42.69578" lon="-8.63844">
        <ele>55.89</ele>
        <time>2019-06-07T09:11:40Z</time>
      </trkpt>
      <trkpt lat="42.6958" lon="-8.63846">
        <ele>56.37</ele>
        <time>2019-06-07T09:11:50Z</time>
      </trkpt>
      <trkpt lat="42.6959" lon="-8.63858">
        <ele>56.37</ele>
        <time>2019-06-07T09:12:02Z</time>
      </trkpt>
      <trkpt lat="42.6959" lon="-8.63859">
        <ele>56.37</ele>
        <time>2019-06-07T09:12:03Z</time>
      </trkpt>
      <trkpt lat="42.69594" lon="-8.63865">
        <ele>56.86</ele>
        <time>2019-06-07T09:12:08Z</time>
      </trkpt>
      <trkpt lat="42.69601" lon="-8.63879">
        <ele>57.34</ele>
        <time>2019-06-07T09:12:22Z</time>
      </trkpt>
      <trkpt lat="42.69611" lon="-8.63893">
        <ele>57.34</ele>
        <time>2019-06-07T09:12:34Z</time>
      </trkpt>
      <trkpt lat="42.69614" lon="-8.63897">
        <ele>57.34</ele>
        <time>2019-06-07T09:12:37Z</time>
      </trkpt>
      <trkpt lat="42.69627" lon="-8.63909">
        <ele>58.3</ele>
        <time>2019-06-07T09:12:51Z</time>
      </trkpt>
      <trkpt lat="42.69638" lon="-8.63915">
        <ele>60.22</ele>
        <time>2019-06-07T09:13:01Z</time>
      </trkpt>
      <trkpt lat="42.69646" lon="-8.63922">
        <ele>60.22</ele>
        <time>2019-06-07T09:13:10Z</time>
      </trkpt>
      <trkpt lat="42.6965" lon="-8.63923">
        <ele>60.7</ele>
        <time>2019-06-07T09:13:13Z</time>
      </trkpt>
      <trkpt lat="42.69651" lon="-8.63924">
        <ele>60.7</ele>
        <time>2019-06-07T09:13:14Z</time>
      </trkpt>
      <trkpt lat="42.69653" lon="-8.63927">
        <ele>60.7</ele>
        <time>2019-06-07T09:13:17Z</time>
      </trkpt>
      <trkpt lat="42.69657" lon="-8.63937">
        <ele>61.18</ele>
        <time>2019-06-07T09:13:29Z</time>
      </trkpt>
      <trkpt lat="42.69657" lon="-8.6395">
        <ele>60.22</ele>
        <time>2019-06-07T09:13:38Z</time>
      </trkpt>
      <trkpt lat="42.69656" lon="-8.63957">
        <ele>60.22</ele>
        <time>2019-06-07T09:13:43Z</time>
      </trkpt>
      <trkpt lat="42.69652" lon="-8.63974">
        <ele>59.74</ele>
        <time>2019-06-07T09:13:53Z</time>
      </trkpt>
      <trkpt lat="42.69653" lon="-8.63999">
        <ele>57.82</ele>
        <time>2019-06-07T09:14:09Z</time>
      </trkpt>
      <trkpt lat="42.69656" lon="-8.64014">
        <ele>55.89</ele>
        <time>2019-06-07T09:14:20Z</time>
      </trkpt>
      <trkpt lat="42.6966" lon="-8.64027">
        <ele>55.41</ele>
        <time>2019-06-07T09:14:39Z</time>
      </trkpt>
      <trkpt lat="42.69661" lon="-8.6403">
        <ele>55.41</ele>
        <time>2019-06-07T09:14:41Z</time>
      </trkpt>
      <trkpt lat="42.69667" lon="-8.64039">
        <ele>54.93</ele>
        <time>2019-06-07T09:14:48Z</time>
      </trkpt>
      <trkpt lat="42.69668" lon="-8.64042">
        <ele>54.93</ele>
        <time>2019-06-07T09:14:50Z</time>
      </trkpt>
      <trkpt lat="42.69679" lon="-8.64058">
        <ele>53.97</ele>
        <time>2019-06-07T09:15:02Z</time>
      </trkpt>
      <trkpt lat="42.6969" lon="-8.64065">
        <ele>53.49</ele>
        <time>2019-06-07T09:15:11Z</time>
      </trkpt>
      <trkpt lat="42.69692" lon="-8.64066">
        <ele>53.97</ele>
        <time>2019-06-07T09:15:13Z</time>
      </trkpt>
      <trkpt lat="42.69709" lon="-8.64078">
        <ele>53.49</ele>
        <time>2019-06-07T09:15:28Z</time>
      </trkpt>
      <trkpt lat="42.69712" lon="-8.64078">
        <ele>53.49</ele>
        <time>2019-06-07T09:15:30Z</time>
      </trkpt>
      <trkpt lat="42.69714" lon="-8.6408">
        <ele>53.97</ele>
        <time>2019-06-07T09:15:32Z</time>
      </trkpt>
      <trkpt lat="42.6972" lon="-8.64082">
        <ele>54.45</ele>
        <time>2019-06-07T09:15:37Z</time>
      </trkpt>
      <trkpt lat="42.69736" lon="-8.64087">
        <ele>54.93</ele>
        <time>2019-06-07T09:15:51Z</time>
      </trkpt>
      <trkpt lat="42.69749" lon="-8.64093">
        <ele>56.37</ele>
        <time>2019-06-07T09:16:03Z</time>
      </trkpt>
      <trkpt lat="42.69755" lon="-8.64095">
        <ele>57.34</ele>
        <time>2019-06-07T09:16:09Z</time>
      </trkpt>
      <trkpt lat="42.69767" lon="-8.64096">
        <ele>58.3</ele>
        <time>2019-06-07T09:16:20Z</time>
      </trkpt>
      <trkpt lat="42.69778" lon="-8.64096">
        <ele>59.26</ele>
        <time>2019-06-07T09:16:30Z</time>
      </trkpt>
      <trkpt lat="42.69792" lon="-8.64098">
        <ele>59.74</ele>
        <time>2019-06-07T09:16:42Z</time>
      </trkpt>
      <trkpt lat="42.698" lon="-8.64096">
        <ele>59.74</ele>
        <time>2019-06-07T09:16:51Z</time>
      </trkpt>
      <trkpt lat="42.69815" lon="-8.64098">
        <ele>60.22</ele>
        <time>2019-06-07T09:17:03Z</time>
      </trkpt>
      <trkpt lat="42.69832" lon="-8.64098">
        <ele>60.22</ele>
        <time>2019-06-07T09:17:15Z</time>
      </trkpt>
      <trkpt lat="42.69838" lon="-8.64097">
        <ele>59.74</ele>
        <time>2019-06-07T09:17:20Z</time>
      </trkpt>
      <trkpt lat="42.69853" lon="-8.64095">
        <ele>60.22</ele>
        <time>2019-06-07T09:17:34Z</time>
      </trkpt>
      <trkpt lat="42.69858" lon="-8.64093">
        <ele>60.7</ele>
        <time>2019-06-07T09:17:40Z</time>
      </trkpt>
      <trkpt lat="42.69876" lon="-8.64084">
        <ele>61.18</ele>
        <time>2019-06-07T09:17:53Z</time>
      </trkpt>
      <trkpt lat="42.6988" lon="-8.64085">
        <ele>61.66</ele>
        <time>2019-06-07T09:18:09Z</time>
      </trkpt>
      <trkpt lat="42.69879" lon="-8.64086">
        <ele>61.18</ele>
        <time>2019-06-07T09:18:27Z</time>
      </trkpt>
      <trkpt lat="42.69879" lon="-8.64087">
        <ele>61.18</ele>
        <time>2019-06-07T09:18:49Z</time>
      </trkpt>
      <trkpt lat="42.69876" lon="-8.64084">
        <ele>61.18</ele>
        <time>2019-06-07T09:19:20Z</time>
      </trkpt>
      <trkpt lat="42.69877" lon="-8.64086">
        <ele>61.18</ele>
        <time>2019-06-07T09:19:49Z</time>
      </trkpt>
      <trkpt lat="42.69876" lon="-8.64086">
        <ele>49.65</ele>
        <time>2019-06-07T09:20:08Z</time>
      </trkpt>
      <trkpt lat="42.69876" lon="-8.64085">
        <ele>63.1</ele>
        <time>2019-06-07T09:20:09Z</time>
      </trkpt>
      <trkpt lat="42.69877" lon="-8.64086">
        <ele>61.66</ele>
        <time>2019-06-07T09:20:12Z</time>
      </trkpt>
      <trkpt lat="42.69877" lon="-8.64086">
        <ele>57.82</ele>
        <time>2019-06-07T09:20:15Z</time>
      </trkpt>
      <trkpt lat="42.69876" lon="-8.64086">
        <ele>62.62</ele>
        <time>2019-06-07T09:20:17Z</time>
      </trkpt>
      <trkpt lat="42.69879" lon="-8.64085">
        <ele>62.14</ele>
        <time>2019-06-07T09:20:39Z</time>
      </trkpt>
      <trkpt lat="42.6988" lon="-8.64084">
        <ele>63.1</ele>
        <time>2019-06-07T09:20:59Z</time>
      </trkpt>
      <trkpt lat="42.69877" lon="-8.64085">
        <ele>63.1</ele>
        <time>2019-06-07T09:21:13Z</time>
      </trkpt>
      <trkpt lat="42.69878" lon="-8.64085">
        <ele>63.1</ele>
        <time>2019-06-07T09:21:34Z</time>
      </trkpt>
      <trkpt lat="42.69877" lon="-8.64085">
        <ele>67.43</ele>
        <time>2019-06-07T09:21:44Z</time>
      </trkpt>
      <trkpt lat="42.69877" lon="-8.64085">
        <ele>62.62</ele>
        <time>2019-06-07T09:21:45Z</time>
      </trkpt>
      <trkpt lat="42.6988" lon="-8.64082">
        <ele>62.62</ele>
        <time>2019-06-07T09:22:12Z</time>
      </trkpt>
      <trkpt lat="42.69887" lon="-8.6408">
        <ele>63.1</ele>
        <time>2019-06-07T09:22:31Z</time>
      </trkpt>
      <trkpt lat="42.69904" lon="-8.6407">
        <ele>63.1</ele>
        <time>2019-06-07T09:22:45Z</time>
      </trkpt>
      <trkpt lat="42.69918" lon="-8.64054">
        <ele>62.62</ele>
        <time>2019-06-07T09:22:59Z</time>
      </trkpt>
      <trkpt lat="42.69927" lon="-8.6404">
        <ele>63.1</ele>
        <time>2019-06-07T09:23:12Z</time>
      </trkpt>
      <trkpt lat="42.6993" lon="-8.64036">
        <ele>62.62</ele>
        <time>2019-06-07T09:23:16Z</time>
      </trkpt>
      <trkpt lat="42.69934" lon="-8.64027">
        <ele>63.1</ele>
        <time>2019-06-07T09:23:22Z</time>
      </trkpt>
      <trkpt lat="42.69935" lon="-8.64025">
        <ele>63.1</ele>
        <time>2019-06-07T09:23:23Z</time>
      </trkpt>
      <trkpt lat="42.69942" lon="-8.64009">
        <ele>64.07</ele>
        <time>2019-06-07T09:23:36Z</time>
      </trkpt>
      <trkpt lat="42.69958" lon="-8.64014">
        <ele>64.55</ele>
        <time>2019-06-07T09:23:50Z</time>
      </trkpt>
      <trkpt lat="42.69972" lon="-8.64019">
        <ele>64.55</ele>
        <time>2019-06-07T09:24:02Z</time>
      </trkpt>
      <trkpt lat="42.69989" lon="-8.64024">
        <ele>63.58</ele>
        <time>2019-06-07T09:24:16Z</time>
      </trkpt>
      <trkpt lat="42.70004" lon="-8.64016">
        <ele>63.58</ele>
        <time>2019-06-07T09:24:29Z</time>
      </trkpt>
      <trkpt lat="42.70006" lon="-8.64015">
        <ele>64.07</ele>
        <time>2019-06-07T09:24:32Z</time>
      </trkpt>
      <trkpt lat="42.70008" lon="-8.64015">
        <ele>64.55</ele>
        <time>2019-06-07T09:24:34Z</time>
      </trkpt>
      <trkpt lat="42.70029" lon="-8.64019">
        <ele>64.55</ele>
        <time>2019-06-07T09:24:51Z</time>
      </trkpt>
      <trkpt lat="42.70049" lon="-8.64019">
        <ele>64.55</ele>
        <time>2019-06-07T09:25:06Z</time>
      </trkpt>
      <trkpt lat="42.70062" lon="-8.64018">
        <ele>63.58</ele>
        <time>2019-06-07T09:25:19Z</time>
      </trkpt>
      <trkpt lat="42.70068" lon="-8.64015">
        <ele>63.58</ele>
        <time>2019-06-07T09:25:24Z</time>
      </trkpt>
      <trkpt lat="42.70088" lon="-8.6401">
        <ele>63.1</ele>
        <time>2019-06-07T09:25:40Z</time>
      </trkpt>
      <trkpt lat="42.70106" lon="-8.64008">
        <ele>61.18</ele>
        <time>2019-06-07T09:25:55Z</time>
      </trkpt>
      <trkpt lat="42.70122" lon="-8.6402">
        <ele>59.26</ele>
        <time>2019-06-07T09:26:09Z</time>
      </trkpt>
      <trkpt lat="42.70134" lon="-8.64035">
        <ele>58.3</ele>
        <time>2019-06-07T09:26:22Z</time>
      </trkpt>
      <trkpt lat="42.70135" lon="-8.64038">
        <ele>58.3</ele>
        <time>2019-06-07T09:26:24Z</time>
      </trkpt>
      <trkpt lat="42.70136" lon="-8.64058">
        <ele>58.3</ele>
        <time>2019-06-07T09:26:35Z</time>
      </trkpt>
      <trkpt lat="42.70145" lon="-8.64079">
        <ele>59.26</ele>
        <time>2019-06-07T09:26:50Z</time>
      </trkpt>
      <trkpt lat="42.70156" lon="-8.64088">
        <ele>59.26</ele>
        <time>2019-06-07T09:27:02Z</time>
      </trkpt>
      <trkpt lat="42.70158" lon="-8.64093">
        <ele>59.26</ele>
        <time>2019-06-07T09:27:06Z</time>
      </trkpt>
      <trkpt lat="42.70163" lon="-8.64116">
        <ele>60.22</ele>
        <time>2019-06-07T09:27:19Z</time>
      </trkpt>
      <trkpt lat="42.70162" lon="-8.64124">
        <ele>60.22</ele>
        <time>2019-06-07T09:27:24Z</time>
      </trkpt>
      <trkpt lat="42.70161" lon="-8.64128">
        <ele>60.7</ele>
        <time>2019-06-07T09:27:27Z</time>
      </trkpt>
      <trkpt lat="42.70161" lon="-8.64131">
        <ele>60.7</ele>
        <time>2019-06-07T09:27:29Z</time>
      </trkpt>
      <trkpt lat="42.70157" lon="-8.64154">
        <ele>62.14</ele>
        <time>2019-06-07T09:27:44Z</time>
      </trkpt>
      <trkpt lat="42.70152" lon="-8.64174">
        <ele>62.62</ele>
        <time>2019-06-07T09:27:57Z</time>
      </trkpt>
      <trkpt lat="42.70149" lon="-8.64184">
        <ele>62.14</ele>
        <time>2019-06-07T09:28:03Z</time>
      </trkpt>
      <trkpt lat="42.70147" lon="-8.64193">
        <ele>62.14</ele>
        <time>2019-06-07T09:28:08Z</time>
      </trkpt>
      <trkpt lat="42.70157" lon="-8.64211">
        <ele>63.1</ele>
        <time>2019-06-07T09:28:24Z</time>
      </trkpt>
      <trkpt lat="42.7017" lon="-8.64218">
        <ele>63.58</ele>
        <time>2019-06-07T09:28:36Z</time>
      </trkpt>
      <trkpt lat="42.70183" lon="-8.64225">
        <ele>64.55</ele>
        <time>2019-06-07T09:28:48Z</time>
      </trkpt>
      <trkpt lat="42.70199" lon="-8.64225">
        <ele>65.03</ele>
        <time>2019-06-07T09:29:03Z</time>
      </trkpt>
      <trkpt lat="42.70214" lon="-8.64219">
        <ele>65.99</ele>
        <time>2019-06-07T09:29:16Z</time>
      </trkpt>
      <trkpt lat="42.70231" lon="-8.64214">
        <ele>66.47</ele>
        <time>2019-06-07T09:29:29Z</time>
      </trkpt>
      <trkpt lat="42.70234" lon="-8.64213">
        <ele>66.95</ele>
        <time>2019-06-07T09:29:32Z</time>
      </trkpt>
      <trkpt lat="42.70245" lon="-8.64211">
        <ele>66.95</ele>
        <time>2019-06-07T09:29:42Z</time>
      </trkpt>
      <trkpt lat="42.7026" lon="-8.64208">
        <ele>66.95</ele>
        <time>2019-06-07T09:29:54Z</time>
      </trkpt>
      <trkpt lat="42.70273" lon="-8.64211">
        <ele>66.47</ele>
        <time>2019-06-07T09:30:05Z</time>
      </trkpt>
      <trkpt lat="42.70295" lon="-8.64213">
        <ele>66.47</ele>
        <time>2019-06-07T09:30:22Z</time>
      </trkpt>
      <trkpt lat="42.70302" lon="-8.64214">
        <ele>65.99</ele>
        <time>2019-06-07T09:30:35Z</time>
      </trkpt>
      <trkpt lat="42.70316" lon="-8.64218">
        <ele>65.51</ele>
        <time>2019-06-07T09:30:48Z</time>
      </trkpt>
      <trkpt lat="42.70329" lon="-8.64218">
        <ele>65.51</ele>
        <time>2019-06-07T09:30:59Z</time>
      </trkpt>
      <trkpt lat="42.70349" lon="-8.6422">
        <ele>65.51</ele>
        <time>2019-06-07T09:31:15Z</time>
      </trkpt>
      <trkpt lat="42.70369" lon="-8.64224">
        <ele>65.99</ele>
        <time>2019-06-07T09:31:30Z</time>
      </trkpt>
      <trkpt lat="42.70371" lon="-8.64224">
        <ele>65.99</ele>
        <time>2019-06-07T09:31:35Z</time>
      </trkpt>
      <trkpt lat="42.70374" lon="-8.64225">
        <ele>65.99</ele>
        <time>2019-06-07T09:31:38Z</time>
      </trkpt>
      <trkpt lat="42.7039" lon="-8.64229">
        <ele>65.51</ele>
        <time>2019-06-07T09:31:53Z</time>
      </trkpt>
      <trkpt lat="42.70407" lon="-8.64232">
        <ele>65.51</ele>
        <time>2019-06-07T09:32:08Z</time>
      </trkpt>
      <trkpt lat="42.70425" lon="-8.64232">
        <ele>65.51</ele>
        <time>2019-06-07T09:32:23Z</time>
      </trkpt>
      <trkpt lat="42.70439" lon="-8.64232">
        <ele>64.07</ele>
        <time>2019-06-07T09:32:36Z</time>
      </trkpt>
      <trkpt lat="42.70453" lon="-8.64236">
        <ele>62.14</ele>
        <time>2019-06-07T09:32:51Z</time>
      </trkpt>
      <trkpt lat="42.70468" lon="-8.6424">
        <ele>61.18</ele>
        <time>2019-06-07T09:33:03Z</time>
      </trkpt>
      <trkpt lat="42.70483" lon="-8.64242">
        <ele>58.78</ele>
        <time>2019-06-07T09:33:14Z</time>
      </trkpt>
      <trkpt lat="42.70505" lon="-8.64238">
        <ele>57.82</ele>
        <time>2019-06-07T09:33:29Z</time>
      </trkpt>
      <trkpt lat="42.70511" lon="-8.64239">
        <ele>58.3</ele>
        <time>2019-06-07T09:33:33Z</time>
      </trkpt>
      <trkpt lat="42.70526" lon="-8.64243">
        <ele>56.86</ele>
        <time>2019-06-07T09:33:46Z</time>
      </trkpt>
      <trkpt lat="42.70533" lon="-8.64244">
        <ele>57.34</ele>
        <time>2019-06-07T09:33:52Z</time>
      </trkpt>
      <trkpt lat="42.70541" lon="-8.64245">
        <ele>57.34</ele>
        <time>2019-06-07T09:34:06Z</time>
      </trkpt>
      <trkpt lat="42.70552" lon="-8.64251">
        <ele>56.86</ele>
        <time>2019-06-07T09:34:18Z</time>
      </trkpt>
      <trkpt lat="42.70553" lon="-8.64252">
        <ele>56.86</ele>
        <time>2019-06-07T09:34:19Z</time>
      </trkpt>
      <trkpt lat="42.70559" lon="-8.64265">
        <ele>55.41</ele>
        <time>2019-06-07T09:34:28Z</time>
      </trkpt>
      <trkpt lat="42.7057" lon="-8.64281">
        <ele>54.93</ele>
        <time>2019-06-07T09:34:40Z</time>
      </trkpt>
      <trkpt lat="42.70575" lon="-8.64287">
        <ele>54.45</ele>
        <time>2019-06-07T09:34:44Z</time>
      </trkpt>
      <trkpt lat="42.70582" lon="-8.64298">
        <ele>54.93</ele>
        <time>2019-06-07T09:34:51Z</time>
      </trkpt>
      <trkpt lat="42.70591" lon="-8.64314">
        <ele>53.49</ele>
        <time>2019-06-07T09:35:05Z</time>
      </trkpt>
      <trkpt lat="42.70593" lon="-8.64332">
        <ele>52.53</ele>
        <time>2019-06-07T09:35:16Z</time>
      </trkpt>
      <trkpt lat="42.70593" lon="-8.64336">
        <ele>52.53</ele>
        <time>2019-06-07T09:35:18Z</time>
      </trkpt>
      <trkpt lat="42.70594" lon="-8.64345">
        <ele>52.05</ele>
        <time>2019-06-07T09:35:23Z</time>
      </trkpt>
      <trkpt lat="42.70595" lon="-8.64349">
        <ele>51.57</ele>
        <time>2019-06-07T09:35:25Z</time>
      </trkpt>
      <trkpt lat="42.70593" lon="-8.64355">
        <ele>51.09</ele>
        <time>2019-06-07T09:35:28Z</time>
      </trkpt>
      <trkpt lat="42.70594" lon="-8.64365">
        <ele>51.09</ele>
        <time>2019-06-07T09:35:34Z</time>
      </trkpt>
      <trkpt lat="42.70593" lon="-8.64379">
        <ele>50.13</ele>
        <time>2019-06-07T09:35:41Z</time>
      </trkpt>
      <trkpt lat="42.70596" lon="-8.64401">
        <ele>49.16</ele>
        <time>2019-06-07T09:35:54Z</time>
      </trkpt>
      <trkpt lat="42.70604" lon="-8.64415">
        <ele>48.68</ele>
        <time>2019-06-07T09:36:05Z</time>
      </trkpt>
      <trkpt lat="42.70612" lon="-8.64435">
        <ele>48.68</ele>
        <time>2019-06-07T09:36:18Z</time>
      </trkpt>
      <trkpt lat="42.70623" lon="-8.64451">
        <ele>47.72</ele>
        <time>2019-06-07T09:36:33Z</time>
      </trkpt>
      <trkpt lat="42.70628" lon="-8.64455">
        <ele>46.28</ele>
        <time>2019-06-07T09:36:38Z</time>
      </trkpt>
      <trkpt lat="42.7063" lon="-8.64456">
        <ele>46.28</ele>
        <time>2019-06-07T09:36:40Z</time>
      </trkpt>
      <trkpt lat="42.70647" lon="-8.64467">
        <ele>44.84</ele>
        <time>2019-06-07T09:36:54Z</time>
      </trkpt>
      <trkpt lat="42.70648" lon="-8.64471">
        <ele>44.36</ele>
        <time>2019-06-07T09:36:57Z</time>
      </trkpt>
      <trkpt lat="42.70649" lon="-8.64486">
        <ele>42.44</ele>
        <time>2019-06-07T09:37:09Z</time>
      </trkpt>
      <trkpt lat="42.70648" lon="-8.645">
        <ele>41.47</ele>
        <time>2019-06-07T09:37:21Z</time>
      </trkpt>
      <trkpt lat="42.70644" lon="-8.64522">
        <ele>39.55</ele>
        <time>2019-06-07T09:37:36Z</time>
      </trkpt>
      <trkpt lat="42.70646" lon="-8.64542">
        <ele>37.15</ele>
        <time>2019-06-07T09:37:48Z</time>
      </trkpt>
      <trkpt lat="42.70649" lon="-8.64557">
        <ele>35.71</ele>
        <time>2019-06-07T09:37:58Z</time>
      </trkpt>
      <trkpt lat="42.70654" lon="-8.64578">
        <ele>34.26</ele>
        <time>2019-06-07T09:38:12Z</time>
      </trkpt>
      <trkpt lat="42.70658" lon="-8.64596">
        <ele>31.86</ele>
        <time>2019-06-07T09:38:23Z</time>
      </trkpt>
      <trkpt lat="42.70661" lon="-8.64603">
        <ele>31.38</ele>
        <time>2019-06-07T09:38:28Z</time>
      </trkpt>
      <trkpt lat="42.70663" lon="-8.64608">
        <ele>30.9</ele>
        <time>2019-06-07T09:38:32Z</time>
      </trkpt>
      <trkpt lat="42.70664" lon="-8.64612">
        <ele>30.42</ele>
        <time>2019-06-07T09:38:34Z</time>
      </trkpt>
      <trkpt lat="42.70668" lon="-8.6464">
        <ele>30.42</ele>
        <time>2019-06-07T09:38:48Z</time>
      </trkpt>
      <trkpt lat="42.7067" lon="-8.64661">
        <ele>28.98</ele>
        <time>2019-06-07T09:39:02Z</time>
      </trkpt>
      <trkpt lat="42.70671" lon="-8.64666">
        <ele>28.98</ele>
        <time>2019-06-07T09:39:06Z</time>
      </trkpt>
      <trkpt lat="42.70672" lon="-8.64672">
        <ele>28.5</ele>
        <time>2019-06-07T09:39:10Z</time>
      </trkpt>
      <trkpt lat="42.70676" lon="-8.64695">
        <ele>28.5</ele>
        <time>2019-06-07T09:39:23Z</time>
      </trkpt>
      <trkpt lat="42.70676" lon="-8.64703">
        <ele>28.02</ele>
        <time>2019-06-07T09:39:28Z</time>
      </trkpt>
      <trkpt lat="42.70674" lon="-8.64727">
        <ele>27.05</ele>
        <time>2019-06-07T09:39:42Z</time>
      </trkpt>
      <trkpt lat="42.70673" lon="-8.64739">
        <ele>27.05</ele>
        <time>2019-06-07T09:39:48Z</time>
      </trkpt>
      <trkpt lat="42.70677" lon="-8.64747">
        <ele>26.57</ele>
        <time>2019-06-07T09:40:03Z</time>
      </trkpt>
      <trkpt lat="42.70676" lon="-8.64746">
        <ele>27.05</ele>
        <time>2019-06-07T09:40:21Z</time>
      </trkpt>
      <trkpt lat="42.70697" lon="-8.64749">
        <ele>27.05</ele>
        <time>2019-06-07T09:40:37Z</time>
      </trkpt>
      <trkpt lat="42.70717" lon="-8.64748">
        <ele>26.57</ele>
        <time>2019-06-07T09:40:52Z</time>
      </trkpt>
      <trkpt lat="42.70724" lon="-8.64748">
        <ele>26.09</ele>
        <time>2019-06-07T09:40:59Z</time>
      </trkpt>
      <trkpt lat="42.7074" lon="-8.64758">
        <ele>25.61</ele>
        <time>2019-06-07T09:41:13Z</time>
      </trkpt>
      <trkpt lat="42.70741" lon="-8.64758">
        <ele>26.09</ele>
        <time>2019-06-07T09:41:15Z</time>
      </trkpt>
      <trkpt lat="42.70759" lon="-8.64753">
        <ele>25.61</ele>
        <time>2019-06-07T09:41:30Z</time>
      </trkpt>
      <trkpt lat="42.7078" lon="-8.64748">
        <ele>26.09</ele>
        <time>2019-06-07T09:41:46Z</time>
      </trkpt>
      <trkpt lat="42.70796" lon="-8.64745">
        <ele>25.61</ele>
        <time>2019-06-07T09:41:59Z</time>
      </trkpt>
      <trkpt lat="42.7081" lon="-8.64739">
        <ele>25.61</ele>
        <time>2019-06-07T09:42:14Z</time>
      </trkpt>
      <trkpt lat="42.70828" lon="-8.64732">
        <ele>25.61</ele>
        <time>2019-06-07T09:42:30Z</time>
      </trkpt>
      <trkpt lat="42.70848" lon="-8.6473">
        <ele>25.61</ele>
        <time>2019-06-07T09:42:45Z</time>
      </trkpt>
      <trkpt lat="42.70859" lon="-8.64725">
        <ele>26.09</ele>
        <time>2019-06-07T09:42:55Z</time>
      </trkpt>
      <trkpt lat="42.70874" lon="-8.64721">
        <ele>26.09</ele>
        <time>2019-06-07T09:43:09Z</time>
      </trkpt>
      <trkpt lat="42.70889" lon="-8.64721">
        <ele>26.09</ele>
        <time>2019-06-07T09:43:21Z</time>
      </trkpt>
      <trkpt lat="42.70908" lon="-8.64719">
        <ele>27.05</ele>
        <time>2019-06-07T09:43:37Z</time>
      </trkpt>
      <trkpt lat="42.70914" lon="-8.6472">
        <ele>27.53</ele>
        <time>2019-06-07T09:43:54Z</time>
      </trkpt>
      <trkpt lat="42.70927" lon="-8.64721">
        <ele>27.05</ele>
        <time>2019-06-07T09:44:07Z</time>
      </trkpt>
      <trkpt lat="42.70946" lon="-8.64726">
        <ele>27.05</ele>
        <time>2019-06-07T09:44:21Z</time>
      </trkpt>
      <trkpt lat="42.70962" lon="-8.64731">
        <ele>27.53</ele>
        <time>2019-06-07T09:44:35Z</time>
      </trkpt>
      <trkpt lat="42.7098" lon="-8.64732">
        <ele>27.53</ele>
        <time>2019-06-07T09:44:49Z</time>
      </trkpt>
      <trkpt lat="42.70998" lon="-8.64731">
        <ele>27.05</ele>
        <time>2019-06-07T09:45:04Z</time>
      </trkpt>
      <trkpt lat="42.71016" lon="-8.6473">
        <ele>26.57</ele>
        <time>2019-06-07T09:45:17Z</time>
      </trkpt>
      <trkpt lat="42.71028" lon="-8.64732">
        <ele>27.53</ele>
        <time>2019-06-07T09:45:26Z</time>
      </trkpt>
      <trkpt lat="42.71034" lon="-8.64731">
        <ele>27.05</ele>
        <time>2019-06-07T09:45:34Z</time>
      </trkpt>
      <trkpt lat="42.71057" lon="-8.64725">
        <ele>27.53</ele>
        <time>2019-06-07T09:45:50Z</time>
      </trkpt>
      <trkpt lat="42.71064" lon="-8.64723">
        <ele>27.53</ele>
        <time>2019-06-07T09:46:03Z</time>
      </trkpt>
      <trkpt lat="42.71081" lon="-8.64721">
        <ele>28.5</ele>
        <time>2019-06-07T09:46:16Z</time>
      </trkpt>
      <trkpt lat="42.71099" lon="-8.64719">
        <ele>27.53</ele>
        <time>2019-06-07T09:46:30Z</time>
      </trkpt>
      <trkpt lat="42.71112" lon="-8.64718">
        <ele>28.5</ele>
        <time>2019-06-07T09:46:44Z</time>
      </trkpt>
      <trkpt lat="42.71115" lon="-8.64716">
        <ele>28.98</ele>
        <time>2019-06-07T09:46:48Z</time>
      </trkpt>
      <trkpt lat="42.71117" lon="-8.64716">
        <ele>28.98</ele>
        <time>2019-06-07T09:46:50Z</time>
      </trkpt>
      <trkpt lat="42.71121" lon="-8.64715">
        <ele>28.5</ele>
        <time>2019-06-07T09:46:53Z</time>
      </trkpt>
      <trkpt lat="42.71129" lon="-8.64719">
        <ele>28.98</ele>
        <time>2019-06-07T09:47:03Z</time>
      </trkpt>
      <trkpt lat="42.7113" lon="-8.64733">
        <ele>28.5</ele>
        <time>2019-06-07T09:47:16Z</time>
      </trkpt>
      <trkpt lat="42.71131" lon="-8.64729">
        <ele>28.5</ele>
        <time>2019-06-07T09:47:20Z</time>
      </trkpt>
      <trkpt lat="42.71135" lon="-8.64722">
        <ele>28.98</ele>
        <time>2019-06-07T09:47:27Z</time>
      </trkpt>
      <trkpt lat="42.71145" lon="-8.64708">
        <ele>29.94</ele>
        <time>2019-06-07T09:47:41Z</time>
      </trkpt>
      <trkpt lat="42.71163" lon="-8.64709">
        <ele>29.94</ele>
        <time>2019-06-07T09:47:55Z</time>
      </trkpt>
      <trkpt lat="42.71172" lon="-8.64709">
        <ele>30.42</ele>
        <time>2019-06-07T09:48:02Z</time>
      </trkpt>
      <trkpt lat="42.71191" lon="-8.64707">
        <ele>28.98</ele>
        <time>2019-06-07T09:48:18Z</time>
      </trkpt>
      <trkpt lat="42.71212" lon="-8.64711">
        <ele>28.5</ele>
        <time>2019-06-07T09:48:35Z</time>
      </trkpt>
      <trkpt lat="42.71222" lon="-8.64712">
        <ele>28.02</ele>
        <time>2019-06-07T09:48:43Z</time>
      </trkpt>
      <trkpt lat="42.71227" lon="-8.6471">
        <ele>27.53</ele>
        <time>2019-06-07T09:48:48Z</time>
      </trkpt>
      <trkpt lat="42.71242" lon="-8.64711">
        <ele>28.02</ele>
        <time>2019-06-07T09:49:04Z</time>
      </trkpt>
      <trkpt lat="42.71258" lon="-8.64716">
        <ele>27.53</ele>
        <time>2019-06-07T09:49:18Z</time>
      </trkpt>
      <trkpt lat="42.71279" lon="-8.64719">
        <ele>28.02</ele>
        <time>2019-06-07T09:49:35Z</time>
      </trkpt>
      <trkpt lat="42.713" lon="-8.64726">
        <ele>28.02</ele>
        <time>2019-06-07T09:49:53Z</time>
      </trkpt>
      <trkpt lat="42.71318" lon="-8.64731">
        <ele>28.02</ele>
        <time>2019-06-07T09:50:06Z</time>
      </trkpt>
      <trkpt lat="42.71336" lon="-8.64737">
        <ele>27.53</ele>
        <time>2019-06-07T09:50:21Z</time>
      </trkpt>
      <trkpt lat="42.71354" lon="-8.64748">
        <ele>27.53</ele>
        <time>2019-06-07T09:50:36Z</time>
      </trkpt>
      <trkpt lat="42.7137" lon="-8.64757">
        <ele>27.05</ele>
        <time>2019-06-07T09:50:51Z</time>
      </trkpt>
      <trkpt lat="42.71388" lon="-8.64767">
        <ele>27.53</ele>
        <time>2019-06-07T09:51:06Z</time>
      </trkpt>
      <trkpt lat="42.7141" lon="-8.6478">
        <ele>27.05</ele>
        <time>2019-06-07T09:51:25Z</time>
      </trkpt>
      <trkpt lat="42.71419" lon="-8.64784">
        <ele>27.53</ele>
        <time>2019-06-07T09:51:37Z</time>
      </trkpt>
      <trkpt lat="42.71419" lon="-8.64784">
        <ele>27.53</ele>
        <time>2019-06-07T09:51:47Z</time>
      </trkpt>
      <trkpt lat="42.71437" lon="-8.64793">
        <ele>27.53</ele>
        <time>2019-06-07T09:52:03Z</time>
      </trkpt>
      <trkpt lat="42.71456" lon="-8.64801">
        <ele>27.05</ele>
        <time>2019-06-07T09:52:19Z</time>
      </trkpt>
      <trkpt lat="42.71476" lon="-8.6481">
        <ele>27.05</ele>
        <time>2019-06-07T09:52:35Z</time>
      </trkpt>
      <trkpt lat="42.71494" lon="-8.64815">
        <ele>28.02</ele>
        <time>2019-06-07T09:52:50Z</time>
      </trkpt>
      <trkpt lat="42.7151" lon="-8.64819">
        <ele>27.53</ele>
        <time>2019-06-07T09:53:03Z</time>
      </trkpt>
      <trkpt lat="42.71527" lon="-8.64822">
        <ele>27.53</ele>
        <time>2019-06-07T09:53:17Z</time>
      </trkpt>
      <trkpt lat="42.71544" lon="-8.64825">
        <ele>27.53</ele>
        <time>2019-06-07T09:53:34Z</time>
      </trkpt>
      <trkpt lat="42.71553" lon="-8.64827">
        <ele>28.02</ele>
        <time>2019-06-07T09:53:49Z</time>
      </trkpt>
      <trkpt lat="42.71569" lon="-8.6483">
        <ele>27.53</ele>
        <time>2019-06-07T09:54:01Z</time>
      </trkpt>
      <trkpt lat="42.71589" lon="-8.64835">
        <ele>27.53</ele>
        <time>2019-06-07T09:54:18Z</time>
      </trkpt>
      <trkpt lat="42.71603" lon="-8.64839">
        <ele>27.53</ele>
        <time>2019-06-07T09:54:29Z</time>
      </trkpt>
      <trkpt lat="42.71623" lon="-8.64843">
        <ele>28.02</ele>
        <time>2019-06-07T09:54:45Z</time>
      </trkpt>
      <trkpt lat="42.71639" lon="-8.64847">
        <ele>28.02</ele>
        <time>2019-06-07T09:54:58Z</time>
      </trkpt>
      <trkpt lat="42.71656" lon="-8.64852">
        <ele>28.02</ele>
        <time>2019-06-07T09:55:12Z</time>
      </trkpt>
      <trkpt lat="42.71672" lon="-8.64857">
        <ele>27.53</ele>
        <time>2019-06-07T09:55:26Z</time>
      </trkpt>
      <trkpt lat="42.7169" lon="-8.64863">
        <ele>28.02</ele>
        <time>2019-06-07T09:55:40Z</time>
      </trkpt>
      <trkpt lat="42.71707" lon="-8.64862">
        <ele>28.5</ele>
        <time>2019-06-07T09:55:55Z</time>
      </trkpt>
      <trkpt lat="42.71713" lon="-8.64862">
        <ele>28.5</ele>
        <time>2019-06-07T09:56:10Z</time>
      </trkpt>
      <trkpt lat="42.71728" lon="-8.64858">
        <ele>28.5</ele>
        <time>2019-06-07T09:56:25Z</time>
      </trkpt>
      <trkpt lat="42.71741" lon="-8.64856">
        <ele>28.5</ele>
        <time>2019-06-07T09:56:36Z</time>
      </trkpt>
      <trkpt lat="42.71758" lon="-8.64852">
        <ele>28.98</ele>
        <time>2019-06-07T09:56:51Z</time>
      </trkpt>
      <trkpt lat="42.71768" lon="-8.6485">
        <ele>28.98</ele>
        <time>2019-06-07T09:57:01Z</time>
      </trkpt>
      <trkpt lat="42.71786" lon="-8.64857">
        <ele>28.02</ele>
        <time>2019-06-07T09:57:16Z</time>
      </trkpt>
      <trkpt lat="42.71788" lon="-8.64858">
        <ele>28.02</ele>
        <time>2019-06-07T09:57:18Z</time>
      </trkpt>
      <trkpt lat="42.71806" lon="-8.6487">
        <ele>28.5</ele>
        <time>2019-06-07T09:57:33Z</time>
      </trkpt>
      <trkpt lat="42.71818" lon="-8.64878">
        <ele>28.5</ele>
        <time>2019-06-07T09:57:46Z</time>
      </trkpt>
      <trkpt lat="42.71832" lon="-8.64889">
        <ele>28.98</ele>
        <time>2019-06-07T09:58:00Z</time>
      </trkpt>
      <trkpt lat="42.71846" lon="-8.64907">
        <ele>26.57</ele>
        <time>2019-06-07T09:58:16Z</time>
      </trkpt>
      <trkpt lat="42.71848" lon="-8.64911">
        <ele>25.61</ele>
        <time>2019-06-07T09:58:27Z</time>
      </trkpt>
      <trkpt lat="42.71858" lon="-8.64916">
        <ele>23.21</ele>
        <time>2019-06-07T09:58:38Z</time>
      </trkpt>
      <trkpt lat="42.71883" lon="-8.64919">
        <ele>20.81</ele>
        <time>2019-06-07T09:58:55Z</time>
      </trkpt>
      <trkpt lat="42.71884" lon="-8.6492">
        <ele>20.81</ele>
        <time>2019-06-07T09:58:56Z</time>
      </trkpt>
      <trkpt lat="42.71889" lon="-8.64922">
        <ele>20.81</ele>
        <time>2019-06-07T09:59:00Z</time>
      </trkpt>
      <trkpt lat="42.71898" lon="-8.64919">
        <ele>21.77</ele>
        <time>2019-06-07T09:59:08Z</time>
      </trkpt>
      <trkpt lat="42.71904" lon="-8.64914">
        <ele>22.25</ele>
        <time>2019-06-07T09:59:14Z</time>
      </trkpt>
      <trkpt lat="42.71915" lon="-8.64911">
        <ele>22.73</ele>
        <time>2019-06-07T09:59:24Z</time>
      </trkpt>
      <trkpt lat="42.71933" lon="-8.64908">
        <ele>23.21</ele>
        <time>2019-06-07T09:59:38Z</time>
      </trkpt>
      <trkpt lat="42.7195" lon="-8.649">
        <ele>24.17</ele>
        <time>2019-06-07T09:59:53Z</time>
      </trkpt>
      <trkpt lat="42.71955" lon="-8.64895">
        <ele>24.17</ele>
        <time>2019-06-07T09:59:59Z</time>
      </trkpt>
      <trkpt lat="42.71961" lon="-8.64898">
        <ele>24.17</ele>
        <time>2019-06-07T10:00:04Z</time>
      </trkpt>
      <trkpt lat="42.71967" lon="-8.64903">
        <ele>23.69</ele>
        <time>2019-06-07T10:00:11Z</time>
      </trkpt>
      <trkpt lat="42.71972" lon="-8.64914">
        <ele>24.17</ele>
        <time>2019-06-07T10:00:20Z</time>
      </trkpt>
      <trkpt lat="42.71977" lon="-8.64923">
        <ele>24.65</ele>
        <time>2019-06-07T10:00:34Z</time>
      </trkpt>
      <trkpt lat="42.71983" lon="-8.64944">
        <ele>26.09</ele>
        <time>2019-06-07T10:00:49Z</time>
      </trkpt>
      <trkpt lat="42.71984" lon="-8.64946">
        <ele>26.09</ele>
        <time>2019-06-07T10:00:51Z</time>
      </trkpt>
      <trkpt lat="42.71996" lon="-8.64957">
        <ele>27.05</ele>
        <time>2019-06-07T10:01:06Z</time>
      </trkpt>
      <trkpt lat="42.72009" lon="-8.64956">
        <ele>28.5</ele>
        <time>2019-06-07T10:01:21Z</time>
      </trkpt>
      <trkpt lat="42.72021" lon="-8.64952">
        <ele>29.94</ele>
        <time>2019-06-07T10:01:34Z</time>
      </trkpt>
      <trkpt lat="42.72023" lon="-8.64953">
        <ele>29.94</ele>
        <time>2019-06-07T10:01:49Z</time>
      </trkpt>
      <trkpt lat="42.72028" lon="-8.6496">
        <ele>30.42</ele>
        <time>2019-06-07T10:02:09Z</time>
      </trkpt>
      <trkpt lat="42.72035" lon="-8.64969">
        <ele>31.86</ele>
        <time>2019-06-07T10:02:21Z</time>
      </trkpt>
      <trkpt lat="42.72047" lon="-8.64982">
        <ele>32.82</ele>
        <time>2019-06-07T10:02:36Z</time>
      </trkpt>
      <trkpt lat="42.72057" lon="-8.64993">
        <ele>33.3</ele>
        <time>2019-06-07T10:02:47Z</time>
      </trkpt>
      <trkpt lat="42.72069" lon="-8.6501">
        <ele>33.3</ele>
        <time>2019-06-07T10:03:02Z</time>
      </trkpt>
      <trkpt lat="42.72076" lon="-8.65019">
        <ele>33.3</ele>
        <time>2019-06-07T10:03:11Z</time>
      </trkpt>
      <trkpt lat="42.72081" lon="-8.65023">
        <ele>32.34</ele>
        <time>2019-06-07T10:03:16Z</time>
      </trkpt>
      <trkpt lat="42.72084" lon="-8.65024">
        <ele>31.86</ele>
        <time>2019-06-07T10:03:19Z</time>
      </trkpt>
      <trkpt lat="42.72101" lon="-8.65025">
        <ele>31.86</ele>
        <time>2019-06-07T10:03:32Z</time>
      </trkpt>
      <trkpt lat="42.72119" lon="-8.6502">
        <ele>31.38</ele>
        <time>2019-06-07T10:03:46Z</time>
      </trkpt>
      <trkpt lat="42.72135" lon="-8.65012">
        <ele>32.34</ele>
        <time>2019-06-07T10:04:01Z</time>
      </trkpt>
      <trkpt lat="42.7215" lon="-8.65007">
        <ele>33.3</ele>
        <time>2019-06-07T10:04:16Z</time>
      </trkpt>
      <trkpt lat="42.72159" lon="-8.65003">
        <ele>34.26</ele>
        <time>2019-06-07T10:04:31Z</time>
      </trkpt>
      <trkpt lat="42.7216" lon="-8.65001">
        <ele>34.26</ele>
        <time>2019-06-07T10:04:33Z</time>
      </trkpt>
      <trkpt lat="42.72162" lon="-8.65">
        <ele>33.78</ele>
        <time>2019-06-07T10:04:35Z</time>
      </trkpt>
      <trkpt lat="42.72174" lon="-8.64998">
        <ele>34.74</ele>
        <time>2019-06-07T10:04:47Z</time>
      </trkpt>
      <trkpt lat="42.72186" lon="-8.64992">
        <ele>34.26</ele>
        <time>2019-06-07T10:04:59Z</time>
      </trkpt>
      <trkpt lat="42.72201" lon="-8.64988">
        <ele>34.26</ele>
        <time>2019-06-07T10:05:14Z</time>
      </trkpt>
      <trkpt lat="42.72206" lon="-8.64986">
        <ele>34.26</ele>
        <time>2019-06-07T10:05:18Z</time>
      </trkpt>
      <trkpt lat="42.72213" lon="-8.64987">
        <ele>34.26</ele>
        <time>2019-06-07T10:05:23Z</time>
      </trkpt>
      <trkpt lat="42.72222" lon="-8.64991">
        <ele>33.3</ele>
        <time>2019-06-07T10:05:30Z</time>
      </trkpt>
      <trkpt lat="42.7224" lon="-8.64998">
        <ele>33.78</ele>
        <time>2019-06-07T10:05:45Z</time>
      </trkpt>
      <trkpt lat="42.72255" lon="-8.65009">
        <ele>34.26</ele>
        <time>2019-06-07T10:05:59Z</time>
      </trkpt>
      <trkpt lat="42.72266" lon="-8.65014">
        <ele>33.78</ele>
        <time>2019-06-07T10:06:11Z</time>
      </trkpt>
      <trkpt lat="42.72274" lon="-8.65017">
        <ele>32.82</ele>
        <time>2019-06-07T10:06:23Z</time>
      </trkpt>
      <trkpt lat="42.72284" lon="-8.65021">
        <ele>31.38</ele>
        <time>2019-06-07T10:06:32Z</time>
      </trkpt>
      <trkpt lat="42.723" lon="-8.65025">
        <ele>28.5</ele>
        <time>2019-06-07T10:06:46Z</time>
      </trkpt>
      <trkpt lat="42.72314" lon="-8.65034">
        <ele>27.05</ele>
        <time>2019-06-07T10:06:59Z</time>
      </trkpt>
      <trkpt lat="42.72325" lon="-8.65046">
        <ele>25.13</ele>
        <time>2019-06-07T10:07:12Z</time>
      </trkpt>
      <trkpt lat="42.72334" lon="-8.65053">
        <ele>24.65</ele>
        <time>2019-06-07T10:07:27Z</time>
      </trkpt>
      <trkpt lat="42.72347" lon="-8.65055">
        <ele>23.69</ele>
        <time>2019-06-07T10:07:40Z</time>
      </trkpt>
      <trkpt lat="42.72365" lon="-8.65059">
        <ele>22.25</ele>
        <time>2019-06-07T10:07:54Z</time>
      </trkpt>
      <trkpt lat="42.72379" lon="-8.65056">
        <ele>20.32</ele>
        <time>2019-06-07T10:08:08Z</time>
      </trkpt>
      <trkpt lat="42.72391" lon="-8.6505">
        <ele>18.88</ele>
        <time>2019-06-07T10:08:17Z</time>
      </trkpt>
      <trkpt lat="42.72402" lon="-8.65051">
        <ele>17.44</ele>
        <time>2019-06-07T10:08:26Z</time>
      </trkpt>
      <trkpt lat="42.72409" lon="-8.65058">
        <ele>17.44</ele>
        <time>2019-06-07T10:08:34Z</time>
      </trkpt>
      <trkpt lat="42.72424" lon="-8.65055">
        <ele>18.88</ele>
        <time>2019-06-07T10:08:51Z</time>
      </trkpt>
      <trkpt lat="42.72425" lon="-8.65056">
        <ele>18.88</ele>
        <time>2019-06-07T10:08:52Z</time>
      </trkpt>
      <trkpt lat="42.72442" lon="-8.65052">
        <ele>17.92</ele>
        <time>2019-06-07T10:09:05Z</time>
      </trkpt>
      <trkpt lat="42.72456" lon="-8.65051">
        <ele>17.92</ele>
        <time>2019-06-07T10:09:18Z</time>
      </trkpt>
      <trkpt lat="42.72474" lon="-8.65049">
        <ele>16.96</ele>
        <time>2019-06-07T10:09:32Z</time>
      </trkpt>
      <trkpt lat="42.72479" lon="-8.65047">
        <ele>16.48</ele>
        <time>2019-06-07T10:09:44Z</time>
      </trkpt>
      <trkpt lat="42.72483" lon="-8.65045">
        <ele>16.48</ele>
        <time>2019-06-07T10:09:47Z</time>
      </trkpt>
      <trkpt lat="42.72485" lon="-8.65044">
        <ele>15.52</ele>
        <time>2019-06-07T10:09:49Z</time>
      </trkpt>
      <trkpt lat="42.72489" lon="-8.65044">
        <ele>15.52</ele>
        <time>2019-06-07T10:09:54Z</time>
      </trkpt>
      <trkpt lat="42.72505" lon="-8.65044">
        <ele>13.6</ele>
        <time>2019-06-07T10:10:07Z</time>
      </trkpt>
      <trkpt lat="42.72512" lon="-8.65048">
        <ele>13.12</ele>
        <time>2019-06-07T10:10:26Z</time>
      </trkpt>
      <trkpt lat="42.72515" lon="-8.65048">
        <ele>13.12</ele>
        <time>2019-06-07T10:10:35Z</time>
      </trkpt>
      <trkpt lat="42.72521" lon="-8.65045">
        <ele>12.63</ele>
        <time>2019-06-07T10:10:41Z</time>
      </trkpt>
      <trkpt lat="42.72526" lon="-8.65043">
        <ele>12.63</ele>
        <time>2019-06-07T10:10:45Z</time>
      </trkpt>
      <trkpt lat="42.72534" lon="-8.65046">
        <ele>11.67</ele>
        <time>2019-06-07T10:10:53Z</time>
      </trkpt>
      <trkpt lat="42.72553" lon="-8.65053">
        <ele>9.75</ele>
        <time>2019-06-07T10:11:10Z</time>
      </trkpt>
      <trkpt lat="42.72566" lon="-8.65054">
        <ele>8.79</ele>
        <time>2019-06-07T10:11:19Z</time>
      </trkpt>
      <trkpt lat="42.72567" lon="-8.65054">
        <ele>8.79</ele>
        <time>2019-06-07T10:11:20Z</time>
      </trkpt>
      <trkpt lat="42.72576" lon="-8.65058">
        <ele>8.31</ele>
        <time>2019-06-07T10:11:28Z</time>
      </trkpt>
      <trkpt lat="42.7258" lon="-8.65064">
        <ele>8.31</ele>
        <time>2019-06-07T10:11:39Z</time>
      </trkpt>
      <trkpt lat="42.72581" lon="-8.65065">
        <ele>8.31</ele>
        <time>2019-06-07T10:11:40Z</time>
      </trkpt>
      <trkpt lat="42.72595" lon="-8.65073">
        <ele>6.87</ele>
        <time>2019-06-07T10:11:51Z</time>
      </trkpt>
      <trkpt lat="42.7261" lon="-8.65081">
        <ele>6.39</ele>
        <time>2019-06-07T10:12:03Z</time>
      </trkpt>
      <trkpt lat="42.72612" lon="-8.65091">
        <ele>6.39</ele>
        <time>2019-06-07T10:12:10Z</time>
      </trkpt>
      <trkpt lat="42.7261" lon="-8.65098">
        <ele>5.91</ele>
        <time>2019-06-07T10:12:15Z</time>
      </trkpt>
      <trkpt lat="42.72599" lon="-8.6513">
        <ele>5.42</ele>
        <time>2019-06-07T10:12:34Z</time>
      </trkpt>
      <trkpt lat="42.72593" lon="-8.65149">
        <ele>5.91</ele>
        <time>2019-06-07T10:12:49Z</time>
      </trkpt>
      <trkpt lat="42.72591" lon="-8.65151">
        <ele>5.91</ele>
        <time>2019-06-07T10:12:51Z</time>
      </trkpt>
      <trkpt lat="42.72591" lon="-8.65153">
        <ele>5.42</ele>
        <time>2019-06-07T10:12:52Z</time>
      </trkpt>
      <trkpt lat="42.7259" lon="-8.65157">
        <ele>4.94</ele>
        <time>2019-06-07T10:12:55Z</time>
      </trkpt>
      <trkpt lat="42.72587" lon="-8.65164">
        <ele>5.42</ele>
        <time>2019-06-07T10:13:00Z</time>
      </trkpt>
      <trkpt lat="42.72587" lon="-8.65166">
        <ele>3.98</ele>
        <time>2019-06-07T10:13:01Z</time>
      </trkpt>
      <trkpt lat="42.72583" lon="-8.65186">
        <ele>3.5</ele>
        <time>2019-06-07T10:13:14Z</time>
      </trkpt>
      <trkpt lat="42.72579" lon="-8.65204">
        <ele>4.46</ele>
        <time>2019-06-07T10:13:27Z</time>
      </trkpt>
      <trkpt lat="42.72574" lon="-8.65229">
        <ele>4.46</ele>
        <time>2019-06-07T10:13:42Z</time>
      </trkpt>
      <trkpt lat="42.72568" lon="-8.65236">
        <ele>4.46</ele>
        <time>2019-06-07T10:13:50Z</time>
      </trkpt>
      <trkpt lat="42.72556" lon="-8.65236">
        <ele>1.58</ele>
        <time>2019-06-07T10:14:02Z</time>
      </trkpt>
      <trkpt lat="42.72543" lon="-8.65239">
        <ele>3.02</ele>
        <time>2019-06-07T10:14:14Z</time>
      </trkpt>
      <trkpt lat="42.72542" lon="-8.6525">
        <ele>2.54</ele>
        <time>2019-06-07T10:14:28Z</time>
      </trkpt>
      <trkpt lat="42.72541" lon="-8.65254">
        <ele>2.54</ele>
        <time>2019-06-07T10:14:33Z</time>
      </trkpt>
      <trkpt lat="42.72544" lon="-8.65266">
        <ele>3.02</ele>
        <time>2019-06-07T10:14:41Z</time>
      </trkpt>
      <trkpt lat="42.72544" lon="-8.65268">
        <ele>2.54</ele>
        <time>2019-06-07T10:14:42Z</time>
      </trkpt>
      <trkpt lat="42.72547" lon="-8.65277">
        <ele>3.5</ele>
        <time>2019-06-07T10:14:49Z</time>
      </trkpt>
      <trkpt lat="42.7255" lon="-8.65291">
        <ele>4.46</ele>
        <time>2019-06-07T10:15:01Z</time>
      </trkpt>
      <trkpt lat="42.72552" lon="-8.65305">
        <ele>5.91</ele>
        <time>2019-06-07T10:15:15Z</time>
      </trkpt>
      <trkpt lat="42.72554" lon="-8.65318">
        <ele>5.91</ele>
        <time>2019-06-07T10:15:26Z</time>
      </trkpt>
      <trkpt lat="42.72554" lon="-8.65321">
        <ele>5.42</ele>
        <time>2019-06-07T10:15:28Z</time>
      </trkpt>
      <trkpt lat="42.72554" lon="-8.65325">
        <ele>5.91</ele>
        <time>2019-06-07T10:15:30Z</time>
      </trkpt>
      <trkpt lat="42.72554" lon="-8.65327">
        <ele>4.94</ele>
        <time>2019-06-07T10:15:31Z</time>
      </trkpt>
      <trkpt lat="42.72556" lon="-8.65348">
        <ele>4.94</ele>
        <time>2019-06-07T10:15:45Z</time>
      </trkpt>
      <trkpt lat="42.72554" lon="-8.65351">
        <ele>5.42</ele>
        <time>2019-06-07T10:15:47Z</time>
      </trkpt>
      <trkpt lat="42.72554" lon="-8.65353">
        <ele>5.42</ele>
        <time>2019-06-07T10:15:48Z</time>
      </trkpt>
      <trkpt lat="42.72553" lon="-8.65354">
        <ele>4.94</ele>
        <time>2019-06-07T10:15:49Z</time>
      </trkpt>
      <trkpt lat="42.72553" lon="-8.65356">
        <ele>5.42</ele>
        <time>2019-06-07T10:15:50Z</time>
      </trkpt>
      <trkpt lat="42.72553" lon="-8.65358">
        <ele>4.94</ele>
        <time>2019-06-07T10:15:51Z</time>
      </trkpt>
      <trkpt lat="42.72549" lon="-8.6538">
        <ele>5.42</ele>
        <time>2019-06-07T10:16:04Z</time>
      </trkpt>
      <trkpt lat="42.72555" lon="-8.65397">
        <ele>6.87</ele>
        <time>2019-06-07T10:16:17Z</time>
      </trkpt>
      <trkpt lat="42.72555" lon="-8.65398">
        <ele>6.39</ele>
        <time>2019-06-07T10:16:18Z</time>
      </trkpt>
      <trkpt lat="42.72556" lon="-8.65405">
        <ele>5.91</ele>
        <time>2019-06-07T10:16:24Z</time>
      </trkpt>
      <trkpt lat="42.72556" lon="-8.65406">
        <ele>6.39</ele>
        <time>2019-06-07T10:16:25Z</time>
      </trkpt>
      <trkpt lat="42.72555" lon="-8.65411">
        <ele>7.35</ele>
        <time>2019-06-07T10:16:28Z</time>
      </trkpt>
      <trkpt lat="42.72555" lon="-8.65413">
        <ele>6.39</ele>
        <time>2019-06-07T10:16:29Z</time>
      </trkpt>
      <trkpt lat="42.72556" lon="-8.65414">
        <ele>6.87</ele>
        <time>2019-06-07T10:16:30Z</time>
      </trkpt>
      <trkpt lat="42.72556" lon="-8.65417">
        <ele>6.87</ele>
        <time>2019-06-07T10:16:32Z</time>
      </trkpt>
      <trkpt lat="42.72555" lon="-8.65419">
        <ele>6.39</ele>
        <time>2019-06-07T10:16:33Z</time>
      </trkpt>
      <trkpt lat="42.72554" lon="-8.6544">
        <ele>6.39</ele>
        <time>2019-06-07T10:16:46Z</time>
      </trkpt>
      <trkpt lat="42.72552" lon="-8.65464">
        <ele>6.87</ele>
        <time>2019-06-07T10:17:01Z</time>
      </trkpt>
      <trkpt lat="42.7255" lon="-8.6548">
        <ele>6.39</ele>
        <time>2019-06-07T10:17:12Z</time>
      </trkpt>
      <trkpt lat="42.72549" lon="-8.65502">
        <ele>6.39</ele>
        <time>2019-06-07T10:17:27Z</time>
      </trkpt>
      <trkpt lat="42.72545" lon="-8.65526">
        <ele>6.39</ele>
        <time>2019-06-07T10:17:42Z</time>
      </trkpt>
      <trkpt lat="42.72541" lon="-8.65547">
        <ele>5.91</ele>
        <time>2019-06-07T10:17:56Z</time>
      </trkpt>
      <trkpt lat="42.72539" lon="-8.65547">
        <ele>4.46</ele>
        <time>2019-06-07T10:17:58Z</time>
      </trkpt>
      <trkpt lat="42.72521" lon="-8.65547">
        <ele>3.5</ele>
        <time>2019-06-07T10:18:13Z</time>
      </trkpt>
      <trkpt lat="42.72521" lon="-8.65549">
        <ele>4.94</ele>
        <time>2019-06-07T10:18:14Z</time>
      </trkpt>
      <trkpt lat="42.72521" lon="-8.6555">
        <ele>4.94</ele>
        <time>2019-06-07T10:18:15Z</time>
      </trkpt>
      <trkpt lat="42.72523" lon="-8.65561">
        <ele>4.46</ele>
        <time>2019-06-07T10:18:23Z</time>
      </trkpt>
      <trkpt lat="42.72534" lon="-8.65564">
        <ele>5.42</ele>
        <time>2019-06-07T10:18:37Z</time>
      </trkpt>
      <trkpt lat="42.7254" lon="-8.65567">
        <ele>5.91</ele>
        <time>2019-06-07T10:18:59Z</time>
      </trkpt>
      <trkpt lat="42.72544" lon="-8.65577">
        <ele>6.39</ele>
        <time>2019-06-07T10:19:11Z</time>
      </trkpt>
      <trkpt lat="42.72545" lon="-8.6559">
        <ele>5.91</ele>
        <time>2019-06-07T10:19:22Z</time>
      </trkpt>
      <trkpt lat="42.72544" lon="-8.656">
        <ele>5.42</ele>
        <time>2019-06-07T10:19:29Z</time>
      </trkpt>
      <trkpt lat="42.72547" lon="-8.65613">
        <ele>3.5</ele>
        <time>2019-06-07T10:19:40Z</time>
      </trkpt>
      <trkpt lat="42.72555" lon="-8.65613">
        <ele>3.98</ele>
        <time>2019-06-07T10:19:48Z</time>
      </trkpt>
      <trkpt lat="42.72557" lon="-8.65614">
        <ele>3.98</ele>
        <time>2019-06-07T10:19:50Z</time>
      </trkpt>
      <trkpt lat="42.72562" lon="-8.65619">
        <ele>3.5</ele>
        <time>2019-06-07T10:19:56Z</time>
      </trkpt>
      <trkpt lat="42.72562" lon="-8.65632">
        <ele>3.5</ele>
        <time>2019-06-07T10:20:08Z</time>
      </trkpt>
      <trkpt lat="42.72569" lon="-8.65648">
        <ele>2.54</ele>
        <time>2019-06-07T10:20:19Z</time>
      </trkpt>
      <trkpt lat="42.72576" lon="-8.6567">
        <ele>3.02</ele>
        <time>2019-06-07T10:20:34Z</time>
      </trkpt>
      <trkpt lat="42.72583" lon="-8.65695">
        <ele>2.54</ele>
        <time>2019-06-07T10:20:49Z</time>
      </trkpt>
      <trkpt lat="42.72592" lon="-8.65717">
        <ele>3.02</ele>
        <time>2019-06-07T10:21:03Z</time>
      </trkpt>
      <trkpt lat="42.72597" lon="-8.65739">
        <ele>3.02</ele>
        <time>2019-06-07T10:21:16Z</time>
      </trkpt>
      <trkpt lat="42.726" lon="-8.65755">
        <ele>3.02</ele>
        <time>2019-06-07T10:21:29Z</time>
      </trkpt>
      <trkpt lat="42.72605" lon="-8.65775">
        <ele>3.02</ele>
        <time>2019-06-07T10:21:43Z</time>
      </trkpt>
      <trkpt lat="42.72606" lon="-8.6578">
        <ele>3.98</ele>
        <time>2019-06-07T10:21:47Z</time>
      </trkpt>
      <trkpt lat="42.72617" lon="-8.658">
        <ele>3.5</ele>
        <time>2019-06-07T10:22:04Z</time>
      </trkpt>
      <trkpt lat="42.72626" lon="-8.65816">
        <ele>3.5</ele>
        <time>2019-06-07T10:22:16Z</time>
      </trkpt>
      <trkpt lat="42.72627" lon="-8.65819">
        <ele>3.5</ele>
        <time>2019-06-07T10:22:18Z</time>
      </trkpt>
      <trkpt lat="42.72638" lon="-8.65841">
        <ele>3.98</ele>
        <time>2019-06-07T10:22:34Z</time>
      </trkpt>
      <trkpt lat="42.72639" lon="-8.65843">
        <ele>3.98</ele>
        <time>2019-06-07T10:22:36Z</time>
      </trkpt>
      <trkpt lat="42.72656" lon="-8.65842">
        <ele>4.46</ele>
        <time>2019-06-07T10:22:52Z</time>
      </trkpt>
      <trkpt lat="42.72666" lon="-8.65841">
        <ele>4.46</ele>
        <time>2019-06-07T10:23:00Z</time>
      </trkpt>
      <trkpt lat="42.72676" lon="-8.65864">
        <ele>4.46</ele>
        <time>2019-06-07T10:23:16Z</time>
      </trkpt>
      <trkpt lat="42.7268" lon="-8.65891">
        <ele>3.98</ele>
        <time>2019-06-07T10:23:33Z</time>
      </trkpt>
      <trkpt lat="42.72684" lon="-8.65916">
        <ele>3.98</ele>
        <time>2019-06-07T10:23:49Z</time>
      </trkpt>
      <trkpt lat="42.72686" lon="-8.65945">
        <ele>3.98</ele>
        <time>2019-06-07T10:24:05Z</time>
      </trkpt>
      <trkpt lat="42.72689" lon="-8.65969">
        <ele>3.5</ele>
        <time>2019-06-07T10:24:20Z</time>
      </trkpt>
      <trkpt lat="42.72705" lon="-8.65982">
        <ele>2.54</ele>
        <time>2019-06-07T10:24:35Z</time>
      </trkpt>
      <trkpt lat="42.72708" lon="-8.65984">
        <ele>3.02</ele>
        <time>2019-06-07T10:24:38Z</time>
      </trkpt>
      <trkpt lat="42.72718" lon="-8.66003">
        <ele>3.02</ele>
        <time>2019-06-07T10:24:53Z</time>
      </trkpt>
      <trkpt lat="42.72723" lon="-8.66028">
        <ele>3.5</ele>
        <time>2019-06-07T10:25:09Z</time>
      </trkpt>
      <trkpt lat="42.72724" lon="-8.6604">
        <ele>3.98</ele>
        <time>2019-06-07T10:25:17Z</time>
      </trkpt>
      <trkpt lat="42.72725" lon="-8.66053">
        <ele>3.5</ele>
        <time>2019-06-07T10:25:24Z</time>
      </trkpt>
      <trkpt lat="42.72713" lon="-8.66081">
        <ele>3.5</ele>
        <time>2019-06-07T10:25:42Z</time>
      </trkpt>
      <trkpt lat="42.72707" lon="-8.66107">
        <ele>3.5</ele>
        <time>2019-06-07T10:25:58Z</time>
      </trkpt>
      <trkpt lat="42.7271" lon="-8.66128">
        <ele>4.46</ele>
        <time>2019-06-07T10:26:14Z</time>
      </trkpt>
      <trkpt lat="42.72713" lon="-8.6613">
        <ele>5.42</ele>
        <time>2019-06-07T10:26:18Z</time>
      </trkpt>
      <trkpt lat="42.7273" lon="-8.66126">
        <ele>4.94</ele>
        <time>2019-06-07T10:26:33Z</time>
      </trkpt>
      <trkpt lat="42.72741" lon="-8.66122">
        <ele>5.91</ele>
        <time>2019-06-07T10:26:42Z</time>
      </trkpt>
      <trkpt lat="42.7276" lon="-8.6612">
        <ele>5.42</ele>
        <time>2019-06-07T10:26:59Z</time>
      </trkpt>
      <trkpt lat="42.72774" lon="-8.66116">
        <ele>5.42</ele>
        <time>2019-06-07T10:27:14Z</time>
      </trkpt>
      <trkpt lat="42.72792" lon="-8.66114">
        <ele>4.94</ele>
        <time>2019-06-07T10:27:28Z</time>
      </trkpt>
      <trkpt lat="42.72799" lon="-8.66113">
        <ele>4.94</ele>
        <time>2019-06-07T10:27:34Z</time>
      </trkpt>
      <trkpt lat="42.7281" lon="-8.66112">
        <ele>4.46</ele>
        <time>2019-06-07T10:27:45Z</time>
      </trkpt>
      <trkpt lat="42.72827" lon="-8.66108">
        <ele>3.98</ele>
        <time>2019-06-07T10:27:59Z</time>
      </trkpt>
      <trkpt lat="42.72848" lon="-8.66105">
        <ele>4.46</ele>
        <time>2019-06-07T10:28:15Z</time>
      </trkpt>
      <trkpt lat="42.7286" lon="-8.66105">
        <ele>4.46</ele>
        <time>2019-06-07T10:28:28Z</time>
      </trkpt>
      <trkpt lat="42.72865" lon="-8.66104">
        <ele>4.94</ele>
        <time>2019-06-07T10:28:32Z</time>
      </trkpt>
      <trkpt lat="42.72885" lon="-8.661">
        <ele>3.98</ele>
        <time>2019-06-07T10:28:48Z</time>
      </trkpt>
      <trkpt lat="42.72904" lon="-8.66099">
        <ele>4.46</ele>
        <time>2019-06-07T10:29:04Z</time>
      </trkpt>
      <trkpt lat="42.72913" lon="-8.66098">
        <ele>4.94</ele>
        <time>2019-06-07T10:29:16Z</time>
      </trkpt>
      <trkpt lat="42.72924" lon="-8.66097">
        <ele>4.46</ele>
        <time>2019-06-07T10:29:25Z</time>
      </trkpt>
      <trkpt lat="42.72927" lon="-8.66097">
        <ele>3.98</ele>
        <time>2019-06-07T10:29:28Z</time>
      </trkpt>
      <trkpt lat="42.72936" lon="-8.66097">
        <ele>4.46</ele>
        <time>2019-06-07T10:29:35Z</time>
      </trkpt>
      <trkpt lat="42.72953" lon="-8.66096">
        <ele>3.98</ele>
        <time>2019-06-07T10:29:48Z</time>
      </trkpt>
      <trkpt lat="42.72964" lon="-8.66095">
        <ele>4.46</ele>
        <time>2019-06-07T10:29:57Z</time>
      </trkpt>
      <trkpt lat="42.72986" lon="-8.66095">
        <ele>3.5</ele>
        <time>2019-06-07T10:30:14Z</time>
      </trkpt>
      <trkpt lat="42.72988" lon="-8.66094">
        <ele>3.5</ele>
        <time>2019-06-07T10:30:16Z</time>
      </trkpt>
      <trkpt lat="42.73006" lon="-8.66091">
        <ele>3.98</ele>
        <time>2019-06-07T10:30:32Z</time>
      </trkpt>
      <trkpt lat="42.73025" lon="-8.66092">
        <ele>4.46</ele>
        <time>2019-06-07T10:30:48Z</time>
      </trkpt>
      <trkpt lat="42.73036" lon="-8.66094">
        <ele>3.98</ele>
        <time>2019-06-07T10:31:02Z</time>
      </trkpt>
      <trkpt lat="42.7305" lon="-8.66095">
        <ele>4.46</ele>
        <time>2019-06-07T10:31:14Z</time>
      </trkpt>
      <trkpt lat="42.73069" lon="-8.66098">
        <ele>4.46</ele>
        <time>2019-06-07T10:31:30Z</time>
      </trkpt>
      <trkpt lat="42.73077" lon="-8.66098">
        <ele>4.46</ele>
        <time>2019-06-07T10:31:40Z</time>
      </trkpt>
      <trkpt lat="42.73095" lon="-8.66098">
        <ele>3.98</ele>
        <time>2019-06-07T10:31:55Z</time>
      </trkpt>
      <trkpt lat="42.73098" lon="-8.66098">
        <ele>4.46</ele>
        <time>2019-06-07T10:31:58Z</time>
      </trkpt>
      <trkpt lat="42.73117" lon="-8.66099">
        <ele>3.98</ele>
        <time>2019-06-07T10:32:15Z</time>
      </trkpt>
      <trkpt lat="42.73133" lon="-8.66104">
        <ele>3.98</ele>
        <time>2019-06-07T10:32:29Z</time>
      </trkpt>
      <trkpt lat="42.73142" lon="-8.66108">
        <ele>3.98</ele>
        <time>2019-06-07T10:32:37Z</time>
      </trkpt>
      <trkpt lat="42.73163" lon="-8.66113">
        <ele>3.98</ele>
        <time>2019-06-07T10:32:53Z</time>
      </trkpt>
      <trkpt lat="42.73178" lon="-8.66119">
        <ele>4.46</ele>
        <time>2019-06-07T10:33:07Z</time>
      </trkpt>
      <trkpt lat="42.73195" lon="-8.66123">
        <ele>3.98</ele>
        <time>2019-06-07T10:33:22Z</time>
      </trkpt>
      <trkpt lat="42.73215" lon="-8.66129">
        <ele>3.5</ele>
        <time>2019-06-07T10:33:39Z</time>
      </trkpt>
      <trkpt lat="42.73239" lon="-8.66135">
        <ele>3.5</ele>
        <time>2019-06-07T10:33:58Z</time>
      </trkpt>
      <trkpt lat="42.73258" lon="-8.66139">
        <ele>3.02</ele>
        <time>2019-06-07T10:34:14Z</time>
      </trkpt>
      <trkpt lat="42.73264" lon="-8.6614">
        <ele>3.5</ele>
        <time>2019-06-07T10:34:20Z</time>
      </trkpt>
      <trkpt lat="42.73269" lon="-8.66141">
        <ele>3.98</ele>
        <time>2019-06-07T10:34:25Z</time>
      </trkpt>
      <trkpt lat="42.73289" lon="-8.66145">
        <ele>3.5</ele>
        <time>2019-06-07T10:34:41Z</time>
      </trkpt>
      <trkpt lat="42.73307" lon="-8.66148">
        <ele>3.5</ele>
        <time>2019-06-07T10:34:56Z</time>
      </trkpt>
      <trkpt lat="42.73323" lon="-8.66152">
        <ele>3.5</ele>
        <time>2019-06-07T10:35:10Z</time>
      </trkpt>
      <trkpt lat="42.73336" lon="-8.66155">
        <ele>3.5</ele>
        <time>2019-06-07T10:35:22Z</time>
      </trkpt>
      <trkpt lat="42.73349" lon="-8.66158">
        <ele>3.5</ele>
        <time>2019-06-07T10:35:34Z</time>
      </trkpt>
      <trkpt lat="42.73365" lon="-8.6616">
        <ele>3.98</ele>
        <time>2019-06-07T10:35:47Z</time>
      </trkpt>
      <trkpt lat="42.73378" lon="-8.66162">
        <ele>3.02</ele>
        <time>2019-06-07T10:36:00Z</time>
      </trkpt>
      <trkpt lat="42.73394" lon="-8.66163">
        <ele>3.5</ele>
        <time>2019-06-07T10:36:12Z</time>
      </trkpt>
      <trkpt lat="42.73403" lon="-8.66152">
        <ele>3.98</ele>
        <time>2019-06-07T10:36:26Z</time>
      </trkpt>
      <trkpt lat="42.73402" lon="-8.66152">
        <ele>3.5</ele>
        <time>2019-06-07T10:36:36Z</time>
      </trkpt>
      <trkpt lat="42.73402" lon="-8.66152">
        <ele>3.5</ele>
        <time>2019-06-07T10:36:38Z</time>
      </trkpt>
      <trkpt lat="42.73412" lon="-8.66155">
        <ele>3.5</ele>
        <time>2019-06-07T10:36:52Z</time>
      </trkpt>
      <trkpt lat="42.73428" lon="-8.66157">
        <ele>3.02</ele>
        <time>2019-06-07T10:37:06Z</time>
      </trkpt>
      <trkpt lat="42.73444" lon="-8.66159">
        <ele>3.5</ele>
        <time>2019-06-07T10:37:20Z</time>
      </trkpt>
      <trkpt lat="42.73445" lon="-8.6616">
        <ele>3.5</ele>
        <time>2019-06-07T10:37:21Z</time>
      </trkpt>
      <trkpt lat="42.73466" lon="-8.66159">
        <ele>3.98</ele>
        <time>2019-06-07T10:37:37Z</time>
      </trkpt>
      <trkpt lat="42.73479" lon="-8.6616">
        <ele>3.5</ele>
        <time>2019-06-07T10:37:50Z</time>
      </trkpt>
      <trkpt lat="42.73495" lon="-8.6616">
        <ele>3.98</ele>
        <time>2019-06-07T10:38:02Z</time>
      </trkpt>
      <trkpt lat="42.73511" lon="-8.66155">
        <ele>3.98</ele>
        <time>2019-06-07T10:38:14Z</time>
      </trkpt>
      <trkpt lat="42.73513" lon="-8.66154">
        <ele>3.5</ele>
        <time>2019-06-07T10:38:16Z</time>
      </trkpt>
      <trkpt lat="42.73525" lon="-8.66152">
        <ele>3.98</ele>
        <time>2019-06-07T10:38:28Z</time>
      </trkpt>
      <trkpt lat="42.73532" lon="-8.66148">
        <ele>4.46</ele>
        <time>2019-06-07T10:38:38Z</time>
      </trkpt>
      <trkpt lat="42.7355" lon="-8.66145">
        <ele>4.46</ele>
        <time>2019-06-07T10:38:52Z</time>
      </trkpt>
      <trkpt lat="42.73554" lon="-8.66147">
        <ele>3.98</ele>
        <time>2019-06-07T10:38:55Z</time>
      </trkpt>
      <trkpt lat="42.73566" lon="-8.66148">
        <ele>4.46</ele>
        <time>2019-06-07T10:39:05Z</time>
      </trkpt>
      <trkpt lat="42.73572" lon="-8.66148">
        <ele>4.46</ele>
        <time>2019-06-07T10:39:10Z</time>
      </trkpt>
      <trkpt lat="42.73583" lon="-8.66151">
        <ele>4.46</ele>
        <time>2019-06-07T10:39:22Z</time>
      </trkpt>
      <trkpt lat="42.73585" lon="-8.66152">
        <ele>4.94</ele>
        <time>2019-06-07T10:39:31Z</time>
      </trkpt>
      <trkpt lat="42.73589" lon="-8.66149">
        <ele>4.46</ele>
        <time>2019-06-07T10:39:39Z</time>
      </trkpt>
      <trkpt lat="42.73607" lon="-8.6615">
        <ele>4.94</ele>
        <time>2019-06-07T10:39:53Z</time>
      </trkpt>
      <trkpt lat="42.73616" lon="-8.66152">
        <ele>4.46</ele>
        <time>2019-06-07T10:40:01Z</time>
      </trkpt>
      <trkpt lat="42.73631" lon="-8.66139">
        <ele>3.98</ele>
        <time>2019-06-07T10:40:14Z</time>
      </trkpt>
      <trkpt lat="42.73638" lon="-8.66135">
        <ele>4.46</ele>
        <time>2019-06-07T10:40:20Z</time>
      </trkpt>
      <trkpt lat="42.73652" lon="-8.66138">
        <ele>4.46</ele>
        <time>2019-06-07T10:40:35Z</time>
      </trkpt>
      <trkpt lat="42.73666" lon="-8.66135">
        <ele>3.98</ele>
        <time>2019-06-07T10:40:51Z</time>
      </trkpt>
      <trkpt lat="42.73668" lon="-8.66127">
        <ele>4.46</ele>
        <time>2019-06-07T10:41:01Z</time>
      </trkpt>
      <trkpt lat="42.7367" lon="-8.66124">
        <ele>3.98</ele>
        <time>2019-06-07T10:41:06Z</time>
      </trkpt>
      <trkpt lat="42.7367" lon="-8.66121">
        <ele>3.98</ele>
        <time>2019-06-07T10:41:08Z</time>
      </trkpt>
      <trkpt lat="42.73682" lon="-8.66106">
        <ele>5.42</ele>
        <time>2019-06-07T10:41:20Z</time>
      </trkpt>
      <trkpt lat="42.73687" lon="-8.66096">
        <ele>4.46</ele>
        <time>2019-06-07T10:41:33Z</time>
      </trkpt>
      <trkpt lat="42.73684" lon="-8.66109">
        <ele>2.06</ele>
        <time>2019-06-07T10:41:45Z</time>
      </trkpt>
      <trkpt lat="42.73682" lon="-8.66122">
        <ele>3.98</ele>
        <time>2019-06-07T10:41:58Z</time>
      </trkpt>
      <trkpt lat="42.73683" lon="-8.66126">
        <ele>3.5</ele>
        <time>2019-06-07T10:42:12Z</time>
      </trkpt>
      <trkpt lat="42.7368" lon="-8.66128">
        <ele>4.46</ele>
        <time>2019-06-07T10:42:31Z</time>
      </trkpt>
      <trkpt lat="42.7368" lon="-8.66124">
        <ele>3.5</ele>
        <time>2019-06-07T10:42:48Z</time>
      </trkpt>
      <trkpt lat="42.73679" lon="-8.66125">
        <ele>3.02</ele>
        <time>2019-06-07T10:42:59Z</time>
      </trkpt>
      <trkpt lat="42.73682" lon="-8.66123">
        <ele>3.5</ele>
        <time>2019-06-07T10:43:13Z</time>
      </trkpt>
      <trkpt lat="42.73681" lon="-8.66123">
        <ele>2.54</ele>
        <time>2019-06-07T10:43:33Z</time>
      </trkpt>
    </trkseg>
  </trk>
</gpx>